<?xml version='1.0' encoding='UTF-8'?>
<gpx version="1.1" creator="https://www.komoot.de" xmlns="http://www.topografix.com/GPX/1/1" xmlns:xsi="http://www.w3.org/2001/XMLSchema-instance" xsi:schemaLocation="http://www.topografix.com/GPX/1/1 http://www.topografix.com/GPX/1/1/gpx.xsd">
  <metadata>
    <name>81_1000EndenburgBrombach</name>
    <author>
      <link href="https://www.komoot.de">
        <text>komoot</text>
        <type>text/html</type>
      </link>
    </author>
  </metadata>
  <trk>
    <name>81_1000EndenburgBrombach</name>
    <trkseg>
      <trkpt lat="47.541402" lon="7.870797">
        <ele>339.178574</ele>
        <time>2021-11-22T07:16:40.735Z</time>
      </trkpt>
      <trkpt lat="47.541410" lon="7.870791">
        <ele>339.178574</ele>
        <time>2021-11-22T07:16:40.839Z</time>
      </trkpt>
      <trkpt lat="47.541576" lon="7.870664">
        <ele>339.178574</ele>
        <time>2021-11-22T07:16:43.279Z</time>
      </trkpt>
      <trkpt lat="47.541550" lon="7.870601">
        <ele>339.178574</ele>
        <time>2021-11-22T07:16:44.089Z</time>
      </trkpt>
      <trkpt lat="47.541521" lon="7.870517">
        <ele>339.178574</ele>
        <time>2021-11-22T07:16:45.146Z</time>
      </trkpt>
      <trkpt lat="47.541606" lon="7.870424">
        <ele>339.178574</ele>
        <time>2021-11-22T07:16:46.774Z</time>
      </trkpt>
      <trkpt lat="47.541910" lon="7.870106">
        <ele>339.178574</ele>
        <time>2021-11-22T07:16:52.436Z</time>
      </trkpt>
      <trkpt lat="47.542014" lon="7.870126">
        <ele>339.178574</ele>
        <time>2021-11-22T07:16:53.907Z</time>
      </trkpt>
      <trkpt lat="47.542118" lon="7.870135">
        <ele>339.080348</ele>
        <time>2021-11-22T07:16:55.649Z</time>
      </trkpt>
      <trkpt lat="47.542181" lon="7.870131">
        <ele>339.016419</ele>
        <time>2021-11-22T07:16:56.538Z</time>
      </trkpt>
      <trkpt lat="47.542317" lon="7.870012">
        <ele>338.856283</ele>
        <time>2021-11-22T07:16:58.630Z</time>
      </trkpt>
      <trkpt lat="47.542348" lon="7.869983">
        <ele>338.819113</ele>
        <time>2021-11-22T07:16:59.069Z</time>
      </trkpt>
      <trkpt lat="47.542329" lon="7.869820">
        <ele>338.705909</ele>
        <time>2021-11-22T07:17:00.854Z</time>
      </trkpt>
      <trkpt lat="47.542372" lon="7.869746">
        <ele>338.639087</ele>
        <time>2021-11-22T07:17:01.679Z</time>
      </trkpt>
      <trkpt lat="47.542657" lon="7.869354">
        <ele>338.244807</ele>
        <time>2021-11-22T07:17:06.460Z</time>
      </trkpt>
      <trkpt lat="47.542696" lon="7.869257">
        <ele>338.167540</ele>
        <time>2021-11-22T07:17:07.395Z</time>
      </trkpt>
      <trkpt lat="47.542722" lon="7.869201">
        <ele>338.121025</ele>
        <time>2021-11-22T07:17:07.986Z</time>
      </trkpt>
      <trkpt lat="47.543049" lon="7.868759">
        <ele>337.672243</ele>
        <time>2021-11-22T07:17:12.899Z</time>
      </trkpt>
      <trkpt lat="47.543105" lon="7.868711">
        <ele>337.606651</ele>
        <time>2021-11-22T07:17:13.638Z</time>
      </trkpt>
      <trkpt lat="47.543201" lon="7.868657">
        <ele>337.502544</ele>
        <time>2021-11-22T07:17:14.716Z</time>
      </trkpt>
      <trkpt lat="47.543657" lon="7.868359">
        <ele>336.906121</ele>
        <time>2021-11-22T07:17:20.511Z</time>
      </trkpt>
      <trkpt lat="47.543801" lon="7.868269">
        <ele>336.707312</ele>
        <time>2021-11-22T07:17:22.991Z</time>
      </trkpt>
      <trkpt lat="47.544214" lon="7.867988">
        <ele>336.129199</ele>
        <time>2021-11-22T07:17:30.607Z</time>
      </trkpt>
      <trkpt lat="47.544246" lon="7.867967">
        <ele>336.084678</ele>
        <time>2021-11-22T07:17:31.204Z</time>
      </trkpt>
      <trkpt lat="47.544410" lon="7.867825">
        <ele>335.843045</ele>
        <time>2021-11-22T07:17:34.457Z</time>
      </trkpt>
      <trkpt lat="47.544469" lon="7.867776">
        <ele>335.757005</ele>
        <time>2021-11-22T07:17:35.479Z</time>
      </trkpt>
      <trkpt lat="47.544568" lon="7.867693">
        <ele>335.612305</ele>
        <time>2021-11-22T07:17:37.406Z</time>
      </trkpt>
      <trkpt lat="47.545003" lon="7.867278">
        <ele>335.125342</ele>
        <time>2021-11-22T07:17:46.254Z</time>
      </trkpt>
      <trkpt lat="47.545160" lon="7.866985">
        <ele>335.290890</ele>
        <time>2021-11-22T07:17:50.905Z</time>
      </trkpt>
      <trkpt lat="47.545240" lon="7.866887">
        <ele>335.358946</ele>
        <time>2021-11-22T07:17:53.179Z</time>
      </trkpt>
      <trkpt lat="47.546096" lon="7.866147">
        <ele>336.008690</ele>
        <time>2021-11-22T07:18:18.249Z</time>
      </trkpt>
      <trkpt lat="47.546327" lon="7.865959">
        <ele>336.181479</ele>
        <time>2021-11-22T07:18:24.669Z</time>
      </trkpt>
      <trkpt lat="47.546510" lon="7.865766">
        <ele>336.256479</ele>
        <time>2021-11-22T07:18:31.055Z</time>
      </trkpt>
      <trkpt lat="47.546819" lon="7.865489">
        <ele>336.285713</ele>
        <time>2021-11-22T07:18:39.208Z</time>
      </trkpt>
      <trkpt lat="47.546889" lon="7.865225">
        <ele>336.301210</ele>
        <time>2021-11-22T07:18:42.995Z</time>
      </trkpt>
      <trkpt lat="47.546894" lon="7.864837">
        <ele>336.322413</ele>
        <time>2021-11-22T07:18:48.172Z</time>
      </trkpt>
      <trkpt lat="47.546885" lon="7.864500">
        <ele>336.340840</ele>
        <time>2021-11-22T07:18:53.811Z</time>
      </trkpt>
      <trkpt lat="47.546974" lon="7.864423">
        <ele>336.349183</ele>
        <time>2021-11-22T07:18:55.399Z</time>
      </trkpt>
      <trkpt lat="47.547320" lon="7.863864">
        <ele>336.390622</ele>
        <time>2021-11-22T07:19:05.324Z</time>
      </trkpt>
      <trkpt lat="47.547568" lon="7.863151">
        <ele>335.553243</ele>
        <time>2021-11-22T07:19:14.337Z</time>
      </trkpt>
      <trkpt lat="47.547930" lon="7.861711">
        <ele>333.898721</ele>
        <time>2021-11-22T07:19:30.711Z</time>
      </trkpt>
      <trkpt lat="47.548049" lon="7.860929">
        <ele>333.156139</ele>
        <time>2021-11-22T07:19:39.411Z</time>
      </trkpt>
      <trkpt lat="47.548334" lon="7.859801">
        <ele>332.180237</ele>
        <time>2021-11-22T07:19:52.892Z</time>
      </trkpt>
      <trkpt lat="47.548611" lon="7.858381">
        <ele>331.312065</ele>
        <time>2021-11-22T07:20:10.849Z</time>
      </trkpt>
      <trkpt lat="47.548686" lon="7.857973">
        <ele>331.265764</ele>
        <time>2021-11-22T07:20:16.237Z</time>
      </trkpt>
      <trkpt lat="47.548701" lon="7.857893">
        <ele>331.256673</ele>
        <time>2021-11-22T07:20:17.358Z</time>
      </trkpt>
      <trkpt lat="47.548743" lon="7.857692">
        <ele>331.233634</ele>
        <time>2021-11-22T07:20:20.132Z</time>
      </trkpt>
      <trkpt lat="47.548887" lon="7.857308">
        <ele>331.185534</ele>
        <time>2021-11-22T07:20:26.166Z</time>
      </trkpt>
      <trkpt lat="47.549362" lon="7.855774">
        <ele>330.873625</ele>
        <time>2021-11-22T07:20:50.210Z</time>
      </trkpt>
      <trkpt lat="47.549566" lon="7.855225">
        <ele>330.682200</ele>
        <time>2021-11-22T07:20:58.828Z</time>
      </trkpt>
      <trkpt lat="47.549883" lon="7.854434">
        <ele>330.401210</ele>
        <time>2021-11-22T07:21:10.282Z</time>
      </trkpt>
      <trkpt lat="47.550221" lon="7.853833">
        <ele>329.723962</ele>
        <time>2021-11-22T07:21:16.675Z</time>
      </trkpt>
      <trkpt lat="47.551516" lon="7.851950">
        <ele>324.971735</ele>
        <time>2021-11-22T07:21:35.472Z</time>
      </trkpt>
      <trkpt lat="47.551660" lon="7.851725">
        <ele>324.291609</ele>
        <time>2021-11-22T07:21:37.506Z</time>
      </trkpt>
      <trkpt lat="47.551830" lon="7.851603">
        <ele>323.677735</ele>
        <time>2021-11-22T07:21:39.424Z</time>
      </trkpt>
      <trkpt lat="47.551888" lon="7.851751">
        <ele>323.302354</ele>
        <time>2021-11-22T07:21:40.544Z</time>
      </trkpt>
      <trkpt lat="47.551925" lon="7.851845">
        <ele>323.063671</ele>
        <time>2021-11-22T07:21:41.269Z</time>
      </trkpt>
      <trkpt lat="47.552042" lon="7.852007">
        <ele>322.543248</ele>
        <time>2021-11-22T07:21:42.914Z</time>
      </trkpt>
      <trkpt lat="47.552097" lon="7.852063">
        <ele>322.326369</ele>
        <time>2021-11-22T07:21:43.548Z</time>
      </trkpt>
      <trkpt lat="47.552272" lon="7.852167">
        <ele>321.713598</ele>
        <time>2021-11-22T07:21:45.449Z</time>
      </trkpt>
      <trkpt lat="47.552449" lon="7.852231">
        <ele>321.121489</ele>
        <time>2021-11-22T07:21:47.254Z</time>
      </trkpt>
      <trkpt lat="47.552678" lon="7.851709">
        <ele>319.794349</ele>
        <time>2021-11-22T07:21:51.530Z</time>
      </trkpt>
      <trkpt lat="47.552876" lon="7.851300">
        <ele>319.083836</ele>
        <time>2021-11-22T07:21:55.078Z</time>
      </trkpt>
      <trkpt lat="47.553283" lon="7.850634">
        <ele>317.815581</ele>
        <time>2021-11-22T07:22:01.733Z</time>
      </trkpt>
      <trkpt lat="47.553344" lon="7.850525">
        <ele>317.615702</ele>
        <time>2021-11-22T07:22:02.810Z</time>
      </trkpt>
      <trkpt lat="47.553380" lon="7.850453">
        <ele>317.489215</ele>
        <time>2021-11-22T07:22:03.498Z</time>
      </trkpt>
      <trkpt lat="47.553537" lon="7.849904">
        <ele>316.647555</ele>
        <time>2021-11-22T07:22:07.983Z</time>
      </trkpt>
      <trkpt lat="47.553605" lon="7.849629">
        <ele>316.234136</ele>
        <time>2021-11-22T07:22:10.274Z</time>
      </trkpt>
      <trkpt lat="47.553725" lon="7.849291">
        <ele>315.830744</ele>
        <time>2021-11-22T07:22:13.196Z</time>
      </trkpt>
      <trkpt lat="47.554055" lon="7.848586">
        <ele>315.023722</ele>
        <time>2021-11-22T07:22:20.094Z</time>
      </trkpt>
      <trkpt lat="47.554209" lon="7.848300">
        <ele>314.679575</ele>
        <time>2021-11-22T07:22:23.057Z</time>
      </trkpt>
      <trkpt lat="47.554269" lon="7.848188">
        <ele>314.545071</ele>
        <time>2021-11-22T07:22:24.136Z</time>
      </trkpt>
      <trkpt lat="47.554351" lon="7.848049">
        <ele>314.371418</ele>
        <time>2021-11-22T07:22:25.596Z</time>
      </trkpt>
      <trkpt lat="47.554465" lon="7.847858">
        <ele>314.131583</ele>
        <time>2021-11-22T07:22:27.677Z</time>
      </trkpt>
      <trkpt lat="47.554618" lon="7.847626">
        <ele>313.826474</ele>
        <time>2021-11-22T07:22:30.176Z</time>
      </trkpt>
      <trkpt lat="47.554759" lon="7.847388">
        <ele>313.535387</ele>
        <time>2021-11-22T07:22:32.593Z</time>
      </trkpt>
      <trkpt lat="47.554892" lon="7.847148">
        <ele>313.273186</ele>
        <time>2021-11-22T07:22:35.025Z</time>
      </trkpt>
      <trkpt lat="47.554995" lon="7.846915">
        <ele>313.038011</ele>
        <time>2021-11-22T07:22:37.181Z</time>
      </trkpt>
      <trkpt lat="47.555068" lon="7.846672">
        <ele>312.813430</ele>
        <time>2021-11-22T07:22:39.242Z</time>
      </trkpt>
      <trkpt lat="47.555199" lon="7.846687">
        <ele>312.649051</ele>
        <time>2021-11-22T07:22:40.723Z</time>
      </trkpt>
      <trkpt lat="47.555727" lon="7.846715">
        <ele>311.988060</ele>
        <time>2021-11-22T07:22:47.181Z</time>
      </trkpt>
      <trkpt lat="47.555855" lon="7.846815">
        <ele>311.807027</ele>
        <time>2021-11-22T07:22:48.843Z</time>
      </trkpt>
      <trkpt lat="47.555892" lon="7.846856">
        <ele>311.749225</ele>
        <time>2021-11-22T07:22:49.400Z</time>
      </trkpt>
      <trkpt lat="47.555966" lon="7.846932">
        <ele>311.636582</ele>
        <time>2021-11-22T07:22:50.550Z</time>
      </trkpt>
      <trkpt lat="47.555990" lon="7.846965">
        <ele>311.595620</ele>
        <time>2021-11-22T07:22:50.982Z</time>
      </trkpt>
      <trkpt lat="47.556060" lon="7.846859">
        <ele>311.470404</ele>
        <time>2021-11-22T07:22:52.176Z</time>
      </trkpt>
      <trkpt lat="47.556636" lon="7.845928">
        <ele>310.791277</ele>
        <time>2021-11-22T07:23:02.562Z</time>
      </trkpt>
      <trkpt lat="47.557134" lon="7.845095">
        <ele>310.238483</ele>
        <time>2021-11-22T07:23:12.381Z</time>
      </trkpt>
      <trkpt lat="47.557282" lon="7.844832">
        <ele>310.068382</ele>
        <time>2021-11-22T07:23:15.520Z</time>
      </trkpt>
      <trkpt lat="47.557560" lon="7.844433">
        <ele>309.989556</ele>
        <time>2021-11-22T07:23:20.695Z</time>
      </trkpt>
      <trkpt lat="47.557715" lon="7.843940">
        <ele>309.953954</ele>
        <time>2021-11-22T07:23:25.701Z</time>
      </trkpt>
      <trkpt lat="47.557759" lon="7.843839">
        <ele>309.946085</ele>
        <time>2021-11-22T07:23:26.880Z</time>
      </trkpt>
      <trkpt lat="47.557846" lon="7.843756">
        <ele>309.936048</ele>
        <time>2021-11-22T07:23:28.222Z</time>
      </trkpt>
      <trkpt lat="47.557967" lon="7.843683">
        <ele>309.923376</ele>
        <time>2021-11-22T07:23:30.267Z</time>
      </trkpt>
      <trkpt lat="47.558136" lon="7.843582">
        <ele>309.905700</ele>
        <time>2021-11-22T07:23:32.954Z</time>
      </trkpt>
      <trkpt lat="47.558405" lon="7.843371">
        <ele>309.876178</ele>
        <time>2021-11-22T07:23:37.819Z</time>
      </trkpt>
      <trkpt lat="47.558471" lon="7.843365">
        <ele>309.869764</ele>
        <time>2021-11-22T07:23:38.670Z</time>
      </trkpt>
      <trkpt lat="47.558471" lon="7.843365">
        <ele>309.869764</ele>
        <time>2021-11-22T07:23:38.671Z</time>
      </trkpt>
      <trkpt lat="47.558555" lon="7.843392">
        <ele>309.861427</ele>
        <time>2021-11-22T07:23:39.970Z</time>
      </trkpt>
      <trkpt lat="47.558884" lon="7.843836">
        <ele>309.867960</ele>
        <time>2021-11-22T07:23:47.249Z</time>
      </trkpt>
      <trkpt lat="47.559060" lon="7.844197">
        <ele>309.890361</ele>
        <time>2021-11-22T07:23:52.075Z</time>
      </trkpt>
      <trkpt lat="47.559109" lon="7.844229">
        <ele>309.894353</ele>
        <time>2021-11-22T07:23:53.122Z</time>
      </trkpt>
      <trkpt lat="47.559158" lon="7.844233">
        <ele>309.898011</ele>
        <time>2021-11-22T07:23:54.070Z</time>
      </trkpt>
      <trkpt lat="47.559583" lon="7.843813">
        <ele>309.936088</ele>
        <time>2021-11-22T07:24:02.033Z</time>
      </trkpt>
      <trkpt lat="47.559847" lon="7.843604">
        <ele>309.958398</ele>
        <time>2021-11-22T07:24:06.448Z</time>
      </trkpt>
      <trkpt lat="47.560139" lon="7.843433">
        <ele>309.962178</ele>
        <time>2021-11-22T07:24:10.678Z</time>
      </trkpt>
      <trkpt lat="47.560209" lon="7.843393">
        <ele>309.887561</ele>
        <time>2021-11-22T07:24:11.630Z</time>
      </trkpt>
      <trkpt lat="47.560338" lon="7.843341">
        <ele>309.754600</ele>
        <time>2021-11-22T07:24:13.296Z</time>
      </trkpt>
      <trkpt lat="47.560430" lon="7.843341">
        <ele>309.663099</ele>
        <time>2021-11-22T07:24:14.838Z</time>
      </trkpt>
      <trkpt lat="47.560515" lon="7.843379">
        <ele>309.574798</ele>
        <time>2021-11-22T07:24:15.872Z</time>
      </trkpt>
      <trkpt lat="47.560812" lon="7.843560">
        <ele>309.255407</ele>
        <time>2021-11-22T07:24:19.931Z</time>
      </trkpt>
      <trkpt lat="47.560934" lon="7.843550">
        <ele>309.133884</ele>
        <time>2021-11-22T07:24:21.454Z</time>
      </trkpt>
      <trkpt lat="47.561038" lon="7.843502">
        <ele>309.025548</ele>
        <time>2021-11-22T07:24:22.742Z</time>
      </trkpt>
      <trkpt lat="47.561434" lon="7.843181">
        <ele>308.576628</ele>
        <time>2021-11-22T07:24:28.183Z</time>
      </trkpt>
      <trkpt lat="47.561498" lon="7.843130">
        <ele>308.504356</ele>
        <time>2021-11-22T07:24:28.947Z</time>
      </trkpt>
      <trkpt lat="47.562179" lon="7.842500">
        <ele>307.593289</ele>
        <time>2021-11-22T07:24:38.206Z</time>
      </trkpt>
      <trkpt lat="47.562300" lon="7.842326">
        <ele>307.386713</ele>
        <time>2021-11-22T07:24:40.157Z</time>
      </trkpt>
      <trkpt lat="47.562385" lon="7.842183">
        <ele>307.229158</ele>
        <time>2021-11-22T07:24:41.568Z</time>
      </trkpt>
      <trkpt lat="47.562440" lon="7.842083">
        <ele>307.122498</ele>
        <time>2021-11-22T07:24:42.684Z</time>
      </trkpt>
      <trkpt lat="47.562574" lon="7.841873">
        <ele>306.883544</ele>
        <time>2021-11-22T07:24:45.082Z</time>
      </trkpt>
      <trkpt lat="47.562904" lon="7.841632">
        <ele>306.432792</ele>
        <time>2021-11-22T07:24:49.571Z</time>
      </trkpt>
      <trkpt lat="47.562965" lon="7.841597">
        <ele>306.352647</ele>
        <time>2021-11-22T07:24:50.359Z</time>
      </trkpt>
      <trkpt lat="47.563016" lon="7.841568">
        <ele>306.285719</ele>
        <time>2021-11-22T07:24:51.060Z</time>
      </trkpt>
      <trkpt lat="47.563300" lon="7.841391">
        <ele>305.919012</ele>
        <time>2021-11-22T07:24:54.798Z</time>
      </trkpt>
      <trkpt lat="47.563483" lon="7.841269">
        <ele>305.706440</ele>
        <time>2021-11-22T07:24:57.356Z</time>
      </trkpt>
      <trkpt lat="47.563659" lon="7.841150">
        <ele>305.501509</ele>
        <time>2021-11-22T07:24:59.683Z</time>
      </trkpt>
      <trkpt lat="47.563805" lon="7.841046">
        <ele>305.329906</ele>
        <time>2021-11-22T07:25:01.745Z</time>
      </trkpt>
      <trkpt lat="47.563941" lon="7.840948">
        <ele>305.169708</ele>
        <time>2021-11-22T07:25:03.597Z</time>
      </trkpt>
      <trkpt lat="47.563986" lon="7.840916">
        <ele>305.116834</ele>
        <time>2021-11-22T07:25:04.218Z</time>
      </trkpt>
      <trkpt lat="47.564094" lon="7.840838">
        <ele>304.989563</ele>
        <time>2021-11-22T07:25:05.687Z</time>
      </trkpt>
      <trkpt lat="47.564463" lon="7.840580">
        <ele>304.557347</ele>
        <time>2021-11-22T07:25:10.674Z</time>
      </trkpt>
      <trkpt lat="47.564534" lon="7.840532">
        <ele>304.474677</ele>
        <time>2021-11-22T07:25:11.581Z</time>
      </trkpt>
      <trkpt lat="47.564558" lon="7.840516">
        <ele>304.446799</ele>
        <time>2021-11-22T07:25:11.905Z</time>
      </trkpt>
      <trkpt lat="47.564936" lon="7.840261">
        <ele>304.005085</ele>
        <time>2021-11-22T07:25:16.806Z</time>
      </trkpt>
      <trkpt lat="47.565057" lon="7.840213">
        <ele>303.869320</ele>
        <time>2021-11-22T07:25:18.220Z</time>
      </trkpt>
      <trkpt lat="47.565168" lon="7.840179">
        <ele>303.746469</ele>
        <time>2021-11-22T07:25:19.561Z</time>
      </trkpt>
      <trkpt lat="47.565233" lon="7.840176">
        <ele>303.675983</ele>
        <time>2021-11-22T07:25:20.297Z</time>
      </trkpt>
      <trkpt lat="47.565343" lon="7.840185">
        <ele>303.556577</ele>
        <time>2021-11-22T07:25:21.557Z</time>
      </trkpt>
      <trkpt lat="47.565906" lon="7.840272">
        <ele>302.943053</ele>
        <time>2021-11-22T07:25:28.417Z</time>
      </trkpt>
      <trkpt lat="47.566081" lon="7.840309">
        <ele>302.751456</ele>
        <time>2021-11-22T07:25:30.560Z</time>
      </trkpt>
      <trkpt lat="47.566142" lon="7.840322">
        <ele>302.684660</ele>
        <time>2021-11-22T07:25:31.242Z</time>
      </trkpt>
      <trkpt lat="47.566221" lon="7.840340">
        <ele>302.598029</ele>
        <time>2021-11-22T07:25:32.440Z</time>
      </trkpt>
      <trkpt lat="47.566350" lon="7.840350">
        <ele>302.458020</ele>
        <time>2021-11-22T07:25:34.129Z</time>
      </trkpt>
      <trkpt lat="47.566450" lon="7.840326">
        <ele>302.348221</ele>
        <time>2021-11-22T07:25:35.352Z</time>
      </trkpt>
      <trkpt lat="47.566515" lon="7.840312">
        <ele>302.277030</ele>
        <time>2021-11-22T07:25:36.098Z</time>
      </trkpt>
      <trkpt lat="47.566592" lon="7.840279">
        <ele>302.190153</ele>
        <time>2021-11-22T07:25:37.288Z</time>
      </trkpt>
      <trkpt lat="47.566826" lon="7.840179">
        <ele>302.017944</ele>
        <time>2021-11-22T07:25:40.222Z</time>
      </trkpt>
      <trkpt lat="47.567111" lon="7.839998">
        <ele>301.831003</ele>
        <time>2021-11-22T07:25:44.248Z</time>
      </trkpt>
      <trkpt lat="47.567406" lon="7.839778">
        <ele>301.631896</ele>
        <time>2021-11-22T07:25:48.500Z</time>
      </trkpt>
      <trkpt lat="47.567481" lon="7.839664">
        <ele>301.567125</ele>
        <time>2021-11-22T07:25:49.739Z</time>
      </trkpt>
      <trkpt lat="47.567510" lon="7.839548">
        <ele>301.516801</ele>
        <time>2021-11-22T07:25:51.017Z</time>
      </trkpt>
      <trkpt lat="47.567530" lon="7.839459">
        <ele>301.478641</ele>
        <time>2021-11-22T07:25:51.872Z</time>
      </trkpt>
      <trkpt lat="47.567564" lon="7.839283">
        <ele>301.404168</ele>
        <time>2021-11-22T07:25:53.526Z</time>
      </trkpt>
      <trkpt lat="47.567626" lon="7.839064">
        <ele>301.307555</ele>
        <time>2021-11-22T07:25:55.672Z</time>
      </trkpt>
      <trkpt lat="47.567634" lon="7.839037">
        <ele>301.295559</ele>
        <time>2021-11-22T07:25:55.913Z</time>
      </trkpt>
      <trkpt lat="47.567823" lon="7.838648">
        <ele>301.100557</ele>
        <time>2021-11-22T07:26:00.486Z</time>
      </trkpt>
      <trkpt lat="47.567846" lon="7.838609">
        <ele>301.079486</ele>
        <time>2021-11-22T07:26:00.941Z</time>
      </trkpt>
      <trkpt lat="47.567936" lon="7.838380">
        <ele>300.959074</ele>
        <time>2021-11-22T07:26:03.521Z</time>
      </trkpt>
      <trkpt lat="47.567961" lon="7.838248">
        <ele>300.894155</ele>
        <time>2021-11-22T07:26:04.696Z</time>
      </trkpt>
      <trkpt lat="47.567944" lon="7.838073">
        <ele>300.810437</ele>
        <time>2021-11-22T07:26:06.268Z</time>
      </trkpt>
      <trkpt lat="47.567822" lon="7.837479">
        <ele>300.516429</ele>
        <time>2021-11-22T07:26:11.505Z</time>
      </trkpt>
      <trkpt lat="47.567670" lon="7.836721">
        <ele>300.141992</ele>
        <time>2021-11-22T07:26:18.123Z</time>
      </trkpt>
      <trkpt lat="47.567647" lon="7.836576">
        <ele>300.071461</ele>
        <time>2021-11-22T07:26:19.385Z</time>
      </trkpt>
      <trkpt lat="47.567583" lon="7.836155">
        <ele>299.867115</ele>
        <time>2021-11-22T07:26:23.081Z</time>
      </trkpt>
      <trkpt lat="47.567562" lon="7.835760">
        <ele>299.702075</ele>
        <time>2021-11-22T07:26:26.534Z</time>
      </trkpt>
      <trkpt lat="47.567566" lon="7.835567">
        <ele>299.629979</ele>
        <time>2021-11-22T07:26:28.197Z</time>
      </trkpt>
      <trkpt lat="47.567674" lon="7.835182">
        <ele>299.474299</ele>
        <time>2021-11-22T07:26:31.846Z</time>
      </trkpt>
      <trkpt lat="47.567558" lon="7.835042">
        <ele>299.391515</ele>
        <time>2021-11-22T07:26:33.833Z</time>
      </trkpt>
      <trkpt lat="47.567179" lon="7.834275">
        <ele>299.036544</ele>
        <time>2021-11-22T07:26:42.177Z</time>
      </trkpt>
      <trkpt lat="47.566744" lon="7.833235">
        <ele>298.536241</ele>
        <time>2021-11-22T07:26:53.522Z</time>
      </trkpt>
      <trkpt lat="47.566366" lon="7.832333">
        <ele>298.058279</ele>
        <time>2021-11-22T07:27:02.976Z</time>
      </trkpt>
      <trkpt lat="47.566477" lon="7.832241">
        <ele>297.973434</ele>
        <time>2021-11-22T07:27:04.593Z</time>
      </trkpt>
      <trkpt lat="47.566755" lon="7.832115">
        <ele>297.779492</ele>
        <time>2021-11-22T07:27:08.224Z</time>
      </trkpt>
      <trkpt lat="47.566920" lon="7.832056">
        <ele>297.666257</ele>
        <time>2021-11-22T07:27:10.337Z</time>
      </trkpt>
      <trkpt lat="47.567257" lon="7.831926">
        <ele>297.289789</ele>
        <time>2021-11-22T07:27:14.537Z</time>
      </trkpt>
      <trkpt lat="47.568550" lon="7.831407">
        <ele>295.575786</ele>
        <time>2021-11-22T07:27:30.043Z</time>
      </trkpt>
      <trkpt lat="47.568694" lon="7.831293">
        <ele>295.366900</ele>
        <time>2021-11-22T07:27:31.955Z</time>
      </trkpt>
      <trkpt lat="47.568760" lon="7.831139">
        <ele>295.243770</ele>
        <time>2021-11-22T07:27:33.404Z</time>
      </trkpt>
      <trkpt lat="47.568775" lon="7.830924">
        <ele>295.137133</ele>
        <time>2021-11-22T07:27:35.166Z</time>
      </trkpt>
      <trkpt lat="47.568745" lon="7.830356">
        <ele>294.856049</ele>
        <time>2021-11-22T07:27:39.893Z</time>
      </trkpt>
      <trkpt lat="47.568703" lon="7.829453">
        <ele>294.409491</ele>
        <time>2021-11-22T07:27:47.659Z</time>
      </trkpt>
      <trkpt lat="47.568703" lon="7.829421">
        <ele>294.393703</ele>
        <time>2021-11-22T07:27:47.957Z</time>
      </trkpt>
      <trkpt lat="47.568659" lon="7.828544">
        <ele>293.972270</ele>
        <time>2021-11-22T07:27:55.981Z</time>
      </trkpt>
      <trkpt lat="47.568555" lon="7.826544">
        <ele>293.827148</ele>
        <time>2021-11-22T07:28:15.645Z</time>
      </trkpt>
      <trkpt lat="47.568503" lon="7.825849">
        <ele>293.768600</ele>
        <time>2021-11-22T07:28:22.602Z</time>
      </trkpt>
      <trkpt lat="47.568448" lon="7.824552">
        <ele>293.524502</ele>
        <time>2021-11-22T07:28:35.309Z</time>
      </trkpt>
      <trkpt lat="47.568380" lon="7.822935">
        <ele>293.280468</ele>
        <time>2021-11-22T07:28:49.661Z</time>
      </trkpt>
      <trkpt lat="47.568400" lon="7.820924">
        <ele>293.278268</ele>
        <time>2021-11-22T07:29:09.520Z</time>
      </trkpt>
      <trkpt lat="47.568443" lon="7.820342">
        <ele>293.369392</ele>
        <time>2021-11-22T07:29:42.122Z</time>
      </trkpt>
      <trkpt lat="47.568417" lon="7.819772">
        <ele>293.575408</ele>
        <time>2021-11-22T07:30:13.918Z</time>
      </trkpt>
      <trkpt lat="47.568311" lon="7.819210">
        <ele>293.785839</ele>
        <time>2021-11-22T07:30:46.407Z</time>
      </trkpt>
      <trkpt lat="47.568272" lon="7.818798">
        <ele>293.935865</ele>
        <time>2021-11-22T07:31:09.546Z</time>
      </trkpt>
      <trkpt lat="47.568146" lon="7.818228">
        <ele>294.152163</ele>
        <time>2021-11-22T07:31:42.866Z</time>
      </trkpt>
      <trkpt lat="47.568049" lon="7.817619">
        <ele>293.980576</ele>
        <time>2021-11-22T07:31:49.335Z</time>
      </trkpt>
      <trkpt lat="47.567988" lon="7.816752">
        <ele>293.393958</ele>
        <time>2021-11-22T07:31:56.538Z</time>
      </trkpt>
      <trkpt lat="47.568209" lon="7.815459">
        <ele>292.496340</ele>
        <time>2021-11-22T07:32:07.334Z</time>
      </trkpt>
      <trkpt lat="47.568245" lon="7.815273">
        <ele>292.221121</ele>
        <time>2021-11-22T07:32:08.663Z</time>
      </trkpt>
      <trkpt lat="47.568480" lon="7.814364">
        <ele>290.365712</ele>
        <time>2021-11-22T07:32:15.590Z</time>
      </trkpt>
      <trkpt lat="47.568572" lon="7.814114">
        <ele>289.822938</ele>
        <time>2021-11-22T07:32:17.665Z</time>
      </trkpt>
      <trkpt lat="47.568248" lon="7.813814">
        <ele>288.743720</ele>
        <time>2021-11-22T07:32:21.525Z</time>
      </trkpt>
      <trkpt lat="47.568430" lon="7.813371">
        <ele>287.755133</ele>
        <time>2021-11-22T07:32:25.015Z</time>
      </trkpt>
      <trkpt lat="47.568525" lon="7.813167">
        <ele>287.238087</ele>
        <time>2021-11-22T07:32:26.649Z</time>
      </trkpt>
      <trkpt lat="47.568896" lon="7.812282">
        <ele>284.165356</ele>
        <time>2021-11-22T07:32:33.606Z</time>
      </trkpt>
      <trkpt lat="47.569829" lon="7.810068">
        <ele>276.801050</ele>
        <time>2021-11-22T07:32:50.272Z</time>
      </trkpt>
      <trkpt lat="47.569897" lon="7.809907">
        <ele>276.302517</ele>
        <time>2021-11-22T07:32:51.554Z</time>
      </trkpt>
      <trkpt lat="47.570230" lon="7.809116">
        <ele>273.855453</ele>
        <time>2021-11-22T07:32:57.757Z</time>
      </trkpt>
      <trkpt lat="47.570259" lon="7.809051">
        <ele>273.650927</ele>
        <time>2021-11-22T07:32:58.303Z</time>
      </trkpt>
      <trkpt lat="47.570299" lon="7.808969">
        <ele>273.385350</ele>
        <time>2021-11-22T07:32:59.028Z</time>
      </trkpt>
      <trkpt lat="47.570185" lon="7.808855">
        <ele>272.850382</ele>
        <time>2021-11-22T07:33:00.394Z</time>
      </trkpt>
      <trkpt lat="47.568962" lon="7.807589">
        <ele>270.147357</ele>
        <time>2021-11-22T07:33:16.800Z</time>
      </trkpt>
      <trkpt lat="47.568803" lon="7.807323">
        <ele>269.744387</ele>
        <time>2021-11-22T07:33:19.999Z</time>
      </trkpt>
      <trkpt lat="47.567792" lon="7.804628">
        <ele>268.908418</ele>
        <time>2021-11-22T07:33:48.959Z</time>
      </trkpt>
      <trkpt lat="47.567677" lon="7.804308">
        <ele>268.955260</ele>
        <time>2021-11-22T07:33:52.565Z</time>
      </trkpt>
      <trkpt lat="47.567503" lon="7.803912">
        <ele>269.016315</ele>
        <time>2021-11-22T07:33:57.285Z</time>
      </trkpt>
      <trkpt lat="47.567287" lon="7.803523">
        <ele>269.081404</ele>
        <time>2021-11-22T07:34:02.404Z</time>
      </trkpt>
      <trkpt lat="47.566532" lon="7.802465">
        <ele>270.004818</ele>
        <time>2021-11-22T07:34:18.695Z</time>
      </trkpt>
      <trkpt lat="47.566334" lon="7.802192">
        <ele>270.782573</ele>
        <time>2021-11-22T07:34:24.483Z</time>
      </trkpt>
      <trkpt lat="47.565517" lon="7.801041">
        <ele>274.024420</ele>
        <time>2021-11-22T07:34:57.299Z</time>
      </trkpt>
      <trkpt lat="47.565485" lon="7.800897">
        <ele>274.318622</ele>
        <time>2021-11-22T07:35:00.546Z</time>
      </trkpt>
      <trkpt lat="47.565490" lon="7.800752">
        <ele>274.718652</ele>
        <time>2021-11-22T07:35:05.077Z</time>
      </trkpt>
      <trkpt lat="47.565627" lon="7.800333">
        <ele>276.159566</ele>
        <time>2021-11-22T07:35:17.213Z</time>
      </trkpt>
      <trkpt lat="47.565704" lon="7.800090">
        <ele>276.990381</ele>
        <time>2021-11-22T07:35:24.599Z</time>
      </trkpt>
      <trkpt lat="47.566114" lon="7.798822">
        <ele>281.341778</ele>
        <time>2021-11-22T07:35:58.027Z</time>
      </trkpt>
      <trkpt lat="47.566454" lon="7.797771">
        <ele>283.578410</ele>
        <time>2021-11-22T07:36:21.594Z</time>
      </trkpt>
      <trkpt lat="47.566478" lon="7.797694">
        <ele>283.684352</ele>
        <time>2021-11-22T07:36:22.909Z</time>
      </trkpt>
      <trkpt lat="47.567008" lon="7.798425">
        <ele>285.024589</ele>
        <time>2021-11-22T07:36:37.193Z</time>
      </trkpt>
      <trkpt lat="47.567200" lon="7.798690">
        <ele>285.510265</ele>
        <time>2021-11-22T07:36:41.237Z</time>
      </trkpt>
      <trkpt lat="47.567213" lon="7.798707">
        <ele>285.542358</ele>
        <time>2021-11-22T07:36:41.546Z</time>
      </trkpt>
      <trkpt lat="47.567386" lon="7.798946">
        <ele>285.980162</ele>
        <time>2021-11-22T07:36:45.608Z</time>
      </trkpt>
      <trkpt lat="47.567788" lon="7.799488">
        <ele>286.178059</ele>
        <time>2021-11-22T07:36:55.019Z</time>
      </trkpt>
      <trkpt lat="47.567987" lon="7.799745">
        <ele>286.274018</ele>
        <time>2021-11-22T07:36:59.413Z</time>
      </trkpt>
      <trkpt lat="47.568185" lon="7.800003">
        <ele>286.369864</ele>
        <time>2021-11-22T07:37:03.609Z</time>
      </trkpt>
      <trkpt lat="47.568315" lon="7.800179">
        <ele>286.433875</ele>
        <time>2021-11-22T07:37:06.035Z</time>
      </trkpt>
      <trkpt lat="47.568384" lon="7.800059">
        <ele>286.472549</ele>
        <time>2021-11-22T07:37:07.791Z</time>
      </trkpt>
      <trkpt lat="47.569185" lon="7.799810">
        <ele>286.869842</ele>
        <time>2021-11-22T07:37:20.570Z</time>
      </trkpt>
      <trkpt lat="47.569327" lon="7.799762">
        <ele>286.961737</ele>
        <time>2021-11-22T07:37:22.875Z</time>
      </trkpt>
      <trkpt lat="47.569912" lon="7.799564">
        <ele>287.340340</ele>
        <time>2021-11-22T07:37:33.953Z</time>
      </trkpt>
      <trkpt lat="47.571202" lon="7.799089">
        <ele>288.366725</ele>
        <time>2021-11-22T07:37:57.841Z</time>
      </trkpt>
      <trkpt lat="47.571921" lon="7.798830">
        <ele>289.047498</ele>
        <time>2021-11-22T07:38:12.283Z</time>
      </trkpt>
      <trkpt lat="47.571985" lon="7.798809">
        <ele>289.107807</ele>
        <time>2021-11-22T07:38:13.579Z</time>
      </trkpt>
      <trkpt lat="47.572308" lon="7.798703">
        <ele>289.412181</ele>
        <time>2021-11-22T07:38:19.406Z</time>
      </trkpt>
      <trkpt lat="47.572527" lon="7.798632">
        <ele>289.554670</ele>
        <time>2021-11-22T07:38:23.205Z</time>
      </trkpt>
      <trkpt lat="47.572628" lon="7.798599">
        <ele>289.618595</ele>
        <time>2021-11-22T07:38:25.037Z</time>
      </trkpt>
      <trkpt lat="47.573055" lon="7.798459">
        <ele>289.888895</ele>
        <time>2021-11-22T07:38:32.657Z</time>
      </trkpt>
      <trkpt lat="47.573410" lon="7.798344">
        <ele>290.113493</ele>
        <time>2021-11-22T07:38:39.025Z</time>
      </trkpt>
      <trkpt lat="47.573813" lon="7.798212">
        <ele>290.368588</ele>
        <time>2021-11-22T07:38:46.105Z</time>
      </trkpt>
      <trkpt lat="47.574296" lon="7.798050">
        <ele>290.676960</ele>
        <time>2021-11-22T07:38:54.564Z</time>
      </trkpt>
      <trkpt lat="47.574910" lon="7.797787">
        <ele>291.078510</ele>
        <time>2021-11-22T07:39:04.768Z</time>
      </trkpt>
      <trkpt lat="47.575240" lon="7.797626">
        <ele>291.296785</ele>
        <time>2021-11-22T07:39:10.544Z</time>
      </trkpt>
      <trkpt lat="47.575391" lon="7.797551">
        <ele>291.396840</ele>
        <time>2021-11-22T07:39:13.383Z</time>
      </trkpt>
      <trkpt lat="47.575499" lon="7.797497">
        <ele>291.468451</ele>
        <time>2021-11-22T07:39:15.472Z</time>
      </trkpt>
      <trkpt lat="47.575580" lon="7.797470">
        <ele>291.520613</ele>
        <time>2021-11-22T07:39:17.015Z</time>
      </trkpt>
      <trkpt lat="47.575720" lon="7.797458">
        <ele>291.608719</ele>
        <time>2021-11-22T07:39:19.553Z</time>
      </trkpt>
      <trkpt lat="47.575780" lon="7.797475">
        <ele>291.647099</ele>
        <time>2021-11-22T07:39:20.731Z</time>
      </trkpt>
      <trkpt lat="47.575796" lon="7.797494">
        <ele>291.659979</ele>
        <time>2021-11-22T07:39:21.137Z</time>
      </trkpt>
      <trkpt lat="47.575820" lon="7.797521">
        <ele>291.717128</ele>
        <time>2021-11-22T07:39:21.671Z</time>
      </trkpt>
      <trkpt lat="47.575847" lon="7.797547">
        <ele>291.796865</ele>
        <time>2021-11-22T07:39:22.244Z</time>
      </trkpt>
      <trkpt lat="47.575879" lon="7.797550">
        <ele>291.876273</ele>
        <time>2021-11-22T07:39:22.821Z</time>
      </trkpt>
      <trkpt lat="47.575981" lon="7.797492">
        <ele>292.146828</ele>
        <time>2021-11-22T07:39:24.935Z</time>
      </trkpt>
      <trkpt lat="47.576004" lon="7.797461">
        <ele>292.223814</ele>
        <time>2021-11-22T07:39:25.552Z</time>
      </trkpt>
      <trkpt lat="47.576024" lon="7.797407">
        <ele>292.326734</ele>
        <time>2021-11-22T07:39:26.344Z</time>
      </trkpt>
      <trkpt lat="47.576036" lon="7.797357">
        <ele>292.415398</ele>
        <time>2021-11-22T07:39:27.072Z</time>
      </trkpt>
      <trkpt lat="47.576158" lon="7.797249">
        <ele>292.767313</ele>
        <time>2021-11-22T07:39:29.853Z</time>
      </trkpt>
      <trkpt lat="47.576257" lon="7.797179">
        <ele>293.038955</ele>
        <time>2021-11-22T07:39:32.153Z</time>
      </trkpt>
      <trkpt lat="47.576588" lon="7.797053">
        <ele>293.885287</ele>
        <time>2021-11-22T07:39:39.356Z</time>
      </trkpt>
      <trkpt lat="47.576849" lon="7.796996">
        <ele>294.538641</ele>
        <time>2021-11-22T07:39:45.847Z</time>
      </trkpt>
      <trkpt lat="47.576931" lon="7.797009">
        <ele>294.742875</ele>
        <time>2021-11-22T07:39:48.018Z</time>
      </trkpt>
      <trkpt lat="47.576994" lon="7.797117">
        <ele>294.981410</ele>
        <time>2021-11-22T07:39:50.723Z</time>
      </trkpt>
      <trkpt lat="47.577074" lon="7.797194">
        <ele>295.217633</ele>
        <time>2021-11-22T07:39:53.583Z</time>
      </trkpt>
      <trkpt lat="47.577166" lon="7.797236">
        <ele>295.456035</ele>
        <time>2021-11-22T07:39:56.300Z</time>
      </trkpt>
      <trkpt lat="47.577262" lon="7.797239">
        <ele>295.693835</ele>
        <time>2021-11-22T07:39:59.193Z</time>
      </trkpt>
      <trkpt lat="47.577343" lon="7.797210">
        <ele>295.900203</ele>
        <time>2021-11-22T07:40:01.869Z</time>
      </trkpt>
      <trkpt lat="47.577418" lon="7.797151">
        <ele>296.110477</ele>
        <time>2021-11-22T07:40:04.648Z</time>
      </trkpt>
      <trkpt lat="47.577539" lon="7.797107">
        <ele>296.967287</ele>
        <time>2021-11-22T07:40:08.686Z</time>
      </trkpt>
      <trkpt lat="47.577612" lon="7.797087">
        <ele>297.488597</ele>
        <time>2021-11-22T07:40:11.211Z</time>
      </trkpt>
      <trkpt lat="47.577787" lon="7.797122">
        <ele>298.728636</ele>
        <time>2021-11-22T07:40:17.693Z</time>
      </trkpt>
      <trkpt lat="47.577944" lon="7.797172">
        <ele>299.856295</ele>
        <time>2021-11-22T07:40:23.762Z</time>
      </trkpt>
      <trkpt lat="47.578266" lon="7.797363">
        <ele>302.291784</ele>
        <time>2021-11-22T07:40:38.073Z</time>
      </trkpt>
      <trkpt lat="47.578554" lon="7.797534">
        <ele>304.470404</ele>
        <time>2021-11-22T07:40:52.012Z</time>
      </trkpt>
      <trkpt lat="47.578679" lon="7.797723">
        <ele>305.724236</ele>
        <time>2021-11-22T07:41:00.548Z</time>
      </trkpt>
      <trkpt lat="47.578882" lon="7.798252">
        <ele>308.607247</ele>
        <time>2021-11-22T07:41:21.404Z</time>
      </trkpt>
      <trkpt lat="47.579085" lon="7.798411">
        <ele>310.748349</ele>
        <time>2021-11-22T07:41:33.635Z</time>
      </trkpt>
      <trkpt lat="47.579284" lon="7.798330">
        <ele>312.719350</ele>
        <time>2021-11-22T07:41:45.100Z</time>
      </trkpt>
      <trkpt lat="47.579900" lon="7.797779">
        <ele>319.590830</ele>
        <time>2021-11-22T07:42:24.243Z</time>
      </trkpt>
      <trkpt lat="47.580222" lon="7.797578">
        <ele>322.927790</ele>
        <time>2021-11-22T07:42:43.294Z</time>
      </trkpt>
      <trkpt lat="47.580444" lon="7.797575">
        <ele>325.048208</ele>
        <time>2021-11-22T07:42:55.574Z</time>
      </trkpt>
      <trkpt lat="47.580966" lon="7.797737">
        <ele>328.986605</ele>
        <time>2021-11-22T07:43:22.197Z</time>
      </trkpt>
      <trkpt lat="47.581379" lon="7.797757">
        <ele>331.850755</ele>
        <time>2021-11-22T07:43:40.663Z</time>
      </trkpt>
      <trkpt lat="47.581869" lon="7.797750">
        <ele>335.247245</ele>
        <time>2021-11-22T07:44:00.601Z</time>
      </trkpt>
      <trkpt lat="47.582160" lon="7.797772">
        <ele>337.266871</ele>
        <time>2021-11-22T07:44:10.969Z</time>
      </trkpt>
      <trkpt lat="47.582752" lon="7.797833">
        <ele>340.104344</ele>
        <time>2021-11-22T07:44:30.433Z</time>
      </trkpt>
      <trkpt lat="47.583508" lon="7.797910">
        <ele>343.110663</ele>
        <time>2021-11-22T07:44:53.537Z</time>
      </trkpt>
      <trkpt lat="47.584517" lon="7.797802">
        <ele>347.047079</ele>
        <time>2021-11-22T07:45:21.657Z</time>
      </trkpt>
      <trkpt lat="47.584729" lon="7.797820">
        <ele>347.848776</ele>
        <time>2021-11-22T07:45:28.591Z</time>
      </trkpt>
      <trkpt lat="47.585233" lon="7.798047">
        <ele>349.837445</ele>
        <time>2021-11-22T07:45:44.406Z</time>
      </trkpt>
      <trkpt lat="47.585534" lon="7.798199">
        <ele>351.037950</ele>
        <time>2021-11-22T07:45:54.189Z</time>
      </trkpt>
      <trkpt lat="47.585911" lon="7.798303">
        <ele>352.477228</ele>
        <time>2021-11-22T07:46:05.900Z</time>
      </trkpt>
      <trkpt lat="47.586281" lon="7.798381">
        <ele>353.814629</ele>
        <time>2021-11-22T07:46:17.706Z</time>
      </trkpt>
      <trkpt lat="47.586543" lon="7.798436">
        <ele>354.761574</ele>
        <time>2021-11-22T07:46:24.908Z</time>
      </trkpt>
      <trkpt lat="47.587282" lon="7.798453">
        <ele>357.406480</ele>
        <time>2021-11-22T07:46:46.620Z</time>
      </trkpt>
      <trkpt lat="47.587388" lon="7.798430">
        <ele>357.789853</ele>
        <time>2021-11-22T07:46:50.006Z</time>
      </trkpt>
      <trkpt lat="47.587698" lon="7.798426">
        <ele>358.858901</ele>
        <time>2021-11-22T07:46:58.809Z</time>
      </trkpt>
      <trkpt lat="47.588177" lon="7.798477">
        <ele>360.080432</ele>
        <time>2021-11-22T07:47:11.118Z</time>
      </trkpt>
      <trkpt lat="47.588390" lon="7.798556">
        <ele>360.638916</ele>
        <time>2021-11-22T07:47:16.542Z</time>
      </trkpt>
      <trkpt lat="47.588797" lon="7.798670">
        <ele>361.692480</ele>
        <time>2021-11-22T07:47:27.229Z</time>
      </trkpt>
      <trkpt lat="47.589010" lon="7.798691">
        <ele>362.235467</ele>
        <time>2021-11-22T07:47:32.095Z</time>
      </trkpt>
      <trkpt lat="47.589153" lon="7.798651">
        <ele>362.605621</ele>
        <time>2021-11-22T07:47:35.745Z</time>
      </trkpt>
      <trkpt lat="47.589272" lon="7.798569">
        <ele>362.939403</ele>
        <time>2021-11-22T07:47:38.530Z</time>
      </trkpt>
      <trkpt lat="47.589486" lon="7.798387">
        <ele>363.443973</ele>
        <time>2021-11-22T07:47:44.220Z</time>
      </trkpt>
      <trkpt lat="47.589692" lon="7.798248">
        <ele>363.714770</ele>
        <time>2021-11-22T07:47:49.291Z</time>
      </trkpt>
      <trkpt lat="47.589924" lon="7.798072">
        <ele>364.026577</ele>
        <time>2021-11-22T07:47:55.471Z</time>
      </trkpt>
      <trkpt lat="47.590924" lon="7.797504">
        <ele>365.307844</ele>
        <time>2021-11-22T07:48:16.481Z</time>
      </trkpt>
      <trkpt lat="47.591349" lon="7.797193">
        <ele>364.749539</ele>
        <time>2021-11-22T07:48:23.192Z</time>
      </trkpt>
      <trkpt lat="47.591728" lon="7.796915">
        <ele>363.788411</ele>
        <time>2021-11-22T07:48:28.117Z</time>
      </trkpt>
      <trkpt lat="47.592114" lon="7.796545">
        <ele>362.743650</ele>
        <time>2021-11-22T07:48:32.969Z</time>
      </trkpt>
      <trkpt lat="47.592429" lon="7.796406">
        <ele>361.996610</ele>
        <time>2021-11-22T07:48:36.296Z</time>
      </trkpt>
      <trkpt lat="47.592802" lon="7.796368">
        <ele>360.861996</ele>
        <time>2021-11-22T07:48:39.886Z</time>
      </trkpt>
      <trkpt lat="47.593608" lon="7.796793">
        <ele>356.717252</ele>
        <time>2021-11-22T07:48:47.771Z</time>
      </trkpt>
      <trkpt lat="47.594060" lon="7.796856">
        <ele>354.517597</ele>
        <time>2021-11-22T07:48:52.084Z</time>
      </trkpt>
      <trkpt lat="47.594601" lon="7.796746">
        <ele>352.350086</ele>
        <time>2021-11-22T07:48:57.337Z</time>
      </trkpt>
      <trkpt lat="47.594663" lon="7.797229">
        <ele>351.689859</ele>
        <time>2021-11-22T07:49:00.654Z</time>
      </trkpt>
      <trkpt lat="47.594957" lon="7.798605">
        <ele>349.751623</ele>
        <time>2021-11-22T07:49:11.238Z</time>
      </trkpt>
      <trkpt lat="47.595383" lon="7.799322">
        <ele>349.433216</ele>
        <time>2021-11-22T07:49:22.921Z</time>
      </trkpt>
      <trkpt lat="47.595466" lon="7.799497">
        <ele>349.583226</ele>
        <time>2021-11-22T07:49:25.687Z</time>
      </trkpt>
      <trkpt lat="47.595757" lon="7.800208">
        <ele>350.166374</ele>
        <time>2021-11-22T07:49:37.295Z</time>
      </trkpt>
      <trkpt lat="47.595950" lon="7.800596">
        <ele>350.504421</ele>
        <time>2021-11-22T07:49:43.676Z</time>
      </trkpt>
      <trkpt lat="47.596083" lon="7.800764">
        <ele>350.686072</ele>
        <time>2021-11-22T07:49:47.141Z</time>
      </trkpt>
      <trkpt lat="47.596154" lon="7.800842">
        <ele>350.777944</ele>
        <time>2021-11-22T07:49:48.974Z</time>
      </trkpt>
      <trkpt lat="47.596631" lon="7.801307">
        <ele>351.723965</ele>
        <time>2021-11-22T07:49:59.795Z</time>
      </trkpt>
      <trkpt lat="47.596866" lon="7.801508">
        <ele>352.255167</ele>
        <time>2021-11-22T07:50:05.039Z</time>
      </trkpt>
      <trkpt lat="47.597625" lon="7.801971">
        <ele>353.862178</ele>
        <time>2021-11-22T07:50:25.066Z</time>
      </trkpt>
      <trkpt lat="47.597927" lon="7.802250">
        <ele>354.606016</ele>
        <time>2021-11-22T07:50:33.682Z</time>
      </trkpt>
      <trkpt lat="47.598146" lon="7.802509">
        <ele>355.554528</ele>
        <time>2021-11-22T07:50:40.752Z</time>
      </trkpt>
      <trkpt lat="47.598398" lon="7.802889">
        <ele>356.771498</ele>
        <time>2021-11-22T07:50:50.632Z</time>
      </trkpt>
      <trkpt lat="47.599983" lon="7.804755">
        <ele>363.189097</ele>
        <time>2021-11-22T07:51:51.177Z</time>
      </trkpt>
      <trkpt lat="47.600367" lon="7.805144">
        <ele>364.538384</ele>
        <time>2021-11-22T07:52:02.837Z</time>
      </trkpt>
      <trkpt lat="47.600707" lon="7.805537">
        <ele>365.789127</ele>
        <time>2021-11-22T07:52:12.640Z</time>
      </trkpt>
      <trkpt lat="47.600919" lon="7.805847">
        <ele>366.269308</ele>
        <time>2021-11-22T07:52:18.842Z</time>
      </trkpt>
      <trkpt lat="47.601434" lon="7.806809">
        <ele>367.587152</ele>
        <time>2021-11-22T07:52:33.061Z</time>
      </trkpt>
      <trkpt lat="47.601856" lon="7.807444">
        <ele>368.543699</ele>
        <time>2021-11-22T07:52:47.212Z</time>
      </trkpt>
      <trkpt lat="47.602242" lon="7.807771">
        <ele>370.258723</ele>
        <time>2021-11-22T07:52:58.729Z</time>
      </trkpt>
      <trkpt lat="47.602352" lon="7.807799">
        <ele>370.741848</ele>
        <time>2021-11-22T07:53:02.054Z</time>
      </trkpt>
      <trkpt lat="47.602603" lon="7.807841">
        <ele>371.835259</ele>
        <time>2021-11-22T07:53:09.034Z</time>
      </trkpt>
      <trkpt lat="47.603050" lon="7.808058">
        <ele>373.871234</ele>
        <time>2021-11-22T07:53:25.480Z</time>
      </trkpt>
      <trkpt lat="47.603664" lon="7.808428">
        <ele>376.846812</ele>
        <time>2021-11-22T07:53:49.345Z</time>
      </trkpt>
      <trkpt lat="47.603933" lon="7.808453">
        <ele>378.444471</ele>
        <time>2021-11-22T07:53:59.483Z</time>
      </trkpt>
      <trkpt lat="47.604147" lon="7.808404">
        <ele>379.728011</ele>
        <time>2021-11-22T07:54:09.503Z</time>
      </trkpt>
      <trkpt lat="47.604338" lon="7.808356">
        <ele>380.876326</ele>
        <time>2021-11-22T07:54:16.948Z</time>
      </trkpt>
      <trkpt lat="47.605468" lon="7.808045">
        <ele>387.718905</ele>
        <time>2021-11-22T07:55:01.194Z</time>
      </trkpt>
      <trkpt lat="47.605899" lon="7.808010">
        <ele>390.410861</ele>
        <time>2021-11-22T07:55:16.604Z</time>
      </trkpt>
      <trkpt lat="47.606698" lon="7.808066">
        <ele>395.399384</ele>
        <time>2021-11-22T07:55:47.615Z</time>
      </trkpt>
      <trkpt lat="47.607385" lon="7.807967">
        <ele>399.937972</ele>
        <time>2021-11-22T07:56:18.043Z</time>
      </trkpt>
      <trkpt lat="47.607595" lon="7.808039">
        <ele>401.511052</ele>
        <time>2021-11-22T07:56:27.509Z</time>
      </trkpt>
      <trkpt lat="47.607803" lon="7.808223">
        <ele>403.278611</ele>
        <time>2021-11-22T07:56:38.979Z</time>
      </trkpt>
      <trkpt lat="47.608602" lon="7.809088">
        <ele>410.498131</ele>
        <time>2021-11-22T07:57:23.337Z</time>
      </trkpt>
      <trkpt lat="47.609427" lon="7.809753">
        <ele>415.434916</ele>
        <time>2021-11-22T07:58:01.150Z</time>
      </trkpt>
      <trkpt lat="47.609797" lon="7.810201">
        <ele>417.787515</ele>
        <time>2021-11-22T07:58:17.445Z</time>
      </trkpt>
      <trkpt lat="47.610233" lon="7.810909">
        <ele>420.513987</ele>
        <time>2021-11-22T07:58:34.963Z</time>
      </trkpt>
      <trkpt lat="47.610772" lon="7.811907">
        <ele>421.792223</ele>
        <time>2021-11-22T07:58:53.277Z</time>
      </trkpt>
      <trkpt lat="47.611013" lon="7.812221">
        <ele>422.267829</ele>
        <time>2021-11-22T07:58:58.705Z</time>
      </trkpt>
      <trkpt lat="47.612313" lon="7.813004">
        <ele>424.424279</ele>
        <time>2021-11-22T07:59:23.892Z</time>
      </trkpt>
      <trkpt lat="47.612555" lon="7.813076">
        <ele>424.810648</ele>
        <time>2021-11-22T07:59:29.149Z</time>
      </trkpt>
      <trkpt lat="47.612810" lon="7.813060">
        <ele>425.210179</ele>
        <time>2021-11-22T07:59:35.034Z</time>
      </trkpt>
      <trkpt lat="47.613501" lon="7.812899">
        <ele>426.999115</ele>
        <time>2021-11-22T07:59:53.194Z</time>
      </trkpt>
      <trkpt lat="47.613621" lon="7.812859">
        <ele>427.455782</ele>
        <time>2021-11-22T07:59:56.632Z</time>
      </trkpt>
      <trkpt lat="47.613868" lon="7.812544">
        <ele>428.665214</ele>
        <time>2021-11-22T08:00:06.227Z</time>
      </trkpt>
      <trkpt lat="47.614051" lon="7.812407">
        <ele>429.426313</ele>
        <time>2021-11-22T08:00:12.599Z</time>
      </trkpt>
      <trkpt lat="47.614764" lon="7.812475">
        <ele>432.079127</ele>
        <time>2021-11-22T08:00:35.280Z</time>
      </trkpt>
      <trkpt lat="47.614932" lon="7.812637">
        <ele>432.930433</ele>
        <time>2021-11-22T08:00:41.422Z</time>
      </trkpt>
      <trkpt lat="47.615387" lon="7.813324">
        <ele>436.089707</ele>
        <time>2021-11-22T08:01:02.560Z</time>
      </trkpt>
      <trkpt lat="47.615645" lon="7.813447">
        <ele>437.408428</ele>
        <time>2021-11-22T08:01:11.640Z</time>
      </trkpt>
      <trkpt lat="47.615803" lon="7.813616">
        <ele>438.356306</ele>
        <time>2021-11-22T08:01:19.224Z</time>
      </trkpt>
      <trkpt lat="47.616224" lon="7.814793">
        <ele>442.875272</ele>
        <time>2021-11-22T08:01:50.960Z</time>
      </trkpt>
      <trkpt lat="47.616291" lon="7.814920">
        <ele>443.456655</ele>
        <time>2021-11-22T08:01:56.278Z</time>
      </trkpt>
      <trkpt lat="47.616368" lon="7.815112">
        <ele>444.262053</ele>
        <time>2021-11-22T08:02:01.133Z</time>
      </trkpt>
      <trkpt lat="47.616439" lon="7.815458">
        <ele>445.565904</ele>
        <time>2021-11-22T08:02:11.348Z</time>
      </trkpt>
      <trkpt lat="47.616582" lon="7.816196">
        <ele>448.334139</ele>
        <time>2021-11-22T08:02:28.971Z</time>
      </trkpt>
      <trkpt lat="47.616632" lon="7.816335">
        <ele>448.902117</ele>
        <time>2021-11-22T08:02:33.384Z</time>
      </trkpt>
      <trkpt lat="47.616707" lon="7.816445">
        <ele>449.466149</ele>
        <time>2021-11-22T08:02:37.822Z</time>
      </trkpt>
      <trkpt lat="47.617000" lon="7.816677">
        <ele>451.185820</ele>
        <time>2021-11-22T08:02:49.431Z</time>
      </trkpt>
      <trkpt lat="47.617243" lon="7.816840">
        <ele>452.406999</ele>
        <time>2021-11-22T08:02:57.413Z</time>
      </trkpt>
      <trkpt lat="47.617373" lon="7.816786">
        <ele>453.025175</ele>
        <time>2021-11-22T08:03:02.286Z</time>
      </trkpt>
      <trkpt lat="47.617466" lon="7.816748">
        <ele>453.466887</ele>
        <time>2021-11-22T08:03:04.922Z</time>
      </trkpt>
      <trkpt lat="47.617591" lon="7.816685">
        <ele>454.071403</ele>
        <time>2021-11-22T08:03:09.057Z</time>
      </trkpt>
      <trkpt lat="47.617645" lon="7.816658">
        <ele>454.332340</ele>
        <time>2021-11-22T08:03:11.045Z</time>
      </trkpt>
      <trkpt lat="47.617819" lon="7.816612">
        <ele>455.141653</ele>
        <time>2021-11-22T08:03:16.616Z</time>
      </trkpt>
      <trkpt lat="47.618026" lon="7.816656">
        <ele>456.099204</ele>
        <time>2021-11-22T08:03:23.907Z</time>
      </trkpt>
      <trkpt lat="47.618674" lon="7.816980">
        <ele>459.242197</ele>
        <time>2021-11-22T08:03:45.737Z</time>
      </trkpt>
      <trkpt lat="47.618799" lon="7.817081">
        <ele>459.946772</ele>
        <time>2021-11-22T08:03:50.959Z</time>
      </trkpt>
      <trkpt lat="47.619023" lon="7.817353">
        <ele>461.379644</ele>
        <time>2021-11-22T08:04:00.423Z</time>
      </trkpt>
      <trkpt lat="47.619222" lon="7.817606">
        <ele>462.676929</ele>
        <time>2021-11-22T08:04:09.524Z</time>
      </trkpt>
      <trkpt lat="47.619286" lon="7.817698">
        <ele>463.118055</ele>
        <time>2021-11-22T08:04:13.069Z</time>
      </trkpt>
      <trkpt lat="47.619369" lon="7.817884">
        <ele>463.862335</ele>
        <time>2021-11-22T08:04:18.249Z</time>
      </trkpt>
      <trkpt lat="47.619414" lon="7.817980">
        <ele>464.252486</ele>
        <time>2021-11-22T08:04:21.275Z</time>
      </trkpt>
      <trkpt lat="47.619455" lon="7.818047">
        <ele>464.554421</ele>
        <time>2021-11-22T08:04:22.960Z</time>
      </trkpt>
      <trkpt lat="47.619481" lon="7.818077">
        <ele>464.717465</ele>
        <time>2021-11-22T08:04:24.820Z</time>
      </trkpt>
      <trkpt lat="47.619880" lon="7.818346">
        <ele>466.886902</ele>
        <time>2021-11-22T08:04:39.592Z</time>
      </trkpt>
      <trkpt lat="47.619948" lon="7.818387">
        <ele>467.250241</ele>
        <time>2021-11-22T08:04:42.334Z</time>
      </trkpt>
      <trkpt lat="47.619983" lon="7.818525">
        <ele>467.742201</ele>
        <time>2021-11-22T08:04:46.000Z</time>
      </trkpt>
      <trkpt lat="47.620052" lon="7.818861">
        <ele>469.030098</ele>
        <time>2021-11-22T08:04:53.595Z</time>
      </trkpt>
      <trkpt lat="47.620091" lon="7.818898">
        <ele>469.287956</ele>
        <time>2021-11-22T08:04:55.022Z</time>
      </trkpt>
      <trkpt lat="47.620135" lon="7.818917">
        <ele>469.543215</ele>
        <time>2021-11-22T08:04:57.244Z</time>
      </trkpt>
      <trkpt lat="47.620588" lon="7.818608">
        <ele>472.320445</ele>
        <time>2021-11-22T08:05:15.086Z</time>
      </trkpt>
      <trkpt lat="47.621041" lon="7.817725">
        <ele>476.486713</ele>
        <time>2021-11-22T08:05:42.175Z</time>
      </trkpt>
      <trkpt lat="47.621099" lon="7.817634">
        <ele>476.956932</ele>
        <time>2021-11-22T08:05:46.534Z</time>
      </trkpt>
      <trkpt lat="47.621173" lon="7.817554">
        <ele>477.466952</ele>
        <time>2021-11-22T08:05:50.599Z</time>
      </trkpt>
      <trkpt lat="47.621261" lon="7.817493">
        <ele>478.008111</ele>
        <time>2021-11-22T08:05:54.087Z</time>
      </trkpt>
      <trkpt lat="47.621327" lon="7.817470">
        <ele>478.481990</ele>
        <time>2021-11-22T08:05:56.194Z</time>
      </trkpt>
      <trkpt lat="47.621408" lon="7.817443">
        <ele>479.062274</ele>
        <time>2021-11-22T08:06:00.690Z</time>
      </trkpt>
      <trkpt lat="47.622034" lon="7.817274">
        <ele>483.509711</ele>
        <time>2021-11-22T08:06:26.205Z</time>
      </trkpt>
      <trkpt lat="47.622464" lon="7.817228">
        <ele>486.523109</ele>
        <time>2021-11-22T08:06:46.697Z</time>
      </trkpt>
      <trkpt lat="47.622635" lon="7.817204">
        <ele>487.723693</ele>
        <time>2021-11-22T08:06:55.120Z</time>
      </trkpt>
      <trkpt lat="47.623176" lon="7.817016">
        <ele>491.345871</ele>
        <time>2021-11-22T08:07:17.699Z</time>
      </trkpt>
      <trkpt lat="47.623368" lon="7.816962">
        <ele>492.364142</ele>
        <time>2021-11-22T08:07:26.734Z</time>
      </trkpt>
      <trkpt lat="47.623648" lon="7.816926">
        <ele>493.828607</ele>
        <time>2021-11-22T08:07:37.795Z</time>
      </trkpt>
      <trkpt lat="47.624281" lon="7.816985">
        <ele>497.133483</ele>
        <time>2021-11-22T08:07:59.993Z</time>
      </trkpt>
      <trkpt lat="47.625987" lon="7.818025">
        <ele>504.646144</ele>
        <time>2021-11-22T08:08:53.472Z</time>
      </trkpt>
      <trkpt lat="47.626443" lon="7.818467">
        <ele>506.531117</ele>
        <time>2021-11-22T08:09:09.920Z</time>
      </trkpt>
      <trkpt lat="47.626482" lon="7.818488">
        <ele>506.616403</ele>
        <time>2021-11-22T08:09:11.334Z</time>
      </trkpt>
      <trkpt lat="47.626700" lon="7.818602">
        <ele>507.091556</ele>
        <time>2021-11-22T08:09:17.761Z</time>
      </trkpt>
      <trkpt lat="47.626983" lon="7.818622">
        <ele>507.673968</ele>
        <time>2021-11-22T08:09:25.801Z</time>
      </trkpt>
      <trkpt lat="47.627555" lon="7.818559">
        <ele>508.853043</ele>
        <time>2021-11-22T08:09:41.378Z</time>
      </trkpt>
      <trkpt lat="47.628903" lon="7.818442">
        <ele>507.971579</ele>
        <time>2021-11-22T08:10:00.223Z</time>
      </trkpt>
      <trkpt lat="47.629046" lon="7.818276">
        <ele>507.436119</ele>
        <time>2021-11-22T08:10:02.173Z</time>
      </trkpt>
      <trkpt lat="47.629163" lon="7.818076">
        <ele>506.909736</ele>
        <time>2021-11-22T08:10:03.936Z</time>
      </trkpt>
      <trkpt lat="47.629850" lon="7.816905">
        <ele>502.254078</ele>
        <time>2021-11-22T08:10:13.673Z</time>
      </trkpt>
      <trkpt lat="47.630743" lon="7.815987">
        <ele>494.010912</ele>
        <time>2021-11-22T08:10:23.229Z</time>
      </trkpt>
      <trkpt lat="47.631021" lon="7.815514">
        <ele>490.782477</ele>
        <time>2021-11-22T08:10:26.959Z</time>
      </trkpt>
      <trkpt lat="47.631083" lon="7.815420">
        <ele>490.075396</ele>
        <time>2021-11-22T08:10:27.742Z</time>
      </trkpt>
      <trkpt lat="47.631227" lon="7.815205">
        <ele>488.445861</ele>
        <time>2021-11-22T08:10:29.527Z</time>
      </trkpt>
      <trkpt lat="47.631677" lon="7.814692">
        <ele>483.919138</ele>
        <time>2021-11-22T08:10:34.511Z</time>
      </trkpt>
      <trkpt lat="47.631707" lon="7.814641">
        <ele>483.555220</ele>
        <time>2021-11-22T08:10:34.897Z</time>
      </trkpt>
      <trkpt lat="47.632099" lon="7.813963">
        <ele>478.752890</ele>
        <time>2021-11-22T08:10:40.258Z</time>
      </trkpt>
      <trkpt lat="47.632179" lon="7.813790">
        <ele>477.624994</ele>
        <time>2021-11-22T08:10:41.479Z</time>
      </trkpt>
      <trkpt lat="47.632515" lon="7.813155">
        <ele>473.702340</ele>
        <time>2021-11-22T08:10:46.481Z</time>
      </trkpt>
      <trkpt lat="47.632573" lon="7.813067">
        <ele>473.118637</ele>
        <time>2021-11-22T08:10:47.196Z</time>
      </trkpt>
      <trkpt lat="47.632601" lon="7.813004">
        <ele>472.760768</ele>
        <time>2021-11-22T08:10:47.634Z</time>
      </trkpt>
      <trkpt lat="47.632790" lon="7.812277">
        <ele>469.065710</ele>
        <time>2021-11-22T08:10:52.450Z</time>
      </trkpt>
      <trkpt lat="47.632845" lon="7.812246">
        <ele>468.651708</ele>
        <time>2021-11-22T08:10:52.985Z</time>
      </trkpt>
      <trkpt lat="47.632938" lon="7.812283">
        <ele>467.974173</ele>
        <time>2021-11-22T08:10:53.804Z</time>
      </trkpt>
      <trkpt lat="47.633151" lon="7.812590">
        <ele>465.884721</ele>
        <time>2021-11-22T08:10:56.529Z</time>
      </trkpt>
      <trkpt lat="47.633391" lon="7.813533">
        <ele>460.703906</ele>
        <time>2021-11-22T08:11:02.602Z</time>
      </trkpt>
      <trkpt lat="47.633759" lon="7.814194">
        <ele>456.106339</ele>
        <time>2021-11-22T08:11:07.610Z</time>
      </trkpt>
      <trkpt lat="47.633899" lon="7.814255">
        <ele>454.945291</ele>
        <time>2021-11-22T08:11:08.948Z</time>
      </trkpt>
      <trkpt lat="47.634025" lon="7.814248">
        <ele>453.941969</ele>
        <time>2021-11-22T08:11:10.040Z</time>
      </trkpt>
      <trkpt lat="47.634267" lon="7.814103">
        <ele>451.865264</ele>
        <time>2021-11-22T08:11:12.403Z</time>
      </trkpt>
      <trkpt lat="47.634603" lon="7.813838">
        <ele>448.875266</ele>
        <time>2021-11-22T08:11:15.780Z</time>
      </trkpt>
      <trkpt lat="47.634638" lon="7.813802">
        <ele>448.548963</ele>
        <time>2021-11-22T08:11:16.138Z</time>
      </trkpt>
      <trkpt lat="47.634810" lon="7.813677">
        <ele>447.081483</ele>
        <time>2021-11-22T08:11:17.852Z</time>
      </trkpt>
      <trkpt lat="47.635241" lon="7.813237">
        <ele>443.073029</ele>
        <time>2021-11-22T08:11:22.452Z</time>
      </trkpt>
      <trkpt lat="47.635461" lon="7.813093">
        <ele>441.230620</ele>
        <time>2021-11-22T08:11:24.593Z</time>
      </trkpt>
      <trkpt lat="47.635537" lon="7.813043">
        <ele>440.593621</ele>
        <time>2021-11-22T08:11:25.333Z</time>
      </trkpt>
      <trkpt lat="47.635617" lon="7.812948">
        <ele>439.808538</ele>
        <time>2021-11-22T08:11:26.233Z</time>
      </trkpt>
      <trkpt lat="47.635678" lon="7.812872">
        <ele>439.198252</ele>
        <time>2021-11-22T08:11:26.954Z</time>
      </trkpt>
      <trkpt lat="47.635984" lon="7.812598">
        <ele>436.459823</ele>
        <time>2021-11-22T08:11:30.158Z</time>
      </trkpt>
      <trkpt lat="47.636234" lon="7.812469">
        <ele>434.436200</ele>
        <time>2021-11-22T08:11:32.551Z</time>
      </trkpt>
      <trkpt lat="47.636362" lon="7.812419">
        <ele>433.424762</ele>
        <time>2021-11-22T08:11:33.755Z</time>
      </trkpt>
      <trkpt lat="47.636514" lon="7.812384">
        <ele>432.249344</ele>
        <time>2021-11-22T08:11:35.114Z</time>
      </trkpt>
      <trkpt lat="47.637056" lon="7.812257">
        <ele>428.056302</ele>
        <time>2021-11-22T08:11:40.032Z</time>
      </trkpt>
      <trkpt lat="47.637370" lon="7.812117">
        <ele>425.550901</ele>
        <time>2021-11-22T08:11:42.937Z</time>
      </trkpt>
      <trkpt lat="47.637893" lon="7.811811">
        <ele>421.322438</ele>
        <time>2021-11-22T08:11:47.830Z</time>
      </trkpt>
      <trkpt lat="47.638511" lon="7.811552">
        <ele>416.722927</ele>
        <time>2021-11-22T08:11:53.528Z</time>
      </trkpt>
      <trkpt lat="47.638925" lon="7.811482">
        <ele>413.738482</ele>
        <time>2021-11-22T08:11:57.234Z</time>
      </trkpt>
      <trkpt lat="47.639195" lon="7.811442">
        <ele>411.795004</ele>
        <time>2021-11-22T08:11:59.691Z</time>
      </trkpt>
      <trkpt lat="47.639796" lon="7.811469">
        <ele>408.463088</ele>
        <time>2021-11-22T08:12:05.261Z</time>
      </trkpt>
      <trkpt lat="47.639913" lon="7.811500">
        <ele>408.035220</ele>
        <time>2021-11-22T08:12:06.376Z</time>
      </trkpt>
      <trkpt lat="47.639913" lon="7.811500">
        <ele>408.035220</ele>
        <time>2021-11-22T08:12:06.384Z</time>
      </trkpt>
      <trkpt lat="47.640114" lon="7.811584">
        <ele>407.283465</ele>
        <time>2021-11-22T08:12:08.444Z</time>
      </trkpt>
      <trkpt lat="47.640311" lon="7.811772">
        <ele>406.440289</ele>
        <time>2021-11-22T08:12:10.731Z</time>
      </trkpt>
      <trkpt lat="47.640406" lon="7.811979">
        <ele>405.832765</ele>
        <time>2021-11-22T08:12:12.531Z</time>
      </trkpt>
      <trkpt lat="47.640965" lon="7.814694">
        <ele>399.104749</ele>
        <time>2021-11-22T08:12:33.018Z</time>
      </trkpt>
      <trkpt lat="47.641246" lon="7.815390">
        <ele>397.213972</ele>
        <time>2021-11-22T08:12:38.310Z</time>
      </trkpt>
      <trkpt lat="47.641404" lon="7.815775">
        <ele>395.442864</ele>
        <time>2021-11-22T08:12:41.099Z</time>
      </trkpt>
      <trkpt lat="47.641514" lon="7.816229">
        <ele>392.942136</ele>
        <time>2021-11-22T08:12:44.003Z</time>
      </trkpt>
      <trkpt lat="47.641687" lon="7.816751">
        <ele>389.926875</ele>
        <time>2021-11-22T08:12:47.464Z</time>
      </trkpt>
      <trkpt lat="47.641819" lon="7.816919">
        <ele>388.589176</ele>
        <time>2021-11-22T08:12:48.976Z</time>
      </trkpt>
      <trkpt lat="47.641916" lon="7.816921">
        <ele>387.842889</ele>
        <time>2021-11-22T08:12:49.823Z</time>
      </trkpt>
      <trkpt lat="47.642138" lon="7.816906">
        <ele>386.133287</ele>
        <time>2021-11-22T08:12:51.763Z</time>
      </trkpt>
      <trkpt lat="47.642758" lon="7.816795">
        <ele>381.606292</ele>
        <time>2021-11-22T08:12:57.235Z</time>
      </trkpt>
      <trkpt lat="47.642952" lon="7.816765">
        <ele>380.368020</ele>
        <time>2021-11-22T08:12:58.945Z</time>
      </trkpt>
      <trkpt lat="47.643638" lon="7.816626">
        <ele>375.972569</ele>
        <time>2021-11-22T08:13:05.108Z</time>
      </trkpt>
      <trkpt lat="47.643676" lon="7.816507">
        <ele>375.409304</ele>
        <time>2021-11-22T08:13:05.928Z</time>
      </trkpt>
      <trkpt lat="47.643672" lon="7.816390">
        <ele>374.908225</ele>
        <time>2021-11-22T08:13:06.667Z</time>
      </trkpt>
      <trkpt lat="47.643670" lon="7.816306">
        <ele>374.548714</ele>
        <time>2021-11-22T08:13:07.196Z</time>
      </trkpt>
      <trkpt lat="47.643631" lon="7.816174">
        <ele>373.932219</ele>
        <time>2021-11-22T08:13:08.116Z</time>
      </trkpt>
      <trkpt lat="47.643595" lon="7.815574">
        <ele>371.461561</ele>
        <time>2021-11-22T08:13:12.100Z</time>
      </trkpt>
      <trkpt lat="47.643583" lon="7.815386">
        <ele>371.260729</ele>
        <time>2021-11-22T08:13:13.423Z</time>
      </trkpt>
      <trkpt lat="47.643563" lon="7.815022">
        <ele>370.872333</ele>
        <time>2021-11-22T08:13:16.088Z</time>
      </trkpt>
      <trkpt lat="47.643526" lon="7.814068">
        <ele>369.856080</ele>
        <time>2021-11-22T08:13:23.463Z</time>
      </trkpt>
      <trkpt lat="47.643420" lon="7.812903">
        <ele>368.650298</ele>
        <time>2021-11-22T08:13:33.683Z</time>
      </trkpt>
      <trkpt lat="47.643356" lon="7.812369">
        <ele>368.570396</ele>
        <time>2021-11-22T08:13:39.131Z</time>
      </trkpt>
      <trkpt lat="47.643296" lon="7.811717">
        <ele>368.473454</ele>
        <time>2021-11-22T08:13:45.560Z</time>
      </trkpt>
      <trkpt lat="47.643273" lon="7.811468">
        <ele>368.436429</ele>
        <time>2021-11-22T08:13:48.021Z</time>
      </trkpt>
      <trkpt lat="47.643160" lon="7.810537">
        <ele>368.297069</ele>
        <time>2021-11-22T08:13:57.161Z</time>
      </trkpt>
      <trkpt lat="47.643048" lon="7.809936">
        <ele>368.029980</ele>
        <time>2021-11-22T08:14:02.956Z</time>
      </trkpt>
      <trkpt lat="47.643036" lon="7.809874">
        <ele>367.992232</ele>
        <time>2021-11-22T08:14:03.508Z</time>
      </trkpt>
      <trkpt lat="47.642844" lon="7.808839">
        <ele>367.364041</ele>
        <time>2021-11-22T08:14:12.598Z</time>
      </trkpt>
      <trkpt lat="47.642638" lon="7.807938">
        <ele>366.807269</ele>
        <time>2021-11-22T08:14:20.268Z</time>
      </trkpt>
      <trkpt lat="47.642575" lon="7.807502">
        <ele>366.482461</ele>
        <time>2021-11-22T08:14:23.809Z</time>
      </trkpt>
      <trkpt lat="47.642536" lon="7.807284">
        <ele>366.296312</ele>
        <time>2021-11-22T08:14:25.522Z</time>
      </trkpt>
      <trkpt lat="47.642474" lon="7.806929">
        <ele>365.993649</ele>
        <time>2021-11-22T08:14:28.578Z</time>
      </trkpt>
      <trkpt lat="47.642464" lon="7.806840">
        <ele>365.919183</ele>
        <time>2021-11-22T08:14:29.247Z</time>
      </trkpt>
      <trkpt lat="47.642457" lon="7.806775">
        <ele>365.864858</ele>
        <time>2021-11-22T08:14:29.752Z</time>
      </trkpt>
      <trkpt lat="47.642451" lon="7.806725">
        <ele>365.822944</ele>
        <time>2021-11-22T08:14:30.160Z</time>
      </trkpt>
      <trkpt lat="47.642419" lon="7.805794">
        <ele>365.053593</ele>
        <time>2021-11-22T08:14:37.542Z</time>
      </trkpt>
      <trkpt lat="47.642421" lon="7.805765">
        <ele>365.029535</ele>
        <time>2021-11-22T08:14:37.760Z</time>
      </trkpt>
      <trkpt lat="47.642430" lon="7.805613">
        <ele>364.903606</ele>
        <time>2021-11-22T08:14:38.945Z</time>
      </trkpt>
      <trkpt lat="47.642676" lon="7.804538">
        <ele>364.135631</ele>
        <time>2021-11-22T08:14:48.286Z</time>
      </trkpt>
      <trkpt lat="47.642770" lon="7.804334">
        <ele>363.996437</ele>
        <time>2021-11-22T08:14:50.433Z</time>
      </trkpt>
      <trkpt lat="47.642873" lon="7.804157">
        <ele>363.864714</ele>
        <time>2021-11-22T08:14:52.367Z</time>
      </trkpt>
      <trkpt lat="47.643129" lon="7.803855">
        <ele>363.591355</ele>
        <time>2021-11-22T08:14:56.471Z</time>
      </trkpt>
      <trkpt lat="47.643465" lon="7.803575">
        <ele>363.269242</ele>
        <time>2021-11-22T08:15:01.299Z</time>
      </trkpt>
      <trkpt lat="47.643772" lon="7.803319">
        <ele>362.987279</ele>
        <time>2021-11-22T08:15:05.723Z</time>
      </trkpt>
      <trkpt lat="47.644609" lon="7.803001">
        <ele>362.704502</ele>
        <time>2021-11-22T08:15:17.248Z</time>
      </trkpt>
      <trkpt lat="47.644860" lon="7.802911">
        <ele>362.619988</ele>
        <time>2021-11-22T08:15:20.927Z</time>
      </trkpt>
      <trkpt lat="47.645207" lon="7.802812">
        <ele>362.504337</ele>
        <time>2021-11-22T08:15:26.072Z</time>
      </trkpt>
      <trkpt lat="47.645311" lon="7.802799">
        <ele>362.470178</ele>
        <time>2021-11-22T08:15:27.618Z</time>
      </trkpt>
      <trkpt lat="47.645524" lon="7.802783">
        <ele>362.403874</ele>
        <time>2021-11-22T08:15:30.806Z</time>
      </trkpt>
      <trkpt lat="47.645603" lon="7.802779">
        <ele>362.392618</ele>
        <time>2021-11-22T08:15:31.975Z</time>
      </trkpt>
      <trkpt lat="47.645661" lon="7.802777">
        <ele>362.384356</ele>
        <time>2021-11-22T08:15:32.844Z</time>
      </trkpt>
      <trkpt lat="47.645690" lon="7.802775">
        <ele>362.380221</ele>
        <time>2021-11-22T08:15:33.288Z</time>
      </trkpt>
      <trkpt lat="47.645928" lon="7.802756">
        <ele>362.346280</ele>
        <time>2021-11-22T08:15:36.866Z</time>
      </trkpt>
      <trkpt lat="47.646891" lon="7.802749">
        <ele>362.209140</ele>
        <time>2021-11-22T08:15:51.145Z</time>
      </trkpt>
      <trkpt lat="47.646975" lon="7.802793">
        <ele>362.196455</ele>
        <time>2021-11-22T08:15:52.444Z</time>
      </trkpt>
      <trkpt lat="47.647353" lon="7.802987">
        <ele>362.048015</ele>
        <time>2021-11-22T08:15:57.917Z</time>
      </trkpt>
      <trkpt lat="47.647454" lon="7.803115">
        <ele>361.870831</ele>
        <time>2021-11-22T08:15:59.582Z</time>
      </trkpt>
      <trkpt lat="47.647677" lon="7.803299">
        <ele>361.530435</ele>
        <time>2021-11-22T08:16:02.726Z</time>
      </trkpt>
      <trkpt lat="47.647780" lon="7.802900">
        <ele>361.146381</ele>
        <time>2021-11-22T08:16:06.144Z</time>
      </trkpt>
      <trkpt lat="47.647896" lon="7.802634">
        <ele>360.861578</ele>
        <time>2021-11-22T08:16:08.615Z</time>
      </trkpt>
      <trkpt lat="47.648032" lon="7.802295">
        <ele>360.506947</ele>
        <time>2021-11-22T08:16:11.652Z</time>
      </trkpt>
      <trkpt lat="47.648175" lon="7.801942">
        <ele>360.136723</ele>
        <time>2021-11-22T08:16:14.749Z</time>
      </trkpt>
      <trkpt lat="47.648191" lon="7.801903">
        <ele>360.095681</ele>
        <time>2021-11-22T08:16:15.087Z</time>
      </trkpt>
      <trkpt lat="47.648544" lon="7.801029">
        <ele>359.100155</ele>
        <time>2021-11-22T08:16:22.615Z</time>
      </trkpt>
      <trkpt lat="47.648712" lon="7.800751">
        <ele>358.717685</ele>
        <time>2021-11-22T08:16:25.411Z</time>
      </trkpt>
      <trkpt lat="47.648726" lon="7.800730">
        <ele>358.687428</ele>
        <time>2021-11-22T08:16:25.626Z</time>
      </trkpt>
      <trkpt lat="47.648813" lon="7.800640">
        <ele>358.526222</ele>
        <time>2021-11-22T08:16:26.795Z</time>
      </trkpt>
      <trkpt lat="47.648839" lon="7.800639">
        <ele>358.486683</ele>
        <time>2021-11-22T08:16:27.093Z</time>
      </trkpt>
      <trkpt lat="47.648842" lon="7.800639">
        <ele>358.482123</ele>
        <time>2021-11-22T08:16:27.125Z</time>
      </trkpt>
      <trkpt lat="47.648906" lon="7.800592">
        <ele>358.373575</ele>
        <time>2021-11-22T08:16:27.937Z</time>
      </trkpt>
      <trkpt lat="47.648922" lon="7.800561">
        <ele>358.333581</ele>
        <time>2021-11-22T08:16:28.231Z</time>
      </trkpt>
      <trkpt lat="47.649025" lon="7.800505">
        <ele>358.166828</ele>
        <time>2021-11-22T08:16:29.453Z</time>
      </trkpt>
      <trkpt lat="47.649108" lon="7.800464">
        <ele>358.033848</ele>
        <time>2021-11-22T08:16:30.414Z</time>
      </trkpt>
      <trkpt lat="47.649238" lon="7.800402">
        <ele>357.826273</ele>
        <time>2021-11-22T08:16:32.003Z</time>
      </trkpt>
      <trkpt lat="47.649415" lon="7.800336">
        <ele>357.548838</ele>
        <time>2021-11-22T08:16:34.075Z</time>
      </trkpt>
      <trkpt lat="47.649440" lon="7.800327">
        <ele>357.509731</ele>
        <time>2021-11-22T08:16:34.357Z</time>
      </trkpt>
      <trkpt lat="47.649707" lon="7.800227">
        <ele>357.091118</ele>
        <time>2021-11-22T08:16:37.701Z</time>
      </trkpt>
      <trkpt lat="47.650046" lon="7.800072">
        <ele>357.126289</ele>
        <time>2021-11-22T08:16:42.552Z</time>
      </trkpt>
      <trkpt lat="47.650174" lon="7.800012">
        <ele>357.174541</ele>
        <time>2021-11-22T08:16:44.828Z</time>
      </trkpt>
      <trkpt lat="47.650418" lon="7.799900">
        <ele>357.266351</ele>
        <time>2021-11-22T08:16:48.918Z</time>
      </trkpt>
      <trkpt lat="47.650489" lon="7.799868">
        <ele>357.293024</ele>
        <time>2021-11-22T08:16:50.246Z</time>
      </trkpt>
      <trkpt lat="47.650602" lon="7.799816">
        <ele>357.335552</ele>
        <time>2021-11-22T08:16:52.182Z</time>
      </trkpt>
      <trkpt lat="47.650980" lon="7.799643">
        <ele>357.477746</ele>
        <time>2021-11-22T08:16:59.413Z</time>
      </trkpt>
      <trkpt lat="47.651021" lon="7.799621">
        <ele>357.493417</ele>
        <time>2021-11-22T08:17:00.162Z</time>
      </trkpt>
      <trkpt lat="47.651401" lon="7.799445">
        <ele>357.636513</ele>
        <time>2021-11-22T08:17:07.466Z</time>
      </trkpt>
      <trkpt lat="47.651510" lon="7.799390">
        <ele>357.670539</ele>
        <time>2021-11-22T08:17:10.568Z</time>
      </trkpt>
      <trkpt lat="47.651610" lon="7.799288">
        <ele>357.692602</ele>
        <time>2021-11-22T08:17:12.956Z</time>
      </trkpt>
      <trkpt lat="47.651827" lon="7.799068">
        <ele>357.740388</ele>
        <time>2021-11-22T08:17:19.340Z</time>
      </trkpt>
      <trkpt lat="47.652373" lon="7.798474">
        <ele>357.863485</ele>
        <time>2021-11-22T08:17:33.910Z</time>
      </trkpt>
      <trkpt lat="47.652486" lon="7.798377">
        <ele>357.887222</ele>
        <time>2021-11-22T08:17:36.215Z</time>
      </trkpt>
      <trkpt lat="47.652811" lon="7.798152">
        <ele>357.952434</ele>
        <time>2021-11-22T08:17:43.426Z</time>
      </trkpt>
      <trkpt lat="47.653088" lon="7.798043">
        <ele>357.969821</ele>
        <time>2021-11-22T08:17:48.957Z</time>
      </trkpt>
      <trkpt lat="47.653114" lon="7.798036">
        <ele>357.963087</ele>
        <time>2021-11-22T08:17:49.347Z</time>
      </trkpt>
      <trkpt lat="47.653274" lon="7.797996">
        <ele>357.921738</ele>
        <time>2021-11-22T08:17:52.336Z</time>
      </trkpt>
      <trkpt lat="47.653601" lon="7.798001">
        <ele>357.838401</ele>
        <time>2021-11-22T08:17:58.329Z</time>
      </trkpt>
      <trkpt lat="47.653659" lon="7.798008">
        <ele>357.823572</ele>
        <time>2021-11-22T08:17:59.496Z</time>
      </trkpt>
      <trkpt lat="47.653906" lon="7.798052">
        <ele>357.760175</ele>
        <time>2021-11-22T08:18:03.923Z</time>
      </trkpt>
      <trkpt lat="47.654666" lon="7.798247">
        <ele>357.563626</ele>
        <time>2021-11-22T08:18:19.120Z</time>
      </trkpt>
      <trkpt lat="47.654972" lon="7.798325">
        <ele>357.609232</ele>
        <time>2021-11-22T08:18:25.803Z</time>
      </trkpt>
      <trkpt lat="47.655261" lon="7.798389">
        <ele>357.731475</ele>
        <time>2021-11-22T08:18:32.203Z</time>
      </trkpt>
      <trkpt lat="47.655577" lon="7.798468">
        <ele>357.865536</ele>
        <time>2021-11-22T08:18:39.203Z</time>
      </trkpt>
      <trkpt lat="47.656074" lon="7.798592">
        <ele>358.076375</ele>
        <time>2021-11-22T08:18:50.406Z</time>
      </trkpt>
      <trkpt lat="47.656097" lon="7.798598">
        <ele>358.086145</ele>
        <time>2021-11-22T08:18:50.941Z</time>
      </trkpt>
      <trkpt lat="47.656579" lon="7.798702">
        <ele>358.291286</ele>
        <time>2021-11-22T08:19:01.863Z</time>
      </trkpt>
      <trkpt lat="47.656780" lon="7.798744">
        <ele>358.396627</ele>
        <time>2021-11-22T08:19:06.401Z</time>
      </trkpt>
      <trkpt lat="47.656989" lon="7.798756">
        <ele>358.505173</ele>
        <time>2021-11-22T08:19:11.055Z</time>
      </trkpt>
      <trkpt lat="47.657806" lon="7.798860">
        <ele>358.930729</ele>
        <time>2021-11-22T08:19:29.464Z</time>
      </trkpt>
      <trkpt lat="47.658094" lon="7.798895">
        <ele>359.080692</ele>
        <time>2021-11-22T08:19:35.783Z</time>
      </trkpt>
      <trkpt lat="47.658412" lon="7.798888">
        <ele>359.243828</ele>
        <time>2021-11-22T08:19:42.716Z</time>
      </trkpt>
      <trkpt lat="47.658617" lon="7.798885">
        <ele>359.342971</ele>
        <time>2021-11-22T08:19:47.356Z</time>
      </trkpt>
      <trkpt lat="47.658702" lon="7.798884">
        <ele>359.384079</ele>
        <time>2021-11-22T08:19:49.236Z</time>
      </trkpt>
      <trkpt lat="47.658990" lon="7.798898">
        <ele>359.523430</ele>
        <time>2021-11-22T08:19:55.698Z</time>
      </trkpt>
      <trkpt lat="47.659142" lon="7.798947">
        <ele>359.598651</ele>
        <time>2021-11-22T08:19:59.098Z</time>
      </trkpt>
      <trkpt lat="47.659353" lon="7.799038">
        <ele>359.704909</ele>
        <time>2021-11-22T08:20:04.032Z</time>
      </trkpt>
      <trkpt lat="47.659617" lon="7.799151">
        <ele>359.837779</ele>
        <time>2021-11-22T08:20:10.101Z</time>
      </trkpt>
      <trkpt lat="47.659695" lon="7.799185">
        <ele>359.877092</ele>
        <time>2021-11-22T08:20:11.923Z</time>
      </trkpt>
      <trkpt lat="47.659866" lon="7.799258">
        <ele>359.963139</ele>
        <time>2021-11-22T08:20:15.918Z</time>
      </trkpt>
      <trkpt lat="47.660413" lon="7.799490">
        <ele>360.267621</ele>
        <time>2021-11-22T08:20:28.338Z</time>
      </trkpt>
      <trkpt lat="47.660755" lon="7.799654">
        <ele>360.475279</ele>
        <time>2021-11-22T08:20:36.182Z</time>
      </trkpt>
      <trkpt lat="47.660793" lon="7.799673">
        <ele>360.498447</ele>
        <time>2021-11-22T08:20:37.098Z</time>
      </trkpt>
      <trkpt lat="47.661187" lon="7.799870">
        <ele>360.738661</ele>
        <time>2021-11-22T08:20:46.405Z</time>
      </trkpt>
      <trkpt lat="47.661224" lon="7.799885">
        <ele>360.760822</ele>
        <time>2021-11-22T08:20:47.366Z</time>
      </trkpt>
      <trkpt lat="47.661603" lon="7.800090">
        <ele>360.993887</ele>
        <time>2021-11-22T08:20:56.620Z</time>
      </trkpt>
      <trkpt lat="47.662007" lon="7.800299">
        <ele>361.264130</ele>
        <time>2021-11-22T08:21:06.405Z</time>
      </trkpt>
      <trkpt lat="47.662416" lon="7.800534">
        <ele>361.568599</ele>
        <time>2021-11-22T08:21:17.022Z</time>
      </trkpt>
      <trkpt lat="47.663470" lon="7.800659">
        <ele>362.302672</ele>
        <time>2021-11-22T08:21:41.177Z</time>
      </trkpt>
      <trkpt lat="47.663623" lon="7.800669">
        <ele>362.387384</ele>
        <time>2021-11-22T08:21:44.694Z</time>
      </trkpt>
      <trkpt lat="47.663648" lon="7.800671">
        <ele>362.393574</ele>
        <time>2021-11-22T08:21:45.247Z</time>
      </trkpt>
      <trkpt lat="47.663842" lon="7.800716">
        <ele>362.442118</ele>
        <time>2021-11-22T08:21:49.449Z</time>
      </trkpt>
      <trkpt lat="47.664106" lon="7.800746">
        <ele>362.507578</ele>
        <time>2021-11-22T08:21:55.201Z</time>
      </trkpt>
      <trkpt lat="47.664689" lon="7.800933">
        <ele>362.655038</ele>
        <time>2021-11-22T08:22:07.921Z</time>
      </trkpt>
      <trkpt lat="47.664798" lon="7.800967">
        <ele>362.682574</ele>
        <time>2021-11-22T08:22:10.224Z</time>
      </trkpt>
      <trkpt lat="47.664827" lon="7.800841">
        <ele>362.704744</ele>
        <time>2021-11-22T08:22:11.550Z</time>
      </trkpt>
      <trkpt lat="47.664908" lon="7.800883">
        <ele>362.725956</ele>
        <time>2021-11-22T08:22:12.931Z</time>
      </trkpt>
      <trkpt lat="47.665300" lon="7.801038">
        <ele>362.822725</ele>
        <time>2021-11-22T08:22:18.883Z</time>
      </trkpt>
      <trkpt lat="47.668652" lon="7.801735">
        <ele>363.307042</ele>
        <time>2021-11-22T08:23:10.573Z</time>
      </trkpt>
      <trkpt lat="47.669483" lon="7.801983">
        <ele>363.724894</ele>
        <time>2021-11-22T08:23:24.829Z</time>
      </trkpt>
      <trkpt lat="47.670462" lon="7.802451">
        <ele>364.322139</ele>
        <time>2021-11-22T08:23:42.743Z</time>
      </trkpt>
      <trkpt lat="47.670527" lon="7.802447">
        <ele>364.359918</ele>
        <time>2021-11-22T08:23:44.050Z</time>
      </trkpt>
      <trkpt lat="47.671143" lon="7.802769">
        <ele>364.741282</ele>
        <time>2021-11-22T08:23:55.264Z</time>
      </trkpt>
      <trkpt lat="47.672785" lon="7.803622">
        <ele>366.105565</ele>
        <time>2021-11-22T08:24:25.001Z</time>
      </trkpt>
      <trkpt lat="47.672874" lon="7.803578">
        <ele>366.219855</ele>
        <time>2021-11-22T08:24:26.761Z</time>
      </trkpt>
      <trkpt lat="47.673221" lon="7.803029">
        <ele>366.837617</ele>
        <time>2021-11-22T08:24:36.733Z</time>
      </trkpt>
      <trkpt lat="47.673257" lon="7.802852">
        <ele>366.989314</ele>
        <time>2021-11-22T08:24:39.431Z</time>
      </trkpt>
      <trkpt lat="47.673277" lon="7.802799">
        <ele>367.039159</ele>
        <time>2021-11-22T08:24:40.321Z</time>
      </trkpt>
      <trkpt lat="47.673308" lon="7.802785">
        <ele>367.078638</ele>
        <time>2021-11-22T08:24:41.192Z</time>
      </trkpt>
      <trkpt lat="47.673363" lon="7.802809">
        <ele>367.148484</ele>
        <time>2021-11-22T08:24:42.725Z</time>
      </trkpt>
      <trkpt lat="47.673416" lon="7.802881">
        <ele>367.236002</ele>
        <time>2021-11-22T08:24:44.646Z</time>
      </trkpt>
      <trkpt lat="47.673666" lon="7.802454">
        <ele>367.743192</ele>
        <time>2021-11-22T08:24:53.109Z</time>
      </trkpt>
      <trkpt lat="47.673827" lon="7.802204">
        <ele>368.196974</ele>
        <time>2021-11-22T08:24:58.348Z</time>
      </trkpt>
      <trkpt lat="47.673974" lon="7.801975">
        <ele>368.611998</ele>
        <time>2021-11-22T08:25:03.132Z</time>
      </trkpt>
      <trkpt lat="47.674327" lon="7.801371">
        <ele>369.661114</ele>
        <time>2021-11-22T08:25:15.362Z</time>
      </trkpt>
      <trkpt lat="47.674474" lon="7.801183">
        <ele>370.039035</ele>
        <time>2021-11-22T08:25:19.942Z</time>
      </trkpt>
      <trkpt lat="47.674792" lon="7.800871">
        <ele>370.781514</ele>
        <time>2021-11-22T08:25:28.699Z</time>
      </trkpt>
      <trkpt lat="47.675532" lon="7.800539">
        <ele>372.073645</ele>
        <time>2021-11-22T08:25:46.124Z</time>
      </trkpt>
      <trkpt lat="47.675630" lon="7.800465">
        <ele>372.248171</ele>
        <time>2021-11-22T08:25:48.790Z</time>
      </trkpt>
      <trkpt lat="47.675794" lon="7.800362">
        <ele>372.530839</ele>
        <time>2021-11-22T08:26:09.357Z</time>
      </trkpt>
      <trkpt lat="47.675938" lon="7.800244">
        <ele>372.791923</ele>
        <time>2021-11-22T08:26:28.781Z</time>
      </trkpt>
      <trkpt lat="47.675978" lon="7.800212">
        <ele>372.864048</ele>
        <time>2021-11-22T08:26:34.009Z</time>
      </trkpt>
      <trkpt lat="47.676167" lon="7.800066">
        <ele>373.202240</ele>
        <time>2021-11-22T08:26:58.320Z</time>
      </trkpt>
      <trkpt lat="47.676231" lon="7.800074">
        <ele>373.304198</ele>
        <time>2021-11-22T08:27:06.278Z</time>
      </trkpt>
      <trkpt lat="47.678027" lon="7.799442">
        <ele>375.518167</ele>
        <time>2021-11-22T08:30:40.439Z</time>
      </trkpt>
      <trkpt lat="47.679151" lon="7.799219">
        <ele>376.270377</ele>
        <time>2021-11-22T08:32:49.723Z</time>
      </trkpt>
      <trkpt lat="47.679352" lon="7.799059">
        <ele>376.372920</ele>
        <time>2021-11-22T08:33:15.567Z</time>
      </trkpt>
      <trkpt lat="47.679706" lon="7.798620">
        <ele>376.580286</ele>
        <time>2021-11-22T08:34:07.603Z</time>
      </trkpt>
      <trkpt lat="47.680009" lon="7.798422">
        <ele>376.729135</ele>
        <time>2021-11-22T08:34:44.641Z</time>
      </trkpt>
      <trkpt lat="47.681013" lon="7.798798">
        <ele>376.577473</ele>
        <time>2021-11-22T08:36:39.207Z</time>
      </trkpt>
      <trkpt lat="47.681280" lon="7.798801">
        <ele>376.533951</ele>
        <time>2021-11-22T08:37:08.487Z</time>
      </trkpt>
      <trkpt lat="47.682090" lon="7.798811">
        <ele>376.465947</ele>
        <time>2021-11-22T08:38:37.686Z</time>
      </trkpt>
      <trkpt lat="47.682143" lon="7.798819">
        <ele>376.469196</ele>
        <time>2021-11-22T08:38:43.388Z</time>
      </trkpt>
      <trkpt lat="47.682432" lon="7.798569">
        <ele>376.489589</ele>
        <time>2021-11-22T08:39:20.275Z</time>
      </trkpt>
      <trkpt lat="47.683513" lon="7.798053">
        <ele>376.568387</ele>
        <time>2021-11-22T08:41:26.989Z</time>
      </trkpt>
      <trkpt lat="47.683994" lon="7.798044">
        <ele>377.040079</ele>
        <time>2021-11-22T08:42:22.303Z</time>
      </trkpt>
      <trkpt lat="47.684400" lon="7.797862">
        <ele>377.455925</ele>
        <time>2021-11-22T08:43:11.349Z</time>
      </trkpt>
      <trkpt lat="47.684465" lon="7.797824">
        <ele>377.524421</ele>
        <time>2021-11-22T08:43:19.497Z</time>
      </trkpt>
      <trkpt lat="47.684548" lon="7.797775">
        <ele>377.612000</ele>
        <time>2021-11-22T08:43:29.946Z</time>
      </trkpt>
      <trkpt lat="47.684907" lon="7.797433">
        <ele>378.030200</ele>
        <time>2021-11-22T08:44:19.105Z</time>
      </trkpt>
      <trkpt lat="47.684934" lon="7.797356">
        <ele>378.087512</ele>
        <time>2021-11-22T08:44:26.040Z</time>
      </trkpt>
      <trkpt lat="47.685144" lon="7.797223">
        <ele>378.311367</ele>
        <time>2021-11-22T08:44:31.755Z</time>
      </trkpt>
      <trkpt lat="47.685475" lon="7.797037">
        <ele>378.826702</ele>
        <time>2021-11-22T08:44:40.535Z</time>
      </trkpt>
      <trkpt lat="47.685759" lon="7.796930">
        <ele>379.257711</ele>
        <time>2021-11-22T08:44:47.904Z</time>
      </trkpt>
      <trkpt lat="47.686089" lon="7.796835">
        <ele>379.752193</ele>
        <time>2021-11-22T08:44:56.692Z</time>
      </trkpt>
      <trkpt lat="47.686357" lon="7.796753">
        <ele>380.154713</ele>
        <time>2021-11-22T08:45:04.311Z</time>
      </trkpt>
      <trkpt lat="47.686604" lon="7.796684">
        <ele>380.524434</ele>
        <time>2021-11-22T08:45:10.725Z</time>
      </trkpt>
      <trkpt lat="47.686833" lon="7.796632">
        <ele>380.865220</ele>
        <time>2021-11-22T08:45:16.932Z</time>
      </trkpt>
      <trkpt lat="47.687014" lon="7.796595">
        <ele>381.234311</ele>
        <time>2021-11-22T08:45:22.190Z</time>
      </trkpt>
      <trkpt lat="47.687125" lon="7.796572">
        <ele>381.498700</ele>
        <time>2021-11-22T08:45:25.170Z</time>
      </trkpt>
      <trkpt lat="47.687299" lon="7.796542">
        <ele>381.911930</ele>
        <time>2021-11-22T08:45:29.626Z</time>
      </trkpt>
      <trkpt lat="47.687343" lon="7.796539">
        <ele>382.015838</ele>
        <time>2021-11-22T08:45:30.946Z</time>
      </trkpt>
      <trkpt lat="47.687384" lon="7.796535">
        <ele>382.112767</ele>
        <time>2021-11-22T08:45:32.300Z</time>
      </trkpt>
      <trkpt lat="47.687595" lon="7.796515">
        <ele>382.611538</ele>
        <time>2021-11-22T08:45:37.529Z</time>
      </trkpt>
      <trkpt lat="47.687607" lon="7.796514">
        <ele>382.639891</ele>
        <time>2021-11-22T08:45:37.863Z</time>
      </trkpt>
      <trkpt lat="47.687671" lon="7.796516">
        <ele>382.790904</ele>
        <time>2021-11-22T08:45:39.646Z</time>
      </trkpt>
      <trkpt lat="47.687769" lon="7.796519">
        <ele>383.022139</ele>
        <time>2021-11-22T08:45:42.760Z</time>
      </trkpt>
      <trkpt lat="47.688322" lon="7.796634">
        <ele>384.339413</ele>
        <time>2021-11-22T08:45:57.783Z</time>
      </trkpt>
      <trkpt lat="47.688430" lon="7.796592">
        <ele>384.602776</ele>
        <time>2021-11-22T08:46:03.481Z</time>
      </trkpt>
      <trkpt lat="47.688376" lon="7.796471">
        <ele>384.833318</ele>
        <time>2021-11-22T08:46:05.890Z</time>
      </trkpt>
      <trkpt lat="47.688243" lon="7.796236">
        <ele>385.478725</ele>
        <time>2021-11-22T08:46:10.628Z</time>
      </trkpt>
      <trkpt lat="47.688225" lon="7.796220">
        <ele>385.599227</ele>
        <time>2021-11-22T08:46:11.215Z</time>
      </trkpt>
      <trkpt lat="47.688100" lon="7.796113">
        <ele>386.428000</ele>
        <time>2021-11-22T08:46:17.316Z</time>
      </trkpt>
      <trkpt lat="47.687750" lon="7.795967">
        <ele>388.516411</ele>
        <time>2021-11-22T08:46:28.750Z</time>
      </trkpt>
      <trkpt lat="47.687733" lon="7.795960">
        <ele>388.617753</ele>
        <time>2021-11-22T08:46:29.288Z</time>
      </trkpt>
      <trkpt lat="47.687589" lon="7.795875">
        <ele>389.507904</ele>
        <time>2021-11-22T08:46:32.910Z</time>
      </trkpt>
      <trkpt lat="47.687244" lon="7.795566">
        <ele>391.822192</ele>
        <time>2021-11-22T08:46:49.166Z</time>
      </trkpt>
      <trkpt lat="47.687249" lon="7.795522">
        <ele>391.994756</ele>
        <time>2021-11-22T08:46:52.372Z</time>
      </trkpt>
      <trkpt lat="47.687118" lon="7.794989">
        <ele>394.189056</ele>
        <time>2021-11-22T08:47:08.422Z</time>
      </trkpt>
      <trkpt lat="47.687098" lon="7.794479">
        <ele>396.426221</ele>
        <time>2021-11-22T08:47:23.212Z</time>
      </trkpt>
      <trkpt lat="47.687138" lon="7.794064">
        <ele>398.730145</ele>
        <time>2021-11-22T08:47:33.329Z</time>
      </trkpt>
      <trkpt lat="47.687191" lon="7.793851">
        <ele>399.978108</ele>
        <time>2021-11-22T08:47:42.638Z</time>
      </trkpt>
      <trkpt lat="47.687361" lon="7.793342">
        <ele>403.100703</ele>
        <time>2021-11-22T08:48:02.107Z</time>
      </trkpt>
      <trkpt lat="47.687464" lon="7.792610">
        <ele>407.210385</ele>
        <time>2021-11-22T08:48:26.294Z</time>
      </trkpt>
      <trkpt lat="47.687407" lon="7.792415">
        <ele>408.378685</ele>
        <time>2021-11-22T08:48:33.086Z</time>
      </trkpt>
      <trkpt lat="47.687158" lon="7.792068">
        <ele>411.178091</ele>
        <time>2021-11-22T08:48:49.951Z</time>
      </trkpt>
      <trkpt lat="47.687038" lon="7.791877">
        <ele>412.632521</ele>
        <time>2021-11-22T08:48:58.038Z</time>
      </trkpt>
      <trkpt lat="47.687040" lon="7.791794">
        <ele>413.094876</ele>
        <time>2021-11-22T08:49:01.959Z</time>
      </trkpt>
      <trkpt lat="47.687103" lon="7.791534">
        <ele>414.633197</ele>
        <time>2021-11-22T08:49:09.578Z</time>
      </trkpt>
      <trkpt lat="47.687215" lon="7.791427">
        <ele>415.734409</ele>
        <time>2021-11-22T08:49:15.113Z</time>
      </trkpt>
      <trkpt lat="47.687813" lon="7.791654">
        <ele>420.838577</ele>
        <time>2021-11-22T08:49:45.999Z</time>
      </trkpt>
      <trkpt lat="47.687969" lon="7.791654">
        <ele>422.128645</ele>
        <time>2021-11-22T08:49:53.497Z</time>
      </trkpt>
      <trkpt lat="47.688121" lon="7.791525">
        <ele>423.576308</ele>
        <time>2021-11-22T08:50:02.337Z</time>
      </trkpt>
      <trkpt lat="47.688316" lon="7.791155">
        <ele>426.145184</ele>
        <time>2021-11-22T08:50:17.739Z</time>
      </trkpt>
      <trkpt lat="47.688559" lon="7.790888">
        <ele>428.536942</ele>
        <time>2021-11-22T08:50:28.840Z</time>
      </trkpt>
      <trkpt lat="47.688615" lon="7.790837">
        <ele>429.056730</ele>
        <time>2021-11-22T08:50:33.409Z</time>
      </trkpt>
      <trkpt lat="47.688719" lon="7.790743">
        <ele>430.020068</ele>
        <time>2021-11-22T08:50:40.326Z</time>
      </trkpt>
      <trkpt lat="47.688799" lon="7.790640">
        <ele>430.857803</ele>
        <time>2021-11-22T08:50:43.892Z</time>
      </trkpt>
      <trkpt lat="47.688847" lon="7.790430">
        <ele>432.039171</ele>
        <time>2021-11-22T08:50:51.220Z</time>
      </trkpt>
      <trkpt lat="47.688671" lon="7.790034">
        <ele>434.566903</ele>
        <time>2021-11-22T08:51:05.983Z</time>
      </trkpt>
      <trkpt lat="47.688652" lon="7.789780">
        <ele>435.928257</ele>
        <time>2021-11-22T08:51:15.236Z</time>
      </trkpt>
      <trkpt lat="47.688823" lon="7.789278">
        <ele>438.925222</ele>
        <time>2021-11-22T08:51:32.546Z</time>
      </trkpt>
      <trkpt lat="47.688888" lon="7.789165">
        <ele>439.789330</ele>
        <time>2021-11-22T08:51:35.712Z</time>
      </trkpt>
      <trkpt lat="47.688994" lon="7.789125">
        <ele>440.818368</ele>
        <time>2021-11-22T08:51:41.514Z</time>
      </trkpt>
      <trkpt lat="47.689053" lon="7.789168">
        <ele>441.436714</ele>
        <time>2021-11-22T08:51:45.147Z</time>
      </trkpt>
      <trkpt lat="47.689075" lon="7.789206">
        <ele>441.754168</ele>
        <time>2021-11-22T08:51:47.390Z</time>
      </trkpt>
      <trkpt lat="47.689060" lon="7.789389">
        <ele>442.921808</ele>
        <time>2021-11-22T08:51:51.325Z</time>
      </trkpt>
      <trkpt lat="47.688948" lon="7.789669">
        <ele>444.984736</ele>
        <time>2021-11-22T08:52:00.267Z</time>
      </trkpt>
      <trkpt lat="47.688941" lon="7.789940">
        <ele>446.702452</ele>
        <time>2021-11-22T08:52:07.314Z</time>
      </trkpt>
      <trkpt lat="47.689112" lon="7.790189">
        <ele>448.955450</ele>
        <time>2021-11-22T08:52:22.747Z</time>
      </trkpt>
      <trkpt lat="47.689457" lon="7.790508">
        <ele>452.779016</ele>
        <time>2021-11-22T08:52:45.553Z</time>
      </trkpt>
      <trkpt lat="47.689560" lon="7.790697">
        <ele>454.319211</ele>
        <time>2021-11-22T08:52:54.809Z</time>
      </trkpt>
      <trkpt lat="47.689594" lon="7.790998">
        <ele>456.252309</ele>
        <time>2021-11-22T08:53:08.419Z</time>
      </trkpt>
      <trkpt lat="47.689483" lon="7.791571">
        <ele>461.058152</ele>
        <time>2021-11-22T08:53:31.525Z</time>
      </trkpt>
      <trkpt lat="47.689478" lon="7.791714">
        <ele>462.212658</ele>
        <time>2021-11-22T08:53:38.112Z</time>
      </trkpt>
      <trkpt lat="47.689493" lon="7.791819">
        <ele>463.078085</ele>
        <time>2021-11-22T08:53:44.660Z</time>
      </trkpt>
      <trkpt lat="47.689562" lon="7.791973">
        <ele>464.569621</ele>
        <time>2021-11-22T08:53:50.753Z</time>
      </trkpt>
      <trkpt lat="47.689723" lon="7.792013">
        <ele>466.524772</ele>
        <time>2021-11-22T08:54:00.768Z</time>
      </trkpt>
      <trkpt lat="47.690160" lon="7.791653">
        <ele>472.509824</ele>
        <time>2021-11-22T08:54:34.237Z</time>
      </trkpt>
      <trkpt lat="47.690673" lon="7.791691">
        <ele>478.506964</ele>
        <time>2021-11-22T08:55:06.224Z</time>
      </trkpt>
      <trkpt lat="47.690878" lon="7.791600">
        <ele>480.608422</ele>
        <time>2021-11-22T08:55:21.895Z</time>
      </trkpt>
      <trkpt lat="47.690962" lon="7.791506">
        <ele>481.641342</ele>
        <time>2021-11-22T08:55:27.353Z</time>
      </trkpt>
      <trkpt lat="47.691191" lon="7.790978">
        <ele>485.794031</ele>
        <time>2021-11-22T08:55:49.339Z</time>
      </trkpt>
      <trkpt lat="47.691292" lon="7.790910">
        <ele>486.883162</ele>
        <time>2021-11-22T08:55:55.098Z</time>
      </trkpt>
      <trkpt lat="47.691492" lon="7.790912">
        <ele>488.847590</ele>
        <time>2021-11-22T08:56:05.047Z</time>
      </trkpt>
      <trkpt lat="47.691895" lon="7.791101">
        <ele>492.998369</ele>
        <time>2021-11-22T08:56:26.104Z</time>
      </trkpt>
      <trkpt lat="47.692274" lon="7.791152">
        <ele>496.853323</ele>
        <time>2021-11-22T08:56:45.123Z</time>
      </trkpt>
      <trkpt lat="47.692357" lon="7.791249">
        <ele>497.986352</ele>
        <time>2021-11-22T08:56:50.488Z</time>
      </trkpt>
      <trkpt lat="47.692453" lon="7.791760">
        <ele>501.817778</ele>
        <time>2021-11-22T08:57:08.553Z</time>
      </trkpt>
      <trkpt lat="47.692577" lon="7.791966">
        <ele>503.813589</ele>
        <time>2021-11-22T08:57:18.210Z</time>
      </trkpt>
      <trkpt lat="47.692958" lon="7.792103">
        <ele>508.019415</ele>
        <time>2021-11-22T08:57:40.666Z</time>
      </trkpt>
      <trkpt lat="47.693130" lon="7.792245">
        <ele>510.130617</ele>
        <time>2021-11-22T08:57:52.882Z</time>
      </trkpt>
      <trkpt lat="47.693282" lon="7.792508">
        <ele>512.634023</ele>
        <time>2021-11-22T08:58:07.725Z</time>
      </trkpt>
      <trkpt lat="47.693458" lon="7.792642">
        <ele>514.755872</ele>
        <time>2021-11-22T08:58:21.050Z</time>
      </trkpt>
      <trkpt lat="47.693702" lon="7.792693">
        <ele>518.404805</ele>
        <time>2021-11-22T08:58:38.265Z</time>
      </trkpt>
      <trkpt lat="47.693919" lon="7.792585">
        <ele>521.797077</ele>
        <time>2021-11-22T08:58:54.757Z</time>
      </trkpt>
      <trkpt lat="47.694013" lon="7.792371">
        <ele>524.346623</ele>
        <time>2021-11-22T08:59:07.713Z</time>
      </trkpt>
      <trkpt lat="47.694064" lon="7.791324">
        <ele>534.820053</ele>
        <time>2021-11-22T09:00:01.601Z</time>
      </trkpt>
      <trkpt lat="47.693979" lon="7.790379">
        <ele>543.894156</ele>
        <time>2021-11-22T09:00:54.001Z</time>
      </trkpt>
      <trkpt lat="47.693998" lon="7.789148">
        <ele>554.327052</ele>
        <time>2021-11-22T09:01:49.781Z</time>
      </trkpt>
      <trkpt lat="47.693993" lon="7.788872">
        <ele>556.666422</ele>
        <time>2021-11-22T09:02:03.359Z</time>
      </trkpt>
      <trkpt lat="47.693980" lon="7.788494">
        <ele>559.873361</ele>
        <time>2021-11-22T09:02:17.406Z</time>
      </trkpt>
      <trkpt lat="47.694047" lon="7.788220">
        <ele>562.343390</ele>
        <time>2021-11-22T09:02:28.743Z</time>
      </trkpt>
      <trkpt lat="47.694456" lon="7.787953">
        <ele>566.289312</ele>
        <time>2021-11-22T09:02:50.577Z</time>
      </trkpt>
      <trkpt lat="47.694478" lon="7.787914">
        <ele>566.534954</ele>
        <time>2021-11-22T09:02:52.137Z</time>
      </trkpt>
      <trkpt lat="47.694417" lon="7.787167">
        <ele>570.167421</ele>
        <time>2021-11-22T09:03:16.907Z</time>
      </trkpt>
      <trkpt lat="47.694107" lon="7.785943">
        <ele>576.480560</ele>
        <time>2021-11-22T09:03:48.314Z</time>
      </trkpt>
      <trkpt lat="47.694144" lon="7.785593">
        <ele>578.137590</ele>
        <time>2021-11-22T09:03:58.176Z</time>
      </trkpt>
      <trkpt lat="47.694397" lon="7.785583">
        <ele>579.873711</ele>
        <time>2021-11-22T09:04:08.557Z</time>
      </trkpt>
      <trkpt lat="47.694834" lon="7.785803">
        <ele>583.038827</ele>
        <time>2021-11-22T09:04:26.446Z</time>
      </trkpt>
      <trkpt lat="47.695081" lon="7.786017">
        <ele>585.000226</ele>
        <time>2021-11-22T09:04:38.340Z</time>
      </trkpt>
      <trkpt lat="47.695162" lon="7.786020">
        <ele>585.556035</ele>
        <time>2021-11-22T09:04:41.802Z</time>
      </trkpt>
      <trkpt lat="47.695230" lon="7.785993">
        <ele>586.038866</ele>
        <time>2021-11-22T09:04:44.886Z</time>
      </trkpt>
      <trkpt lat="47.695490" lon="7.785615">
        <ele>588.534238</ele>
        <time>2021-11-22T09:05:01.661Z</time>
      </trkpt>
      <trkpt lat="47.695771" lon="7.785532">
        <ele>590.698834</ele>
        <time>2021-11-22T09:05:15.412Z</time>
      </trkpt>
      <trkpt lat="47.695906" lon="7.785323">
        <ele>592.259537</ele>
        <time>2021-11-22T09:05:26.192Z</time>
      </trkpt>
      <trkpt lat="47.696013" lon="7.785035">
        <ele>594.031917</ele>
        <time>2021-11-22T09:05:36.989Z</time>
      </trkpt>
      <trkpt lat="47.696342" lon="7.784550">
        <ele>597.741889</ele>
        <time>2021-11-22T09:06:00.302Z</time>
      </trkpt>
      <trkpt lat="47.696383" lon="7.784288">
        <ele>599.191126</ele>
        <time>2021-11-22T09:06:08.896Z</time>
      </trkpt>
      <trkpt lat="47.696366" lon="7.783565">
        <ele>603.088832</ele>
        <time>2021-11-22T09:06:30.560Z</time>
      </trkpt>
      <trkpt lat="47.696408" lon="7.783395">
        <ele>603.854320</ele>
        <time>2021-11-22T09:06:37.008Z</time>
      </trkpt>
      <trkpt lat="47.696486" lon="7.783198">
        <ele>604.368660</ele>
        <time>2021-11-22T09:06:42.187Z</time>
      </trkpt>
      <trkpt lat="47.696640" lon="7.782774">
        <ele>605.452876</ele>
        <time>2021-11-22T09:06:54.503Z</time>
      </trkpt>
      <trkpt lat="47.696767" lon="7.782153">
        <ele>606.913430</ele>
        <time>2021-11-22T09:07:07.703Z</time>
      </trkpt>
      <trkpt lat="47.696801" lon="7.781858">
        <ele>607.586946</ele>
        <time>2021-11-22T09:07:13.934Z</time>
      </trkpt>
      <trkpt lat="47.696836" lon="7.781652">
        <ele>608.065059</ele>
        <time>2021-11-22T09:07:16.637Z</time>
      </trkpt>
      <trkpt lat="47.696845" lon="7.781614">
        <ele>608.155712</ele>
        <time>2021-11-22T09:07:17.270Z</time>
      </trkpt>
      <trkpt lat="47.696884" lon="7.781453">
        <ele>608.540768</ele>
        <time>2021-11-22T09:07:20.888Z</time>
      </trkpt>
      <trkpt lat="47.696944" lon="7.781257">
        <ele>609.025313</ele>
        <time>2021-11-22T09:07:24.137Z</time>
      </trkpt>
      <trkpt lat="47.696990" lon="7.781173">
        <ele>609.269006</ele>
        <time>2021-11-22T09:07:25.331Z</time>
      </trkpt>
      <trkpt lat="47.697264" lon="7.780663">
        <ele>609.535014</ele>
        <time>2021-11-22T09:07:33.328Z</time>
      </trkpt>
      <trkpt lat="47.697658" lon="7.780323">
        <ele>609.262813</ele>
        <time>2021-11-22T09:07:42.362Z</time>
      </trkpt>
      <trkpt lat="47.697945" lon="7.780189">
        <ele>609.083090</ele>
        <time>2021-11-22T09:07:47.529Z</time>
      </trkpt>
      <trkpt lat="47.698154" lon="7.780123">
        <ele>608.955442</ele>
        <time>2021-11-22T09:07:51.060Z</time>
      </trkpt>
      <trkpt lat="47.698463" lon="7.779890">
        <ele>608.748429</ele>
        <time>2021-11-22T09:07:57.004Z</time>
      </trkpt>
      <trkpt lat="47.698475" lon="7.779880">
        <ele>608.740210</ele>
        <time>2021-11-22T09:07:57.240Z</time>
      </trkpt>
      <trkpt lat="47.698587" lon="7.779726">
        <ele>608.649045</ele>
        <time>2021-11-22T09:07:59.962Z</time>
      </trkpt>
      <trkpt lat="47.698642" lon="7.779650">
        <ele>608.743423</ele>
        <time>2021-11-22T09:08:01.372Z</time>
      </trkpt>
      <trkpt lat="47.698710" lon="7.779556">
        <ele>608.888136</ele>
        <time>2021-11-22T09:08:02.881Z</time>
      </trkpt>
      <trkpt lat="47.698808" lon="7.779539">
        <ele>609.041866</ele>
        <time>2021-11-22T09:08:04.538Z</time>
      </trkpt>
      <trkpt lat="47.698885" lon="7.779548">
        <ele>609.162210</ele>
        <time>2021-11-22T09:08:06.046Z</time>
      </trkpt>
      <trkpt lat="47.699125" lon="7.779997">
        <ele>609.763474</ele>
        <time>2021-11-22T09:08:13.537Z</time>
      </trkpt>
      <trkpt lat="47.699178" lon="7.780072">
        <ele>609.877512</ele>
        <time>2021-11-22T09:08:16.761Z</time>
      </trkpt>
      <trkpt lat="47.699303" lon="7.780284">
        <ele>610.173068</ele>
        <time>2021-11-22T09:08:20.922Z</time>
      </trkpt>
      <trkpt lat="47.699485" lon="7.780907">
        <ele>610.885251</ele>
        <time>2021-11-22T09:08:35.746Z</time>
      </trkpt>
      <trkpt lat="47.699567" lon="7.781770">
        <ele>612.560417</ele>
        <time>2021-11-22T09:08:55.364Z</time>
      </trkpt>
      <trkpt lat="47.699571" lon="7.781795">
        <ele>612.645312</ele>
        <time>2021-11-22T09:08:55.808Z</time>
      </trkpt>
      <trkpt lat="47.699595" lon="7.781921">
        <ele>613.077930</ele>
        <time>2021-11-22T09:08:58.505Z</time>
      </trkpt>
      <trkpt lat="47.699627" lon="7.782061">
        <ele>613.566395</ele>
        <time>2021-11-22T09:09:04.119Z</time>
      </trkpt>
      <trkpt lat="47.700372" lon="7.783081">
        <ele>618.539254</ele>
        <time>2021-11-22T09:09:43.853Z</time>
      </trkpt>
      <trkpt lat="47.700330" lon="7.783587">
        <ele>620.223572</ele>
        <time>2021-11-22T09:09:57.962Z</time>
      </trkpt>
      <trkpt lat="47.700262" lon="7.783863">
        <ele>621.412697</ele>
        <time>2021-11-22T09:10:10.058Z</time>
      </trkpt>
      <trkpt lat="47.700199" lon="7.784178">
        <ele>622.755690</ele>
        <time>2021-11-22T09:10:18.547Z</time>
      </trkpt>
      <trkpt lat="47.700180" lon="7.784393">
        <ele>623.641903</ele>
        <time>2021-11-22T09:10:26.207Z</time>
      </trkpt>
      <trkpt lat="47.700183" lon="7.784447">
        <ele>623.863342</ele>
        <time>2021-11-22T09:10:27.157Z</time>
      </trkpt>
      <trkpt lat="47.700199" lon="7.784739">
        <ele>625.060647</ele>
        <time>2021-11-22T09:10:35.750Z</time>
      </trkpt>
      <trkpt lat="47.700227" lon="7.784927">
        <ele>625.847561</ele>
        <time>2021-11-22T09:10:41.928Z</time>
      </trkpt>
      <trkpt lat="47.700237" lon="7.784995">
        <ele>626.132022</ele>
        <time>2021-11-22T09:10:43.047Z</time>
      </trkpt>
      <trkpt lat="47.700352" lon="7.784986">
        <ele>626.831325</ele>
        <time>2021-11-22T09:10:47.726Z</time>
      </trkpt>
      <trkpt lat="47.700744" lon="7.784880">
        <ele>629.250832</ele>
        <time>2021-11-22T09:11:05.524Z</time>
      </trkpt>
      <trkpt lat="47.700779" lon="7.784852">
        <ele>629.492215</ele>
        <time>2021-11-22T09:11:08.468Z</time>
      </trkpt>
      <trkpt lat="47.700812" lon="7.784743">
        <ele>629.980673</ele>
        <time>2021-11-22T09:11:13.645Z</time>
      </trkpt>
      <trkpt lat="47.700881" lon="7.784381">
        <ele>631.561846</ele>
        <time>2021-11-22T09:11:22.166Z</time>
      </trkpt>
      <trkpt lat="47.701216" lon="7.783890">
        <ele>634.806246</ele>
        <time>2021-11-22T09:11:44.260Z</time>
      </trkpt>
      <trkpt lat="47.701335" lon="7.783549">
        <ele>636.588649</ele>
        <time>2021-11-22T09:11:54.978Z</time>
      </trkpt>
      <trkpt lat="47.701368" lon="7.783411">
        <ele>637.268225</ele>
        <time>2021-11-22T09:12:01.911Z</time>
      </trkpt>
      <trkpt lat="47.701380" lon="7.783310">
        <ele>637.744137</ele>
        <time>2021-11-22T09:12:04.512Z</time>
      </trkpt>
      <trkpt lat="47.701377" lon="7.783226">
        <ele>638.134465</ele>
        <time>2021-11-22T09:12:06.629Z</time>
      </trkpt>
      <trkpt lat="47.701369" lon="7.782972">
        <ele>639.314376</ele>
        <time>2021-11-22T09:12:15.048Z</time>
      </trkpt>
      <trkpt lat="47.701237" lon="7.782362">
        <ele>642.287648</ele>
        <time>2021-11-22T09:12:35.051Z</time>
      </trkpt>
      <trkpt lat="47.701196" lon="7.780571">
        <ele>652.349667</ele>
        <time>2021-11-22T09:13:40.907Z</time>
      </trkpt>
      <trkpt lat="47.701247" lon="7.780305">
        <ele>653.953072</ele>
        <time>2021-11-22T09:13:49.543Z</time>
      </trkpt>
      <trkpt lat="47.701342" lon="7.780162">
        <ele>655.117929</ele>
        <time>2021-11-22T09:13:58.970Z</time>
      </trkpt>
      <trkpt lat="47.701637" lon="7.779988">
        <ele>657.851933</ele>
        <time>2021-11-22T09:14:16.208Z</time>
      </trkpt>
      <trkpt lat="47.701726" lon="7.779970">
        <ele>658.625645</ele>
        <time>2021-11-22T09:14:23.293Z</time>
      </trkpt>
      <trkpt lat="47.702101" lon="7.780072">
        <ele>662.018766</ele>
        <time>2021-11-22T09:14:44.320Z</time>
      </trkpt>
      <trkpt lat="47.702259" lon="7.780163">
        <ele>663.535002</ele>
        <time>2021-11-22T09:14:51.284Z</time>
      </trkpt>
      <trkpt lat="47.702323" lon="7.780178">
        <ele>664.114741</ele>
        <time>2021-11-22T09:14:55.660Z</time>
      </trkpt>
      <trkpt lat="47.702403" lon="7.780229">
        <ele>664.893662</ele>
        <time>2021-11-22T09:15:02.156Z</time>
      </trkpt>
      <trkpt lat="47.703200" lon="7.780360">
        <ele>672.068550</ele>
        <time>2021-11-22T09:15:47.522Z</time>
      </trkpt>
      <trkpt lat="47.703463" lon="7.780169">
        <ele>674.687838</ele>
        <time>2021-11-22T09:16:03.482Z</time>
      </trkpt>
      <trkpt lat="47.703606" lon="7.779919">
        <ele>676.766323</ele>
        <time>2021-11-22T09:16:14.313Z</time>
      </trkpt>
      <trkpt lat="47.703620" lon="7.779806">
        <ele>677.506303</ele>
        <time>2021-11-22T09:16:19.160Z</time>
      </trkpt>
      <trkpt lat="47.703537" lon="7.778998">
        <ele>682.770313</ele>
        <time>2021-11-22T09:16:47.864Z</time>
      </trkpt>
      <trkpt lat="47.703561" lon="7.778786">
        <ele>684.154834</ele>
        <time>2021-11-22T09:16:56.102Z</time>
      </trkpt>
      <trkpt lat="47.703633" lon="7.778652">
        <ele>685.259160</ele>
        <time>2021-11-22T09:17:02.959Z</time>
      </trkpt>
      <trkpt lat="47.703803" lon="7.778607">
        <ele>686.911667</ele>
        <time>2021-11-22T09:17:13.656Z</time>
      </trkpt>
      <trkpt lat="47.704882" lon="7.779266">
        <ele>697.305475</ele>
        <time>2021-11-22T09:18:29.995Z</time>
      </trkpt>
      <trkpt lat="47.705185" lon="7.779390">
        <ele>699.905031</ele>
        <time>2021-11-22T09:18:49.710Z</time>
      </trkpt>
      <trkpt lat="47.705483" lon="7.779457">
        <ele>702.397977</ele>
        <time>2021-11-22T09:19:07.361Z</time>
      </trkpt>
      <trkpt lat="47.705864" lon="7.779393">
        <ele>705.569472</ele>
        <time>2021-11-22T09:19:24.467Z</time>
      </trkpt>
      <trkpt lat="47.706167" lon="7.779414">
        <ele>706.965713</ele>
        <time>2021-11-22T09:19:35.889Z</time>
      </trkpt>
      <trkpt lat="47.706622" lon="7.779645">
        <ele>705.429253</ele>
        <time>2021-11-22T09:19:44.374Z</time>
      </trkpt>
      <trkpt lat="47.706835" lon="7.779679">
        <ele>704.744698</ele>
        <time>2021-11-22T09:19:49.494Z</time>
      </trkpt>
      <trkpt lat="47.707164" lon="7.779461">
        <ele>703.593606</ele>
        <time>2021-11-22T09:19:54.406Z</time>
      </trkpt>
      <trkpt lat="47.707188" lon="7.779421">
        <ele>703.478368</ele>
        <time>2021-11-22T09:19:54.857Z</time>
      </trkpt>
      <trkpt lat="47.707216" lon="7.779325">
        <ele>703.253382</ele>
        <time>2021-11-22T09:19:55.669Z</time>
      </trkpt>
      <trkpt lat="47.707375" lon="7.778429">
        <ele>700.945823</ele>
        <time>2021-11-22T09:20:03.761Z</time>
      </trkpt>
      <trkpt lat="47.707656" lon="7.777856">
        <ele>697.625168</ele>
        <time>2021-11-22T09:20:09.570Z</time>
      </trkpt>
      <trkpt lat="47.707959" lon="7.777497">
        <ele>694.928087</ele>
        <time>2021-11-22T09:20:14.349Z</time>
      </trkpt>
      <trkpt lat="47.708005" lon="7.777449">
        <ele>694.536887</ele>
        <time>2021-11-22T09:20:15.124Z</time>
      </trkpt>
      <trkpt lat="47.708316" lon="7.777132">
        <ele>691.912122</ele>
        <time>2021-11-22T09:20:20.112Z</time>
      </trkpt>
      <trkpt lat="47.708539" lon="7.776943">
        <ele>690.125389</ele>
        <time>2021-11-22T09:20:23.563Z</time>
      </trkpt>
      <trkpt lat="47.708637" lon="7.776787">
        <ele>689.125885</ele>
        <time>2021-11-22T09:20:25.556Z</time>
      </trkpt>
      <trkpt lat="47.708793" lon="7.776065">
        <ele>688.084953</ele>
        <time>2021-11-22T09:20:32.738Z</time>
      </trkpt>
      <trkpt lat="47.708969" lon="7.775711">
        <ele>687.530011</ele>
        <time>2021-11-22T09:20:37.510Z</time>
      </trkpt>
      <trkpt lat="47.709008" lon="7.775122">
        <ele>686.783803</ele>
        <time>2021-11-22T09:20:44.505Z</time>
      </trkpt>
      <trkpt lat="47.709105" lon="7.774951">
        <ele>686.501817</ele>
        <time>2021-11-22T09:20:47.319Z</time>
      </trkpt>
      <trkpt lat="47.709263" lon="7.774850">
        <ele>686.179544</ele>
        <time>2021-11-22T09:20:50.844Z</time>
      </trkpt>
      <trkpt lat="47.709477" lon="7.774812">
        <ele>685.775717</ele>
        <time>2021-11-22T09:20:55.395Z</time>
      </trkpt>
      <trkpt lat="47.709762" lon="7.774915">
        <ele>685.014088</ele>
        <time>2021-11-22T09:21:01.768Z</time>
      </trkpt>
      <trkpt lat="47.710099" lon="7.775135">
        <ele>683.970721</ele>
        <time>2021-11-22T09:21:07.539Z</time>
      </trkpt>
      <trkpt lat="47.710322" lon="7.775177">
        <ele>683.333546</ele>
        <time>2021-11-22T09:21:10.844Z</time>
      </trkpt>
      <trkpt lat="47.711031" lon="7.775005">
        <ele>681.297203</ele>
        <time>2021-11-22T09:21:21.232Z</time>
      </trkpt>
      <trkpt lat="47.711239" lon="7.774801">
        <ele>680.590788</ele>
        <time>2021-11-22T09:21:24.784Z</time>
      </trkpt>
      <trkpt lat="47.711283" lon="7.774725">
        <ele>680.240050</ele>
        <time>2021-11-22T09:21:25.612Z</time>
      </trkpt>
      <trkpt lat="47.711327" lon="7.774552">
        <ele>679.489993</ele>
        <time>2021-11-22T09:21:27.407Z</time>
      </trkpt>
      <trkpt lat="47.711333" lon="7.774466">
        <ele>679.139347</ele>
        <time>2021-11-22T09:21:28.151Z</time>
      </trkpt>
      <trkpt lat="47.711464" lon="7.774407">
        <ele>678.314316</ele>
        <time>2021-11-22T09:21:29.959Z</time>
      </trkpt>
      <trkpt lat="47.711930" lon="7.774081">
        <ele>675.210004</ele>
        <time>2021-11-22T09:21:36.728Z</time>
      </trkpt>
      <trkpt lat="47.712046" lon="7.774031">
        <ele>674.482031</ele>
        <time>2021-11-22T09:21:38.286Z</time>
      </trkpt>
      <trkpt lat="47.712168" lon="7.774078">
        <ele>673.722403</ele>
        <time>2021-11-22T09:21:39.857Z</time>
      </trkpt>
      <trkpt lat="47.712286" lon="7.774181">
        <ele>672.897592</ele>
        <time>2021-11-22T09:21:41.694Z</time>
      </trkpt>
      <trkpt lat="47.712376" lon="7.774269">
        <ele>672.248269</ele>
        <time>2021-11-22T09:21:43.043Z</time>
      </trkpt>
      <trkpt lat="47.712647" lon="7.774491">
        <ele>670.383193</ele>
        <time>2021-11-22T09:21:46.916Z</time>
      </trkpt>
      <trkpt lat="47.713430" lon="7.775192">
        <ele>667.872980</ele>
        <time>2021-11-22T09:21:59.252Z</time>
      </trkpt>
      <trkpt lat="47.713608" lon="7.775269">
        <ele>667.449946</ele>
        <time>2021-11-22T09:22:01.950Z</time>
      </trkpt>
      <trkpt lat="47.713668" lon="7.775286">
        <ele>667.310567</ele>
        <time>2021-11-22T09:22:02.735Z</time>
      </trkpt>
      <trkpt lat="47.713843" lon="7.775322">
        <ele>666.907427</ele>
        <time>2021-11-22T09:22:07.259Z</time>
      </trkpt>
      <trkpt lat="47.713932" lon="7.775337">
        <ele>666.703036</ele>
        <time>2021-11-22T09:22:08.701Z</time>
      </trkpt>
      <trkpt lat="47.713977" lon="7.775345">
        <ele>666.599618</ele>
        <time>2021-11-22T09:22:09.420Z</time>
      </trkpt>
      <trkpt lat="47.714158" lon="7.775376">
        <ele>666.183861</ele>
        <time>2021-11-22T09:22:14.751Z</time>
      </trkpt>
      <trkpt lat="47.714374" lon="7.775352">
        <ele>665.689595</ele>
        <time>2021-11-22T09:22:19.225Z</time>
      </trkpt>
      <trkpt lat="47.714479" lon="7.775293">
        <ele>666.083963</ele>
        <time>2021-11-22T09:22:24.363Z</time>
      </trkpt>
      <trkpt lat="47.714599" lon="7.775218">
        <ele>666.975901</ele>
        <time>2021-11-22T09:22:28.567Z</time>
      </trkpt>
      <trkpt lat="47.714709" lon="7.775124">
        <ele>667.845279</ele>
        <time>2021-11-22T09:22:31.564Z</time>
      </trkpt>
      <trkpt lat="47.714661" lon="7.774975">
        <ele>668.606837</ele>
        <time>2021-11-22T09:22:37.769Z</time>
      </trkpt>
      <trkpt lat="47.714572" lon="7.774613">
        <ele>670.383567</ele>
        <time>2021-11-22T09:22:46.872Z</time>
      </trkpt>
      <trkpt lat="47.714325" lon="7.773966">
        <ele>673.812900</ele>
        <time>2021-11-22T09:23:13.834Z</time>
      </trkpt>
      <trkpt lat="47.713713" lon="7.772531">
        <ele>681.846090</ele>
        <time>2021-11-22T09:24:23.449Z</time>
      </trkpt>
      <trkpt lat="47.713013" lon="7.771093">
        <ele>690.469444</ele>
        <time>2021-11-22T09:25:21.360Z</time>
      </trkpt>
      <trkpt lat="47.712784" lon="7.770624">
        <ele>690.636315</ele>
        <time>2021-11-22T09:25:32.215Z</time>
      </trkpt>
      <trkpt lat="47.712674" lon="7.770495">
        <ele>690.520853</ele>
        <time>2021-11-22T09:25:34.983Z</time>
      </trkpt>
      <trkpt lat="47.712515" lon="7.770367">
        <ele>690.371849</ele>
        <time>2021-11-22T09:25:39.498Z</time>
      </trkpt>
      <trkpt lat="47.712441" lon="7.770288">
        <ele>690.296771</ele>
        <time>2021-11-22T09:25:40.794Z</time>
      </trkpt>
      <trkpt lat="47.712373" lon="7.770214">
        <ele>690.227323</ele>
        <time>2021-11-22T09:25:42.493Z</time>
      </trkpt>
      <trkpt lat="47.712369" lon="7.770124">
        <ele>690.177315</ele>
        <time>2021-11-22T09:25:43.591Z</time>
      </trkpt>
      <trkpt lat="47.712377" lon="7.770047">
        <ele>690.134117</ele>
        <time>2021-11-22T09:25:44.868Z</time>
      </trkpt>
      <trkpt lat="47.712406" lon="7.769971">
        <ele>690.085675</ele>
        <time>2021-11-22T09:25:45.942Z</time>
      </trkpt>
      <trkpt lat="47.712317" lon="7.769895">
        <ele>690.001094</ele>
        <time>2021-11-22T09:25:46.916Z</time>
      </trkpt>
      <trkpt lat="47.711976" lon="7.769448">
        <ele>689.626424</ele>
        <time>2021-11-22T09:25:51.464Z</time>
      </trkpt>
      <trkpt lat="47.711641" lon="7.768676">
        <ele>688.748957</ele>
        <time>2021-11-22T09:25:57.446Z</time>
      </trkpt>
      <trkpt lat="47.711558" lon="7.768253">
        <ele>688.213023</ele>
        <time>2021-11-22T09:26:00.450Z</time>
      </trkpt>
      <trkpt lat="47.711522" lon="7.767707">
        <ele>687.545731</ele>
        <time>2021-11-22T09:26:04.402Z</time>
      </trkpt>
      <trkpt lat="47.711535" lon="7.767521">
        <ele>687.318279</ele>
        <time>2021-11-22T09:26:05.755Z</time>
      </trkpt>
      <trkpt lat="47.711594" lon="7.766979">
        <ele>686.650462</ele>
        <time>2021-11-22T09:26:10.956Z</time>
      </trkpt>
      <trkpt lat="47.711544" lon="7.766597">
        <ele>686.177118</ele>
        <time>2021-11-22T09:26:15.732Z</time>
      </trkpt>
      <trkpt lat="47.711280" lon="7.766040">
        <ele>687.561861</ele>
        <time>2021-11-22T09:26:24.113Z</time>
      </trkpt>
      <trkpt lat="47.710793" lon="7.765513">
        <ele>689.392091</ele>
        <time>2021-11-22T09:26:40.374Z</time>
      </trkpt>
      <trkpt lat="47.709779" lon="7.764609">
        <ele>693.108297</ele>
        <time>2021-11-22T09:27:20.721Z</time>
      </trkpt>
      <trkpt lat="47.709606" lon="7.764460">
        <ele>693.771636</ele>
        <time>2021-11-22T09:27:27.334Z</time>
      </trkpt>
      <trkpt lat="47.709431" lon="7.764294">
        <ele>694.460377</ele>
        <time>2021-11-22T09:27:33.053Z</time>
      </trkpt>
      <trkpt lat="47.709325" lon="7.764019">
        <ele>695.167845</ele>
        <time>2021-11-22T09:27:39.393Z</time>
      </trkpt>
      <trkpt lat="47.709385" lon="7.763694">
        <ele>695.920154</ele>
        <time>2021-11-22T09:27:44.358Z</time>
      </trkpt>
      <trkpt lat="47.709432" lon="7.763572">
        <ele>696.233971</ele>
        <time>2021-11-22T09:27:48.088Z</time>
      </trkpt>
      <trkpt lat="47.709462" lon="7.763486">
        <ele>696.450213</ele>
        <time>2021-11-22T09:27:49.160Z</time>
      </trkpt>
      <trkpt lat="47.709753" lon="7.762866">
        <ele>697.733576</ele>
        <time>2021-11-22T09:27:59.453Z</time>
      </trkpt>
      <trkpt lat="47.710158" lon="7.762372">
        <ele>698.151711</ele>
        <time>2021-11-22T09:28:11.664Z</time>
      </trkpt>
      <trkpt lat="47.710244" lon="7.762179">
        <ele>698.276016</ele>
        <time>2021-11-22T09:28:13.269Z</time>
      </trkpt>
      <trkpt lat="47.710263" lon="7.762018">
        <ele>698.363791</ele>
        <time>2021-11-22T09:28:15.552Z</time>
      </trkpt>
      <trkpt lat="47.710195" lon="7.761616">
        <ele>698.586379</ele>
        <time>2021-11-22T09:28:19.452Z</time>
      </trkpt>
      <trkpt lat="47.710335" lon="7.761409">
        <ele>698.743983</ele>
        <time>2021-11-22T09:28:22.808Z</time>
      </trkpt>
      <trkpt lat="47.710427" lon="7.761335">
        <ele>698.827468</ele>
        <time>2021-11-22T09:28:24.007Z</time>
      </trkpt>
      <trkpt lat="47.710553" lon="7.761250">
        <ele>698.937897</ele>
        <time>2021-11-22T09:28:26.679Z</time>
      </trkpt>
      <trkpt lat="47.710690" lon="7.761172">
        <ele>699.071772</ele>
        <time>2021-11-22T09:28:29.425Z</time>
      </trkpt>
      <trkpt lat="47.711202" lon="7.760857">
        <ele>700.044862</ele>
        <time>2021-11-22T09:28:40.278Z</time>
      </trkpt>
      <trkpt lat="47.711645" lon="7.760532">
        <ele>700.912408</ele>
        <time>2021-11-22T09:28:51.025Z</time>
      </trkpt>
      <trkpt lat="47.711708" lon="7.760492">
        <ele>701.032712</ele>
        <time>2021-11-22T09:28:52.618Z</time>
      </trkpt>
      <trkpt lat="47.712488" lon="7.760312">
        <ele>701.947981</ele>
        <time>2021-11-22T09:29:13.816Z</time>
      </trkpt>
      <trkpt lat="47.712549" lon="7.760281">
        <ele>701.818183</ele>
        <time>2021-11-22T09:29:15.807Z</time>
      </trkpt>
      <trkpt lat="47.712622" lon="7.760244">
        <ele>701.662893</ele>
        <time>2021-11-22T09:29:16.814Z</time>
      </trkpt>
      <trkpt lat="47.712905" lon="7.760024">
        <ele>701.019865</ele>
        <time>2021-11-22T09:29:23.304Z</time>
      </trkpt>
      <trkpt lat="47.712940" lon="7.760005">
        <ele>700.944843</ele>
        <time>2021-11-22T09:29:23.655Z</time>
      </trkpt>
      <trkpt lat="47.713023" lon="7.759961">
        <ele>700.767419</ele>
        <time>2021-11-22T09:29:24.612Z</time>
      </trkpt>
      <trkpt lat="47.713181" lon="7.759935">
        <ele>700.447359</ele>
        <time>2021-11-22T09:29:27.446Z</time>
      </trkpt>
      <trkpt lat="47.713444" lon="7.759983">
        <ele>699.913859</ele>
        <time>2021-11-22T09:29:30.153Z</time>
      </trkpt>
      <trkpt lat="47.713621" lon="7.759971">
        <ele>699.557119</ele>
        <time>2021-11-22T09:29:32.156Z</time>
      </trkpt>
      <trkpt lat="47.713814" lon="7.759841">
        <ele>699.130490</ele>
        <time>2021-11-22T09:29:34.037Z</time>
      </trkpt>
      <trkpt lat="47.714188" lon="7.759554">
        <ele>697.471039</ele>
        <time>2021-11-22T09:29:37.867Z</time>
      </trkpt>
      <trkpt lat="47.714441" lon="7.759374">
        <ele>695.352229</ele>
        <time>2021-11-22T09:29:40.356Z</time>
      </trkpt>
      <trkpt lat="47.714548" lon="7.759271">
        <ele>694.389247</ele>
        <time>2021-11-22T09:29:41.526Z</time>
      </trkpt>
      <trkpt lat="47.714639" lon="7.759072">
        <ele>693.166358</ele>
        <time>2021-11-22T09:29:42.993Z</time>
      </trkpt>
      <trkpt lat="47.714734" lon="7.758591">
        <ele>690.618563</ele>
        <time>2021-11-22T09:29:46.003Z</time>
      </trkpt>
      <trkpt lat="47.714751" lon="7.758508">
        <ele>690.177609</ele>
        <time>2021-11-22T09:29:46.485Z</time>
      </trkpt>
      <trkpt lat="47.714788" lon="7.758325">
        <ele>689.206441</ele>
        <time>2021-11-22T09:29:47.609Z</time>
      </trkpt>
      <trkpt lat="47.714875" lon="7.757966">
        <ele>687.267111</ele>
        <time>2021-11-22T09:29:49.858Z</time>
      </trkpt>
      <trkpt lat="47.715134" lon="7.757431">
        <ele>684.254465</ele>
        <time>2021-11-22T09:29:53.742Z</time>
      </trkpt>
      <trkpt lat="47.715558" lon="7.756715">
        <ele>680.928427</ele>
        <time>2021-11-22T09:29:59.631Z</time>
      </trkpt>
      <trkpt lat="47.715558" lon="7.756714">
        <ele>680.924940</ele>
        <time>2021-11-22T09:29:59.640Z</time>
      </trkpt>
      <trkpt lat="47.715814" lon="7.756441">
        <ele>679.291975</ele>
        <time>2021-11-22T09:30:02.820Z</time>
      </trkpt>
      <trkpt lat="47.716056" lon="7.756240">
        <ele>677.855200</ele>
        <time>2021-11-22T09:30:05.749Z</time>
      </trkpt>
      <trkpt lat="47.716156" lon="7.756169">
        <ele>677.280828</ele>
        <time>2021-11-22T09:30:06.953Z</time>
      </trkpt>
      <trkpt lat="47.716605" lon="7.755979">
        <ele>674.865889</ele>
        <time>2021-11-22T09:30:11.342Z</time>
      </trkpt>
      <trkpt lat="47.717361" lon="7.755430">
        <ele>670.529859</ele>
        <time>2021-11-22T09:30:19.470Z</time>
      </trkpt>
      <trkpt lat="47.717436" lon="7.755274">
        <ele>669.865091</ele>
        <time>2021-11-22T09:30:20.783Z</time>
      </trkpt>
      <trkpt lat="47.717428" lon="7.755242">
        <ele>669.746733</ele>
        <time>2021-11-22T09:30:20.974Z</time>
      </trkpt>
      <trkpt lat="47.717424" lon="7.755224">
        <ele>669.681009</ele>
        <time>2021-11-22T09:30:21.078Z</time>
      </trkpt>
      <trkpt lat="47.717292" lon="7.755166">
        <ele>668.971671</ele>
        <time>2021-11-22T09:30:22.440Z</time>
      </trkpt>
      <trkpt lat="47.716511" lon="7.755625">
        <ele>664.260431</ele>
        <time>2021-11-22T09:30:30.060Z</time>
      </trkpt>
      <trkpt lat="47.715960" lon="7.755756">
        <ele>660.757454</ele>
        <time>2021-11-22T09:30:34.964Z</time>
      </trkpt>
      <trkpt lat="47.715445" lon="7.755865">
        <ele>657.491833</ele>
        <time>2021-11-22T09:30:39.788Z</time>
      </trkpt>
      <trkpt lat="47.715339" lon="7.755887">
        <ele>656.819942</ele>
        <time>2021-11-22T09:30:40.740Z</time>
      </trkpt>
      <trkpt lat="47.715009" lon="7.755979">
        <ele>654.786661</ele>
        <time>2021-11-22T09:30:44.104Z</time>
      </trkpt>
      <trkpt lat="47.714232" lon="7.755990">
        <ele>650.823856</ele>
        <time>2021-11-22T09:30:51.486Z</time>
      </trkpt>
      <trkpt lat="47.714158" lon="7.756030">
        <ele>650.422278</ele>
        <time>2021-11-22T09:30:52.218Z</time>
      </trkpt>
      <trkpt lat="47.714103" lon="7.756097">
        <ele>650.059605</ele>
        <time>2021-11-22T09:30:55.010Z</time>
      </trkpt>
      <trkpt lat="47.713944" lon="7.756392">
        <ele>648.762610</ele>
        <time>2021-11-22T09:30:57.257Z</time>
      </trkpt>
      <trkpt lat="47.713857" lon="7.756496">
        <ele>648.193212</ele>
        <time>2021-11-22T09:30:59.114Z</time>
      </trkpt>
      <trkpt lat="47.713811" lon="7.756520">
        <ele>647.944581</ele>
        <time>2021-11-22T09:30:59.614Z</time>
      </trkpt>
      <trkpt lat="47.713737" lon="7.756527">
        <ele>647.566424</ele>
        <time>2021-11-22T09:31:00.353Z</time>
      </trkpt>
      <trkpt lat="47.713689" lon="7.756505">
        <ele>647.310253</ele>
        <time>2021-11-22T09:31:00.766Z</time>
      </trkpt>
      <trkpt lat="47.713510" lon="7.756211">
        <ele>645.949702</ele>
        <time>2021-11-22T09:31:03.278Z</time>
      </trkpt>
      <trkpt lat="47.713197" lon="7.755119">
        <ele>638.868203</ele>
        <time>2021-11-22T09:31:10.315Z</time>
      </trkpt>
      <trkpt lat="47.713144" lon="7.754922">
        <ele>637.600627</ele>
        <time>2021-11-22T09:31:11.546Z</time>
      </trkpt>
      <trkpt lat="47.713125" lon="7.754853">
        <ele>637.155200</ele>
        <time>2021-11-22T09:31:12.022Z</time>
      </trkpt>
      <trkpt lat="47.713049" lon="7.754578">
        <ele>635.379017</ele>
        <time>2021-11-22T09:31:13.711Z</time>
      </trkpt>
      <trkpt lat="47.713010" lon="7.754423">
        <ele>634.390335</ele>
        <time>2021-11-22T09:31:14.669Z</time>
      </trkpt>
      <trkpt lat="47.712975" lon="7.754237">
        <ele>633.236435</ele>
        <time>2021-11-22T09:31:15.805Z</time>
      </trkpt>
      <trkpt lat="47.713035" lon="7.754227">
        <ele>632.700327</ele>
        <time>2021-11-22T09:31:16.310Z</time>
      </trkpt>
      <trkpt lat="47.713174" lon="7.754145">
        <ele>631.372403</ele>
        <time>2021-11-22T09:31:17.593Z</time>
      </trkpt>
      <trkpt lat="47.713273" lon="7.753976">
        <ele>630.033659</ele>
        <time>2021-11-22T09:31:18.910Z</time>
      </trkpt>
      <trkpt lat="47.713332" lon="7.753684">
        <ele>628.592322</ele>
        <time>2021-11-22T09:31:20.657Z</time>
      </trkpt>
      <trkpt lat="47.713300" lon="7.753437">
        <ele>627.415416</ele>
        <time>2021-11-22T09:31:22.137Z</time>
      </trkpt>
      <trkpt lat="47.713252" lon="7.753276">
        <ele>626.591481</ele>
        <time>2021-11-22T09:31:23.141Z</time>
      </trkpt>
      <trkpt lat="47.713133" lon="7.753109">
        <ele>625.453361</ele>
        <time>2021-11-22T09:31:24.569Z</time>
      </trkpt>
      <trkpt lat="47.712243" lon="7.751902">
        <ele>617.379750</ele>
        <time>2021-11-22T09:31:35.729Z</time>
      </trkpt>
      <trkpt lat="47.711957" lon="7.751267">
        <ele>616.651607</ele>
        <time>2021-11-22T09:31:40.959Z</time>
      </trkpt>
      <trkpt lat="47.711877" lon="7.750823">
        <ele>616.213609</ele>
        <time>2021-11-22T09:31:44.514Z</time>
      </trkpt>
      <trkpt lat="47.711861" lon="7.750347">
        <ele>615.759460</ele>
        <time>2021-11-22T09:31:48.556Z</time>
      </trkpt>
      <trkpt lat="47.712019" lon="7.749747">
        <ele>615.145489</ele>
        <time>2021-11-22T09:31:55.579Z</time>
      </trkpt>
      <trkpt lat="47.712024" lon="7.749516">
        <ele>614.925254</ele>
        <time>2021-11-22T09:31:58.518Z</time>
      </trkpt>
      <trkpt lat="47.711962" lon="7.749312">
        <ele>615.603307</ele>
        <time>2021-11-22T09:32:01.521Z</time>
      </trkpt>
      <trkpt lat="47.711469" lon="7.748703">
        <ele>618.772554</ele>
        <time>2021-11-22T09:32:16.688Z</time>
      </trkpt>
      <trkpt lat="47.711347" lon="7.748400">
        <ele>619.947149</ele>
        <time>2021-11-22T09:32:28.097Z</time>
      </trkpt>
      <trkpt lat="47.711275" lon="7.747957">
        <ele>621.463156</ele>
        <time>2021-11-22T09:32:41.231Z</time>
      </trkpt>
      <trkpt lat="47.711325" lon="7.747143">
        <ele>624.311482</ele>
        <time>2021-11-22T09:33:04.798Z</time>
      </trkpt>
      <trkpt lat="47.711442" lon="7.746911">
        <ele>625.604379</ele>
        <time>2021-11-22T09:33:15.463Z</time>
      </trkpt>
      <trkpt lat="47.711581" lon="7.746785">
        <ele>626.683419</ele>
        <time>2021-11-22T09:33:20.789Z</time>
      </trkpt>
      <trkpt lat="47.711701" lon="7.746731">
        <ele>627.514362</ele>
        <time>2021-11-22T09:33:27.796Z</time>
      </trkpt>
      <trkpt lat="47.711798" lon="7.746687">
        <ele>628.186496</ele>
        <time>2021-11-22T09:33:32.998Z</time>
      </trkpt>
      <trkpt lat="47.712033" lon="7.746420">
        <ele>630.146907</ele>
        <time>2021-11-22T09:33:44.642Z</time>
      </trkpt>
      <trkpt lat="47.712066" lon="7.746300">
        <ele>630.724989</ele>
        <time>2021-11-22T09:33:49.043Z</time>
      </trkpt>
      <trkpt lat="47.712066" lon="7.746300">
        <ele>630.724989</ele>
        <time>2021-11-22T09:33:49.450Z</time>
      </trkpt>
      <trkpt lat="47.712066" lon="7.746300">
        <ele>630.724989</ele>
        <time>2021-11-22T09:33:49.606Z</time>
      </trkpt>
      <trkpt lat="47.712081" lon="7.746187">
        <ele>631.238601</ele>
        <time>2021-11-22T09:33:51.016Z</time>
      </trkpt>
      <trkpt lat="47.712071" lon="7.746107">
        <ele>631.601447</ele>
        <time>2021-11-22T09:33:53.368Z</time>
      </trkpt>
      <trkpt lat="47.712035" lon="7.745837">
        <ele>632.828866</ele>
        <time>2021-11-22T09:34:03.516Z</time>
      </trkpt>
      <trkpt lat="47.711852" lon="7.745238">
        <ele>635.724227</ele>
        <time>2021-11-22T09:34:20.512Z</time>
      </trkpt>
      <trkpt lat="47.711822" lon="7.744939">
        <ele>635.774179</ele>
        <time>2021-11-22T09:34:27.807Z</time>
      </trkpt>
      <trkpt lat="47.711873" lon="7.744436">
        <ele>635.858231</ele>
        <time>2021-11-22T09:34:35.827Z</time>
      </trkpt>
      <trkpt lat="47.711971" lon="7.744137">
        <ele>635.913187</ele>
        <time>2021-11-22T09:34:39.951Z</time>
      </trkpt>
      <trkpt lat="47.712028" lon="7.743968">
        <ele>635.944423</ele>
        <time>2021-11-22T09:34:41.587Z</time>
      </trkpt>
      <trkpt lat="47.712110" lon="7.743827">
        <ele>635.975218</ele>
        <time>2021-11-22T09:34:43.078Z</time>
      </trkpt>
      <trkpt lat="47.712169" lon="7.743670">
        <ele>636.004932</ele>
        <time>2021-11-22T09:34:44.648Z</time>
      </trkpt>
      <trkpt lat="47.712226" lon="7.743480">
        <ele>636.039306</ele>
        <time>2021-11-22T09:34:46.150Z</time>
      </trkpt>
      <trkpt lat="47.712234" lon="7.743054">
        <ele>636.109724</ele>
        <time>2021-11-22T09:34:49.289Z</time>
      </trkpt>
      <trkpt lat="47.712095" lon="7.741898">
        <ele>633.250624</ele>
        <time>2021-11-22T09:34:57.077Z</time>
      </trkpt>
      <trkpt lat="47.712099" lon="7.741769">
        <ele>632.804299</ele>
        <time>2021-11-22T09:34:57.904Z</time>
      </trkpt>
      <trkpt lat="47.712276" lon="7.741206">
        <ele>630.656529</ele>
        <time>2021-11-22T09:35:01.721Z</time>
      </trkpt>
      <trkpt lat="47.712263" lon="7.741077">
        <ele>630.205706</ele>
        <time>2021-11-22T09:35:02.521Z</time>
      </trkpt>
      <trkpt lat="47.712041" lon="7.740608">
        <ele>628.223821</ele>
        <time>2021-11-22T09:35:05.989Z</time>
      </trkpt>
      <trkpt lat="47.711793" lon="7.740467">
        <ele>626.883370</ele>
        <time>2021-11-22T09:35:08.469Z</time>
      </trkpt>
      <trkpt lat="47.711648" lon="7.740303">
        <ele>626.282204</ele>
        <time>2021-11-22T09:35:10.121Z</time>
      </trkpt>
      <trkpt lat="47.711525" lon="7.739752">
        <ele>624.993464</ele>
        <time>2021-11-22T09:35:13.858Z</time>
      </trkpt>
      <trkpt lat="47.711539" lon="7.739041">
        <ele>623.414416</ele>
        <time>2021-11-22T09:35:18.865Z</time>
      </trkpt>
      <trkpt lat="47.711566" lon="7.738770">
        <ele>622.806255</ele>
        <time>2021-11-22T09:35:20.693Z</time>
      </trkpt>
      <trkpt lat="47.711609" lon="7.738609">
        <ele>622.421720</ele>
        <time>2021-11-22T09:35:22.360Z</time>
      </trkpt>
      <trkpt lat="47.711805" lon="7.738262">
        <ele>621.415967</ele>
        <time>2021-11-22T09:35:25.677Z</time>
      </trkpt>
      <trkpt lat="47.712165" lon="7.738000">
        <ele>621.173482</ele>
        <time>2021-11-22T09:35:30.279Z</time>
      </trkpt>
      <trkpt lat="47.712359" lon="7.737862">
        <ele>621.317409</ele>
        <time>2021-11-22T09:35:32.785Z</time>
      </trkpt>
      <trkpt lat="47.712601" lon="7.737679">
        <ele>621.499111</ele>
        <time>2021-11-22T09:35:36.310Z</time>
      </trkpt>
      <trkpt lat="47.713052" lon="7.737270">
        <ele>621.852665</ele>
        <time>2021-11-22T09:35:47.378Z</time>
      </trkpt>
      <trkpt lat="47.713108" lon="7.737149">
        <ele>621.918791</ele>
        <time>2021-11-22T09:35:48.595Z</time>
      </trkpt>
      <trkpt lat="47.713133" lon="7.737073">
        <ele>621.956881</ele>
        <time>2021-11-22T09:35:49.871Z</time>
      </trkpt>
      <trkpt lat="47.713172" lon="7.736933">
        <ele>622.025107</ele>
        <time>2021-11-22T09:35:52.740Z</time>
      </trkpt>
      <trkpt lat="47.713202" lon="7.736801">
        <ele>622.087840</ele>
        <time>2021-11-22T09:35:55.373Z</time>
      </trkpt>
      <trkpt lat="47.713224" lon="7.736631">
        <ele>622.165788</ele>
        <time>2021-11-22T09:35:58.065Z</time>
      </trkpt>
      <trkpt lat="47.713223" lon="7.736523">
        <ele>622.354248</ele>
        <time>2021-11-22T09:36:00.576Z</time>
      </trkpt>
      <trkpt lat="47.713208" lon="7.736384">
        <ele>622.874012</ele>
        <time>2021-11-22T09:36:03.954Z</time>
      </trkpt>
      <trkpt lat="47.713169" lon="7.736257">
        <ele>623.389439</ele>
        <time>2021-11-22T09:36:06.175Z</time>
      </trkpt>
      <trkpt lat="47.713114" lon="7.736149">
        <ele>623.889526</ele>
        <time>2021-11-22T09:36:08.215Z</time>
      </trkpt>
      <trkpt lat="47.713057" lon="7.736076">
        <ele>624.302412</ele>
        <time>2021-11-22T09:36:10.412Z</time>
      </trkpt>
      <trkpt lat="47.713013" lon="7.736030">
        <ele>624.597607</ele>
        <time>2021-11-22T09:36:12.105Z</time>
      </trkpt>
      <trkpt lat="47.712962" lon="7.735999">
        <ele>624.899963</ele>
        <time>2021-11-22T09:36:13.734Z</time>
      </trkpt>
      <trkpt lat="47.712947" lon="7.735993">
        <ele>624.985202</ele>
        <time>2021-11-22T09:36:14.194Z</time>
      </trkpt>
      <trkpt lat="47.712880" lon="7.735969">
        <ele>625.363382</ele>
        <time>2021-11-22T09:36:15.952Z</time>
      </trkpt>
      <trkpt lat="47.712772" lon="7.735948">
        <ele>625.961067</ele>
        <time>2021-11-22T09:36:18.874Z</time>
      </trkpt>
      <trkpt lat="47.712673" lon="7.735923">
        <ele>626.512101</ele>
        <time>2021-11-22T09:36:22.861Z</time>
      </trkpt>
      <trkpt lat="47.712551" lon="7.735910">
        <ele>627.183276</ele>
        <time>2021-11-22T09:36:27.934Z</time>
      </trkpt>
      <trkpt lat="47.712252" lon="7.735529">
        <ele>629.344483</ele>
        <time>2021-11-22T09:36:42.819Z</time>
      </trkpt>
      <trkpt lat="47.712203" lon="7.735383">
        <ele>629.946880</ele>
        <time>2021-11-22T09:36:47.433Z</time>
      </trkpt>
      <trkpt lat="47.712174" lon="7.735231">
        <ele>630.530219</ele>
        <time>2021-11-22T09:36:52.089Z</time>
      </trkpt>
      <trkpt lat="47.712174" lon="7.734296">
        <ele>634.360954</ele>
        <time>2021-11-22T09:37:23.877Z</time>
      </trkpt>
      <trkpt lat="47.712151" lon="7.734114">
        <ele>635.179648</ele>
        <time>2021-11-22T09:37:29.629Z</time>
      </trkpt>
      <trkpt lat="47.712102" lon="7.733873">
        <ele>636.292695</ele>
        <time>2021-11-22T09:37:38.350Z</time>
      </trkpt>
      <trkpt lat="47.711977" lon="7.733539">
        <ele>637.982364</ele>
        <time>2021-11-22T09:37:48.462Z</time>
      </trkpt>
      <trkpt lat="47.711711" lon="7.733127">
        <ele>640.506731</ele>
        <time>2021-11-22T09:38:04.741Z</time>
      </trkpt>
      <trkpt lat="47.711652" lon="7.733077">
        <ele>640.952989</ele>
        <time>2021-11-22T09:38:08.214Z</time>
      </trkpt>
      <trkpt lat="47.711611" lon="7.733042">
        <ele>641.263658</ele>
        <time>2021-11-22T09:38:10.188Z</time>
      </trkpt>
      <trkpt lat="47.711298" lon="7.732899">
        <ele>643.415217</ele>
        <time>2021-11-22T09:38:21.192Z</time>
      </trkpt>
      <trkpt lat="47.711044" lon="7.732866">
        <ele>644.013353</ele>
        <time>2021-11-22T09:38:28.457Z</time>
      </trkpt>
      <trkpt lat="47.710807" lon="7.732930">
        <ele>644.184406</ele>
        <time>2021-11-22T09:38:35.416Z</time>
      </trkpt>
      <trkpt lat="47.710478" lon="7.733019">
        <ele>644.421872</ele>
        <time>2021-11-22T09:38:42.035Z</time>
      </trkpt>
      <trkpt lat="47.710237" lon="7.733085">
        <ele>644.595890</ele>
        <time>2021-11-22T09:38:46.322Z</time>
      </trkpt>
      <trkpt lat="47.709935" lon="7.733084">
        <ele>644.810345</ele>
        <time>2021-11-22T09:38:50.163Z</time>
      </trkpt>
      <trkpt lat="47.709791" lon="7.733051">
        <ele>644.913810</ele>
        <time>2021-11-22T09:38:51.820Z</time>
      </trkpt>
      <trkpt lat="47.709626" lon="7.732996">
        <ele>645.033889</ele>
        <time>2021-11-22T09:38:53.786Z</time>
      </trkpt>
      <trkpt lat="47.709574" lon="7.732972">
        <ele>645.072555</ele>
        <time>2021-11-22T09:38:54.332Z</time>
      </trkpt>
      <trkpt lat="47.709347" lon="7.732871">
        <ele>644.813530</ele>
        <time>2021-11-22T09:38:56.992Z</time>
      </trkpt>
      <trkpt lat="47.709246" lon="7.732791">
        <ele>644.464726</ele>
        <time>2021-11-22T09:38:58.142Z</time>
      </trkpt>
      <trkpt lat="47.708874" lon="7.732423">
        <ele>643.102787</ele>
        <time>2021-11-22T09:39:02.780Z</time>
      </trkpt>
      <trkpt lat="47.708509" lon="7.731781">
        <ele>641.379175</ele>
        <time>2021-11-22T09:39:08.478Z</time>
      </trkpt>
      <trkpt lat="47.708321" lon="7.731223">
        <ele>640.099415</ele>
        <time>2021-11-22T09:39:12.631Z</time>
      </trkpt>
      <trkpt lat="47.708114" lon="7.730237">
        <ele>637.316790</ele>
        <time>2021-11-22T09:39:19.570Z</time>
      </trkpt>
      <trkpt lat="47.707948" lon="7.729868">
        <ele>636.050159</ele>
        <time>2021-11-22T09:39:22.485Z</time>
      </trkpt>
      <trkpt lat="47.707702" lon="7.729588">
        <ele>634.736100</ele>
        <time>2021-11-22T09:39:25.483Z</time>
      </trkpt>
      <trkpt lat="47.707660" lon="7.729541">
        <ele>634.513138</ele>
        <time>2021-11-22T09:39:25.972Z</time>
      </trkpt>
      <trkpt lat="47.707590" lon="7.729507">
        <ele>634.200832</ele>
        <time>2021-11-22T09:39:26.668Z</time>
      </trkpt>
      <trkpt lat="47.707344" lon="7.729389">
        <ele>633.104609</ele>
        <time>2021-11-22T09:39:29.165Z</time>
      </trkpt>
      <trkpt lat="47.707220" lon="7.729364">
        <ele>632.573939</ele>
        <time>2021-11-22T09:39:30.330Z</time>
      </trkpt>
      <trkpt lat="47.706729" lon="7.729305">
        <ele>630.155498</ele>
        <time>2021-11-22T09:39:34.964Z</time>
      </trkpt>
      <trkpt lat="47.705737" lon="7.728863">
        <ele>624.839680</ele>
        <time>2021-11-22T09:39:44.564Z</time>
      </trkpt>
      <trkpt lat="47.705338" lon="7.728853">
        <ele>622.809402</ele>
        <time>2021-11-22T09:39:48.310Z</time>
      </trkpt>
      <trkpt lat="47.704886" lon="7.728972">
        <ele>622.017510</ele>
        <time>2021-11-22T09:39:52.797Z</time>
      </trkpt>
      <trkpt lat="47.704467" lon="7.728924">
        <ele>621.292544</ele>
        <time>2021-11-22T09:39:57.222Z</time>
      </trkpt>
      <trkpt lat="47.704085" lon="7.728564">
        <ele>620.512200</ele>
        <time>2021-11-22T09:40:02.623Z</time>
      </trkpt>
      <trkpt lat="47.703923" lon="7.728090">
        <ele>619.895019</ele>
        <time>2021-11-22T09:40:08.474Z</time>
      </trkpt>
      <trkpt lat="47.704080" lon="7.725145">
        <ele>622.213733</ele>
        <time>2021-11-22T09:40:54.841Z</time>
      </trkpt>
      <trkpt lat="47.704053" lon="7.724985">
        <ele>621.840569</ele>
        <time>2021-11-22T09:40:56.478Z</time>
      </trkpt>
      <trkpt lat="47.703993" lon="7.724909">
        <ele>621.575539</ele>
        <time>2021-11-22T09:40:57.517Z</time>
      </trkpt>
      <trkpt lat="47.703592" lon="7.725045">
        <ele>620.192867</ele>
        <time>2021-11-22T09:41:02.103Z</time>
      </trkpt>
      <trkpt lat="47.703418" lon="7.725274">
        <ele>619.411513</ele>
        <time>2021-11-22T09:41:04.428Z</time>
      </trkpt>
      <trkpt lat="47.703297" lon="7.725540">
        <ele>618.685175</ele>
        <time>2021-11-22T09:41:06.502Z</time>
      </trkpt>
      <trkpt lat="47.703096" lon="7.725772">
        <ele>617.829597</ele>
        <time>2021-11-22T09:41:08.883Z</time>
      </trkpt>
      <trkpt lat="47.702697" lon="7.726079">
        <ele>616.201422</ele>
        <time>2021-11-22T09:41:12.931Z</time>
      </trkpt>
      <trkpt lat="47.702553" lon="7.726116">
        <ele>615.283515</ele>
        <time>2021-11-22T09:41:14.244Z</time>
      </trkpt>
      <trkpt lat="47.702421" lon="7.726114">
        <ele>614.454361</ele>
        <time>2021-11-22T09:41:15.428Z</time>
      </trkpt>
      <trkpt lat="47.702266" lon="7.726004">
        <ele>613.375445</ele>
        <time>2021-11-22T09:41:16.961Z</time>
      </trkpt>
      <trkpt lat="47.702038" lon="7.725647">
        <ele>611.295005</ele>
        <time>2021-11-22T09:41:19.924Z</time>
      </trkpt>
      <trkpt lat="47.701948" lon="7.725368">
        <ele>609.987153</ele>
        <time>2021-11-22T09:41:21.806Z</time>
      </trkpt>
      <trkpt lat="47.701896" lon="7.725076">
        <ele>608.710347</ele>
        <time>2021-11-22T09:41:23.640Z</time>
      </trkpt>
      <trkpt lat="47.701916" lon="7.724727">
        <ele>607.229739</ele>
        <time>2021-11-22T09:41:25.793Z</time>
      </trkpt>
      <trkpt lat="47.702252" lon="7.722887">
        <ele>601.060479</ele>
        <time>2021-11-22T09:41:38.056Z</time>
      </trkpt>
      <trkpt lat="47.702347" lon="7.722672">
        <ele>600.316484</ele>
        <time>2021-11-22T09:41:39.777Z</time>
      </trkpt>
      <trkpt lat="47.702491" lon="7.722501">
        <ele>599.524160</ele>
        <time>2021-11-22T09:41:41.657Z</time>
      </trkpt>
      <trkpt lat="47.702999" lon="7.722133">
        <ele>597.018049</ele>
        <time>2021-11-22T09:41:47.257Z</time>
      </trkpt>
      <trkpt lat="47.703093" lon="7.721736">
        <ele>595.517876</ele>
        <time>2021-11-22T09:41:49.980Z</time>
      </trkpt>
      <trkpt lat="47.703055" lon="7.721519">
        <ele>594.718603</ele>
        <time>2021-11-22T09:41:51.410Z</time>
      </trkpt>
      <trkpt lat="47.702804" lon="7.720859">
        <ele>592.016306</ele>
        <time>2021-11-22T09:41:56.148Z</time>
      </trkpt>
      <trkpt lat="47.702739" lon="7.720438">
        <ele>590.476622</ele>
        <time>2021-11-22T09:41:58.822Z</time>
      </trkpt>
      <trkpt lat="47.702742" lon="7.719843">
        <ele>588.355623</ele>
        <time>2021-11-22T09:42:02.498Z</time>
      </trkpt>
      <trkpt lat="47.702939" lon="7.718746">
        <ele>583.706297</ele>
        <time>2021-11-22T09:42:09.474Z</time>
      </trkpt>
      <trkpt lat="47.702937" lon="7.718550">
        <ele>582.890383</ele>
        <time>2021-11-22T09:42:10.683Z</time>
      </trkpt>
      <trkpt lat="47.702652" lon="7.717592">
        <ele>578.530604</ele>
        <time>2021-11-22T09:42:17.083Z</time>
      </trkpt>
      <trkpt lat="47.702623" lon="7.717313">
        <ele>577.355532</ele>
        <time>2021-11-22T09:42:18.831Z</time>
      </trkpt>
      <trkpt lat="47.702623" lon="7.717205">
        <ele>576.905996</ele>
        <time>2021-11-22T09:42:19.480Z</time>
      </trkpt>
      <trkpt lat="47.702622" lon="7.716942">
        <ele>576.196456</ele>
        <time>2021-11-22T09:42:21.141Z</time>
      </trkpt>
      <trkpt lat="47.702621" lon="7.716562">
        <ele>575.247233</ele>
        <time>2021-11-22T09:42:23.503Z</time>
      </trkpt>
      <trkpt lat="47.702502" lon="7.715371">
        <ele>572.239576</ele>
        <time>2021-11-22T09:42:31.083Z</time>
      </trkpt>
      <trkpt lat="47.702556" lon="7.714087">
        <ele>570.970290</ele>
        <time>2021-11-22T09:42:41.737Z</time>
      </trkpt>
      <trkpt lat="47.702593" lon="7.713352">
        <ele>572.467145</ele>
        <time>2021-11-22T09:42:56.957Z</time>
      </trkpt>
      <trkpt lat="47.702645" lon="7.713006">
        <ele>573.187132</ele>
        <time>2021-11-22T09:43:02.369Z</time>
      </trkpt>
      <trkpt lat="47.702681" lon="7.712888">
        <ele>573.450248</ele>
        <time>2021-11-22T09:43:08.474Z</time>
      </trkpt>
      <trkpt lat="47.702748" lon="7.712754">
        <ele>573.789272</ele>
        <time>2021-11-22T09:43:11.654Z</time>
      </trkpt>
      <trkpt lat="47.702981" lon="7.712628">
        <ele>574.537516</ele>
        <time>2021-11-22T09:43:25.067Z</time>
      </trkpt>
      <trkpt lat="47.703315" lon="7.712751">
        <ele>575.490344</ele>
        <time>2021-11-22T09:43:34.333Z</time>
      </trkpt>
      <trkpt lat="47.704378" lon="7.712858">
        <ele>573.172741</ele>
        <time>2021-11-22T09:43:51.089Z</time>
      </trkpt>
      <trkpt lat="47.704389" lon="7.712845">
        <ele>573.142168</ele>
        <time>2021-11-22T09:43:52.635Z</time>
      </trkpt>
      <trkpt lat="47.704443" lon="7.712778">
        <ele>572.989141</ele>
        <time>2021-11-22T09:43:53.343Z</time>
      </trkpt>
      <trkpt lat="47.704459" lon="7.712681">
        <ele>572.842944</ele>
        <time>2021-11-22T09:43:53.983Z</time>
      </trkpt>
      <trkpt lat="47.704441" lon="7.712558">
        <ele>572.658682</ele>
        <time>2021-11-22T09:43:54.684Z</time>
      </trkpt>
      <trkpt lat="47.704093" lon="7.712308">
        <ele>571.817869</ele>
        <time>2021-11-22T09:43:58.179Z</time>
      </trkpt>
      <trkpt lat="47.703776" lon="7.711801">
        <ele>568.157633</ele>
        <time>2021-11-22T09:44:02.279Z</time>
      </trkpt>
      <trkpt lat="47.703244" lon="7.710273">
        <ele>557.397296</ele>
        <time>2021-11-22T09:44:12.113Z</time>
      </trkpt>
      <trkpt lat="47.702732" lon="7.709500">
        <ele>553.101135</ele>
        <time>2021-11-22T09:44:18.785Z</time>
      </trkpt>
      <trkpt lat="47.702612" lon="7.709241">
        <ele>552.276584</ele>
        <time>2021-11-22T09:44:20.830Z</time>
      </trkpt>
      <trkpt lat="47.702547" lon="7.709005">
        <ele>551.607913</ele>
        <time>2021-11-22T09:44:22.566Z</time>
      </trkpt>
      <trkpt lat="47.702532" lon="7.708871">
        <ele>551.251705</ele>
        <time>2021-11-22T09:44:23.612Z</time>
      </trkpt>
      <trkpt lat="47.702539" lon="7.708522">
        <ele>550.336136</ele>
        <time>2021-11-22T09:44:26.048Z</time>
      </trkpt>
      <trkpt lat="47.702591" lon="7.708255">
        <ele>549.607268</ele>
        <time>2021-11-22T09:44:28.304Z</time>
      </trkpt>
      <trkpt lat="47.702612" lon="7.708147">
        <ele>549.312482</ele>
        <time>2021-11-22T09:44:29.176Z</time>
      </trkpt>
      <trkpt lat="47.702673" lon="7.707978">
        <ele>548.809607</ele>
        <time>2021-11-22T09:44:30.519Z</time>
      </trkpt>
      <trkpt lat="47.702915" lon="7.707307">
        <ele>546.887440</ele>
        <time>2021-11-22T09:44:36.080Z</time>
      </trkpt>
      <trkpt lat="47.702915" lon="7.706959">
        <ele>546.037786</ele>
        <time>2021-11-22T09:44:38.666Z</time>
      </trkpt>
      <trkpt lat="47.702898" lon="7.706855">
        <ele>545.776484</ele>
        <time>2021-11-22T09:44:39.541Z</time>
      </trkpt>
      <trkpt lat="47.702810" lon="7.706299">
        <ele>544.381952</ele>
        <time>2021-11-22T09:44:43.394Z</time>
      </trkpt>
      <trkpt lat="47.702830" lon="7.706119">
        <ele>543.936526</ele>
        <time>2021-11-22T09:44:44.705Z</time>
      </trkpt>
      <trkpt lat="47.702886" lon="7.705990">
        <ele>543.561725</ele>
        <time>2021-11-22T09:44:45.684Z</time>
      </trkpt>
      <trkpt lat="47.702945" lon="7.706001">
        <ele>543.345997</ele>
        <time>2021-11-22T09:44:46.210Z</time>
      </trkpt>
      <trkpt lat="47.703038" lon="7.705977">
        <ele>543.003545</ele>
        <time>2021-11-22T09:44:47.188Z</time>
      </trkpt>
      <trkpt lat="47.703130" lon="7.705816">
        <ele>542.487870</ele>
        <time>2021-11-22T09:44:48.599Z</time>
      </trkpt>
      <trkpt lat="47.703204" lon="7.705100">
        <ele>540.443884</ele>
        <time>2021-11-22T09:44:53.072Z</time>
      </trkpt>
      <trkpt lat="47.703383" lon="7.704126">
        <ele>536.924576</ele>
        <time>2021-11-22T09:44:59.299Z</time>
      </trkpt>
      <trkpt lat="47.703454" lon="7.703909">
        <ele>536.083541</ele>
        <time>2021-11-22T09:45:00.839Z</time>
      </trkpt>
      <trkpt lat="47.703629" lon="7.703713">
        <ele>534.948507</ele>
        <time>2021-11-22T09:45:02.911Z</time>
      </trkpt>
      <trkpt lat="47.703966" lon="7.703536">
        <ele>533.097207</ele>
        <time>2021-11-22T09:45:06.436Z</time>
      </trkpt>
      <trkpt lat="47.704021" lon="7.703518">
        <ele>532.805509</ele>
        <time>2021-11-22T09:45:07.097Z</time>
      </trkpt>
      <trkpt lat="47.704073" lon="7.703501">
        <ele>532.529737</ele>
        <time>2021-11-22T09:45:08.077Z</time>
      </trkpt>
      <trkpt lat="47.704129" lon="7.703437">
        <ele>532.163825</ele>
        <time>2021-11-22T09:45:08.889Z</time>
      </trkpt>
      <trkpt lat="47.704143" lon="7.703228">
        <ele>531.379322</ele>
        <time>2021-11-22T09:45:10.094Z</time>
      </trkpt>
      <trkpt lat="47.704152" lon="7.702758">
        <ele>529.600847</ele>
        <time>2021-11-22T09:45:13.035Z</time>
      </trkpt>
      <trkpt lat="47.704212" lon="7.702603">
        <ele>528.924493</ele>
        <time>2021-11-22T09:45:14.213Z</time>
      </trkpt>
      <trkpt lat="47.704291" lon="7.702552">
        <ele>528.440369</ele>
        <time>2021-11-22T09:45:15.559Z</time>
      </trkpt>
      <trkpt lat="47.704396" lon="7.702541">
        <ele>527.848737</ele>
        <time>2021-11-22T09:45:16.501Z</time>
      </trkpt>
      <trkpt lat="47.704897" lon="7.702817">
        <ele>524.845515</ele>
        <time>2021-11-22T09:45:21.337Z</time>
      </trkpt>
      <trkpt lat="47.704991" lon="7.702794">
        <ele>524.310061</ele>
        <time>2021-11-22T09:45:22.873Z</time>
      </trkpt>
      <trkpt lat="47.705039" lon="7.702741">
        <ele>523.973945</ele>
        <time>2021-11-22T09:45:23.442Z</time>
      </trkpt>
      <trkpt lat="47.705059" lon="7.702686">
        <ele>523.737484</ele>
        <time>2021-11-22T09:45:23.790Z</time>
      </trkpt>
      <trkpt lat="47.705073" lon="7.702646">
        <ele>523.566948</ele>
        <time>2021-11-22T09:45:24.037Z</time>
      </trkpt>
      <trkpt lat="47.705051" lon="7.702507">
        <ele>523.026850</ele>
        <time>2021-11-22T09:45:24.955Z</time>
      </trkpt>
      <trkpt lat="47.705041" lon="7.702450">
        <ele>522.804048</ele>
        <time>2021-11-22T09:45:25.337Z</time>
      </trkpt>
      <trkpt lat="47.704509" lon="7.701457">
        <ele>517.527993</ele>
        <time>2021-11-22T09:45:33.174Z</time>
      </trkpt>
      <trkpt lat="47.704361" lon="7.700916">
        <ele>515.052283</ele>
        <time>2021-11-22T09:45:36.665Z</time>
      </trkpt>
      <trkpt lat="47.704371" lon="7.699567">
        <ele>509.917477</ele>
        <time>2021-11-22T09:45:44.956Z</time>
      </trkpt>
      <trkpt lat="47.704424" lon="7.698936">
        <ele>508.458214</ele>
        <time>2021-11-22T09:45:49.117Z</time>
      </trkpt>
      <trkpt lat="47.704368" lon="7.698416">
        <ele>507.249728</ele>
        <time>2021-11-22T09:45:52.698Z</time>
      </trkpt>
      <trkpt lat="47.704511" lon="7.697551">
        <ele>505.205697</ele>
        <time>2021-11-22T09:45:59.086Z</time>
      </trkpt>
      <trkpt lat="47.704554" lon="7.697289">
        <ele>504.586835</ele>
        <time>2021-11-22T09:46:01.144Z</time>
      </trkpt>
      <trkpt lat="47.704663" lon="7.696628">
        <ele>503.960812</ele>
        <time>2021-11-22T09:46:06.430Z</time>
      </trkpt>
      <trkpt lat="47.704721" lon="7.695896">
        <ele>503.362017</ele>
        <time>2021-11-22T09:46:12.256Z</time>
      </trkpt>
      <trkpt lat="47.705014" lon="7.694965">
        <ele>502.527038</ele>
        <time>2021-11-22T09:46:20.646Z</time>
      </trkpt>
      <trkpt lat="47.705028" lon="7.694780">
        <ele>502.375795</ele>
        <time>2021-11-22T09:46:22.195Z</time>
      </trkpt>
      <trkpt lat="47.705015" lon="7.694480">
        <ele>502.362614</ele>
        <time>2021-11-22T09:46:24.785Z</time>
      </trkpt>
      <trkpt lat="47.704730" lon="7.693699">
        <ele>502.617963</ele>
        <time>2021-11-22T09:46:33.154Z</time>
      </trkpt>
      <trkpt lat="47.704705" lon="7.693128">
        <ele>502.782423</ele>
        <time>2021-11-22T09:46:41.860Z</time>
      </trkpt>
      <trkpt lat="47.704799" lon="7.692803">
        <ele>502.884095</ele>
        <time>2021-11-22T09:46:45.716Z</time>
      </trkpt>
      <trkpt lat="47.705019" lon="7.692455">
        <ele>503.021327</ele>
        <time>2021-11-22T09:46:51.442Z</time>
      </trkpt>
      <trkpt lat="47.705203" lon="7.692033">
        <ele>502.891096</ele>
        <time>2021-11-22T09:46:57.311Z</time>
      </trkpt>
      <trkpt lat="47.705351" lon="7.691915">
        <ele>502.756284</ele>
        <time>2021-11-22T09:47:00.738Z</time>
      </trkpt>
      <trkpt lat="47.705689" lon="7.691712">
        <ele>502.463665</ele>
        <time>2021-11-22T09:47:06.702Z</time>
      </trkpt>
      <trkpt lat="47.705873" lon="7.691537">
        <ele>502.288316</ele>
        <time>2021-11-22T09:47:09.250Z</time>
      </trkpt>
      <trkpt lat="47.706118" lon="7.691282">
        <ele>502.048227</ele>
        <time>2021-11-22T09:47:13.095Z</time>
      </trkpt>
      <trkpt lat="47.706250" lon="7.690885">
        <ele>501.809046</ele>
        <time>2021-11-22T09:47:16.584Z</time>
      </trkpt>
      <trkpt lat="47.706274" lon="7.690649">
        <ele>501.680126</ele>
        <time>2021-11-22T09:47:18.226Z</time>
      </trkpt>
      <trkpt lat="47.706098" lon="7.689802">
        <ele>499.144969</ele>
        <time>2021-11-22T09:47:24.289Z</time>
      </trkpt>
      <trkpt lat="47.706075" lon="7.689692">
        <ele>498.782007</ele>
        <time>2021-11-22T09:47:24.991Z</time>
      </trkpt>
      <trkpt lat="47.706088" lon="7.689620">
        <ele>498.547107</ele>
        <time>2021-11-22T09:47:25.442Z</time>
      </trkpt>
      <trkpt lat="47.706205" lon="7.688984">
        <ele>496.469506</ele>
        <time>2021-11-22T09:47:29.708Z</time>
      </trkpt>
      <trkpt lat="47.706339" lon="7.688694">
        <ele>495.361020</ele>
        <time>2021-11-22T09:47:31.963Z</time>
      </trkpt>
      <trkpt lat="47.706653" lon="7.688356">
        <ele>493.545484</ele>
        <time>2021-11-22T09:47:35.480Z</time>
      </trkpt>
      <trkpt lat="47.706815" lon="7.687723">
        <ele>491.231493</ele>
        <time>2021-11-22T09:47:39.562Z</time>
      </trkpt>
      <trkpt lat="47.706806" lon="7.687393">
        <ele>490.086317</ele>
        <time>2021-11-22T09:47:41.596Z</time>
      </trkpt>
      <trkpt lat="47.706505" lon="7.686637">
        <ele>487.040506</ele>
        <time>2021-11-22T09:47:47.043Z</time>
      </trkpt>
      <trkpt lat="47.706395" lon="7.686460">
        <ele>486.205086</ele>
        <time>2021-11-22T09:47:48.533Z</time>
      </trkpt>
      <trkpt lat="47.706315" lon="7.686377">
        <ele>485.702345</ele>
        <time>2021-11-22T09:47:49.466Z</time>
      </trkpt>
      <trkpt lat="47.706214" lon="7.686304">
        <ele>485.123630</ele>
        <time>2021-11-22T09:47:50.743Z</time>
      </trkpt>
      <trkpt lat="47.705734" lon="7.686280">
        <ele>483.790674</ele>
        <time>2021-11-22T09:47:55.794Z</time>
      </trkpt>
      <trkpt lat="47.705588" lon="7.686098">
        <ele>483.679394</ele>
        <time>2021-11-22T09:47:58.089Z</time>
      </trkpt>
      <trkpt lat="47.705527" lon="7.685792">
        <ele>483.553983</ele>
        <time>2021-11-22T09:48:00.464Z</time>
      </trkpt>
      <trkpt lat="47.705598" lon="7.685425">
        <ele>483.403927</ele>
        <time>2021-11-22T09:48:03.735Z</time>
      </trkpt>
      <trkpt lat="47.705826" lon="7.684660">
        <ele>483.075151</ele>
        <time>2021-11-22T09:48:12.678Z</time>
      </trkpt>
      <trkpt lat="47.705881" lon="7.684506">
        <ele>483.006641</ele>
        <time>2021-11-22T09:48:15.312Z</time>
      </trkpt>
      <trkpt lat="47.706044" lon="7.684180">
        <ele>482.927329</ele>
        <time>2021-11-22T09:48:20.795Z</time>
      </trkpt>
      <trkpt lat="47.706149" lon="7.684067">
        <ele>483.006459</ele>
        <time>2021-11-22T09:48:23.725Z</time>
      </trkpt>
      <trkpt lat="47.706351" lon="7.683947">
        <ele>483.139242</ele>
        <time>2021-11-22T09:48:28.154Z</time>
      </trkpt>
      <trkpt lat="47.706927" lon="7.683483">
        <ele>483.539150</ele>
        <time>2021-11-22T09:48:41.349Z</time>
      </trkpt>
      <trkpt lat="47.707531" lon="7.682751">
        <ele>483.901132</ele>
        <time>2021-11-22T09:48:51.824Z</time>
      </trkpt>
      <trkpt lat="47.707720" lon="7.682649">
        <ele>483.569535</ele>
        <time>2021-11-22T09:48:54.477Z</time>
      </trkpt>
      <trkpt lat="47.708065" lon="7.682585">
        <ele>482.996180</ele>
        <time>2021-11-22T09:48:59.487Z</time>
      </trkpt>
      <trkpt lat="47.708243" lon="7.682684">
        <ele>482.682755</ele>
        <time>2021-11-22T09:49:02.517Z</time>
      </trkpt>
      <trkpt lat="47.708481" lon="7.683115">
        <ele>482.064053</ele>
        <time>2021-11-22T09:49:08.789Z</time>
      </trkpt>
      <trkpt lat="47.708943" lon="7.683354">
        <ele>481.257327</ele>
        <time>2021-11-22T09:49:13.577Z</time>
      </trkpt>
      <trkpt lat="47.709160" lon="7.684386">
        <ele>476.603733</ele>
        <time>2021-11-22T09:49:20.357Z</time>
      </trkpt>
      <trkpt lat="47.709249" lon="7.684498">
        <ele>475.719828</ele>
        <time>2021-11-22T09:49:21.459Z</time>
      </trkpt>
      <trkpt lat="47.709418" lon="7.684480">
        <ele>474.435656</ele>
        <time>2021-11-22T09:49:23.078Z</time>
      </trkpt>
      <trkpt lat="47.709444" lon="7.684446">
        <ele>474.173168</ele>
        <time>2021-11-22T09:49:23.391Z</time>
      </trkpt>
      <trkpt lat="47.709477" lon="7.684403">
        <ele>473.840529</ele>
        <time>2021-11-22T09:49:23.750Z</time>
      </trkpt>
      <trkpt lat="47.709521" lon="7.684250">
        <ele>472.991956</ele>
        <time>2021-11-22T09:49:24.789Z</time>
      </trkpt>
      <trkpt lat="47.709553" lon="7.683244">
        <ele>467.855655</ele>
        <time>2021-11-22T09:49:30.653Z</time>
      </trkpt>
      <trkpt lat="47.709981" lon="7.681865">
        <ele>458.639510</ele>
        <time>2021-11-22T09:49:39.348Z</time>
      </trkpt>
      <trkpt lat="47.710111" lon="7.681645">
        <ele>456.844331</ele>
        <time>2021-11-22T09:49:41.058Z</time>
      </trkpt>
      <trkpt lat="47.710620" lon="7.681447">
        <ele>452.050085</ele>
        <time>2021-11-22T09:49:45.721Z</time>
      </trkpt>
      <trkpt lat="47.711325" lon="7.680975">
        <ele>449.089905</ele>
        <time>2021-11-22T09:49:53.019Z</time>
      </trkpt>
      <trkpt lat="47.711472" lon="7.680508">
        <ele>448.084108</ele>
        <time>2021-11-22T09:49:56.707Z</time>
      </trkpt>
      <trkpt lat="47.711548" lon="7.680349">
        <ele>447.703629</ele>
        <time>2021-11-22T09:49:58.568Z</time>
      </trkpt>
      <trkpt lat="47.711955" lon="7.679497">
        <ele>445.612151</ele>
        <time>2021-11-22T09:50:08.113Z</time>
      </trkpt>
      <trkpt lat="47.712100" lon="7.679454">
        <ele>444.988006</ele>
        <time>2021-11-22T09:50:12.231Z</time>
      </trkpt>
      <trkpt lat="47.712883" lon="7.680135">
        <ele>441.158421</ele>
        <time>2021-11-22T09:50:21.150Z</time>
      </trkpt>
      <trkpt lat="47.712975" lon="7.680138">
        <ele>440.769974</ele>
        <time>2021-11-22T09:50:25.470Z</time>
      </trkpt>
      <trkpt lat="47.713027" lon="7.680082">
        <ele>440.498902</ele>
        <time>2021-11-22T09:50:26.063Z</time>
      </trkpt>
      <trkpt lat="47.713040" lon="7.680029">
        <ele>440.338679</ele>
        <time>2021-11-22T09:50:26.408Z</time>
      </trkpt>
      <trkpt lat="47.713062" lon="7.679942">
        <ele>440.074704</ele>
        <time>2021-11-22T09:50:26.921Z</time>
      </trkpt>
      <trkpt lat="47.712607" lon="7.679208">
        <ele>435.931715</ele>
        <time>2021-11-22T09:50:33.084Z</time>
      </trkpt>
      <trkpt lat="47.712582" lon="7.679169">
        <ele>435.567826</ele>
        <time>2021-11-22T09:50:33.388Z</time>
      </trkpt>
      <trkpt lat="47.712428" lon="7.678763">
        <ele>432.419306</ele>
        <time>2021-11-22T09:50:36.257Z</time>
      </trkpt>
      <trkpt lat="47.712374" lon="7.678233">
        <ele>428.798081</ele>
        <time>2021-11-22T09:50:39.318Z</time>
      </trkpt>
      <trkpt lat="47.712502" lon="7.677710">
        <ele>425.038495</ele>
        <time>2021-11-22T09:50:42.447Z</time>
      </trkpt>
      <trkpt lat="47.712612" lon="7.677426">
        <ele>422.824773</ele>
        <time>2021-11-22T09:50:44.324Z</time>
      </trkpt>
      <trkpt lat="47.713251" lon="7.676281">
        <ele>415.300030</ele>
        <time>2021-11-22T09:50:53.042Z</time>
      </trkpt>
      <trkpt lat="47.713380" lon="7.676160">
        <ele>414.294173</ele>
        <time>2021-11-22T09:50:54.411Z</time>
      </trkpt>
      <trkpt lat="47.713654" lon="7.675903">
        <ele>412.157724</ele>
        <time>2021-11-22T09:50:57.449Z</time>
      </trkpt>
      <trkpt lat="47.714388" lon="7.675415">
        <ele>407.367606</ele>
        <time>2021-11-22T09:51:05.397Z</time>
      </trkpt>
      <trkpt lat="47.714651" lon="7.675347">
        <ele>406.244317</ele>
        <time>2021-11-22T09:51:08.240Z</time>
      </trkpt>
      <trkpt lat="47.714924" lon="7.675509">
        <ele>405.007395</ele>
        <time>2021-11-22T09:51:10.976Z</time>
      </trkpt>
      <trkpt lat="47.714962" lon="7.675531">
        <ele>404.835793</ele>
        <time>2021-11-22T09:51:12.014Z</time>
      </trkpt>
      <trkpt lat="47.715676" lon="7.676459">
        <ele>400.844668</ele>
        <time>2021-11-22T09:51:21.396Z</time>
      </trkpt>
      <trkpt lat="47.715913" lon="7.676464">
        <ele>398.937441</ele>
        <time>2021-11-22T09:51:23.762Z</time>
      </trkpt>
      <trkpt lat="47.716031" lon="7.676354">
        <ele>397.727477</ele>
        <time>2021-11-22T09:51:24.927Z</time>
      </trkpt>
      <trkpt lat="47.716069" lon="7.676265">
        <ele>397.111418</ele>
        <time>2021-11-22T09:51:25.569Z</time>
      </trkpt>
      <trkpt lat="47.715866" lon="7.676034">
        <ele>394.890534</ele>
        <time>2021-11-22T09:51:27.796Z</time>
      </trkpt>
      <trkpt lat="47.715513" lon="7.675557">
        <ele>390.746261</ele>
        <time>2021-11-22T09:51:31.925Z</time>
      </trkpt>
      <trkpt lat="47.715435" lon="7.675393">
        <ele>389.572451</ele>
        <time>2021-11-22T09:51:33.102Z</time>
      </trkpt>
      <trkpt lat="47.715372" lon="7.675190">
        <ele>388.265870</ele>
        <time>2021-11-22T09:51:34.357Z</time>
      </trkpt>
      <trkpt lat="47.715321" lon="7.674989">
        <ele>387.010351</ele>
        <time>2021-11-22T09:51:35.650Z</time>
      </trkpt>
      <trkpt lat="47.715299" lon="7.674805">
        <ele>385.918101</ele>
        <time>2021-11-22T09:51:36.710Z</time>
      </trkpt>
      <trkpt lat="47.715290" lon="7.674706">
        <ele>385.334231</ele>
        <time>2021-11-22T09:51:37.271Z</time>
      </trkpt>
      <trkpt lat="47.715255" lon="7.674565">
        <ele>384.524881</ele>
        <time>2021-11-22T09:51:38.178Z</time>
      </trkpt>
      <trkpt lat="47.715230" lon="7.674517">
        <ele>384.209488</ele>
        <time>2021-11-22T09:51:38.524Z</time>
      </trkpt>
      <trkpt lat="47.715182" lon="7.674449">
        <ele>383.697398</ele>
        <time>2021-11-22T09:51:39.109Z</time>
      </trkpt>
      <trkpt lat="47.715014" lon="7.674194">
        <ele>381.843036</ele>
        <time>2021-11-22T09:51:41.238Z</time>
      </trkpt>
      <trkpt lat="47.714896" lon="7.673910">
        <ele>380.108722</ele>
        <time>2021-11-22T09:51:43.167Z</time>
      </trkpt>
      <trkpt lat="47.714829" lon="7.673750">
        <ele>379.129522</ele>
        <time>2021-11-22T09:51:44.337Z</time>
      </trkpt>
      <trkpt lat="47.714805" lon="7.673694">
        <ele>378.784538</ele>
        <time>2021-11-22T09:51:44.721Z</time>
      </trkpt>
      <trkpt lat="47.714772" lon="7.673618">
        <ele>378.314560</ele>
        <time>2021-11-22T09:51:45.250Z</time>
      </trkpt>
      <trkpt lat="47.714685" lon="7.673382">
        <ele>376.916338</ele>
        <time>2021-11-22T09:51:46.794Z</time>
      </trkpt>
      <trkpt lat="47.714434" lon="7.672421">
        <ele>371.560058</ele>
        <time>2021-11-22T09:51:53.102Z</time>
      </trkpt>
      <trkpt lat="47.714360" lon="7.671644">
        <ele>369.724198</ele>
        <time>2021-11-22T09:51:58.507Z</time>
      </trkpt>
      <trkpt lat="47.714314" lon="7.670907">
        <ele>368.205095</ele>
        <time>2021-11-22T09:52:03.822Z</time>
      </trkpt>
      <trkpt lat="47.714281" lon="7.670488">
        <ele>367.339273</ele>
        <time>2021-11-22T09:52:06.834Z</time>
      </trkpt>
      <trkpt lat="47.714253" lon="7.670145">
        <ele>366.630141</ele>
        <time>2021-11-22T09:52:09.271Z</time>
      </trkpt>
      <trkpt lat="47.714082" lon="7.669298">
        <ele>365.038192</ele>
        <time>2021-11-22T09:52:15.496Z</time>
      </trkpt>
      <trkpt lat="47.713822" lon="7.668642">
        <ele>363.868894</ele>
        <time>2021-11-22T09:52:20.952Z</time>
      </trkpt>
      <trkpt lat="47.713746" lon="7.668443">
        <ele>363.517464</ele>
        <time>2021-11-22T09:52:22.575Z</time>
      </trkpt>
      <trkpt lat="47.713714" lon="7.668137">
        <ele>363.041861</ele>
        <time>2021-11-22T09:52:24.839Z</time>
      </trkpt>
      <trkpt lat="47.713737" lon="7.667710">
        <ele>362.383969</ele>
        <time>2021-11-22T09:52:28.023Z</time>
      </trkpt>
      <trkpt lat="47.713762" lon="7.667287">
        <ele>361.731816</ele>
        <time>2021-11-22T09:52:31.197Z</time>
      </trkpt>
      <trkpt lat="47.713770" lon="7.667139">
        <ele>361.515949</ele>
        <time>2021-11-22T09:52:32.293Z</time>
      </trkpt>
      <trkpt lat="47.713776" lon="7.666553">
        <ele>360.735162</ele>
        <time>2021-11-22T09:52:36.500Z</time>
      </trkpt>
      <trkpt lat="47.713751" lon="7.666127">
        <ele>360.165471</ele>
        <time>2021-11-22T09:52:39.605Z</time>
      </trkpt>
      <trkpt lat="47.713713" lon="7.665724">
        <ele>359.623328</ele>
        <time>2021-11-22T09:52:42.648Z</time>
      </trkpt>
      <trkpt lat="47.713694" lon="7.665534">
        <ele>359.367421</ele>
        <time>2021-11-22T09:52:44.004Z</time>
      </trkpt>
      <trkpt lat="47.713660" lon="7.665126">
        <ele>358.819710</ele>
        <time>2021-11-22T09:52:47.051Z</time>
      </trkpt>
      <trkpt lat="47.713615" lon="7.664644">
        <ele>358.171414</ele>
        <time>2021-11-22T09:52:50.786Z</time>
      </trkpt>
      <trkpt lat="47.713597" lon="7.664425">
        <ele>357.901977</ele>
        <time>2021-11-22T09:52:52.419Z</time>
      </trkpt>
      <trkpt lat="47.713532" lon="7.663657">
        <ele>357.031963</ele>
        <time>2021-11-22T09:52:58.543Z</time>
      </trkpt>
      <trkpt lat="47.713524" lon="7.663564">
        <ele>356.926582</ele>
        <time>2021-11-22T09:52:59.258Z</time>
      </trkpt>
      <trkpt lat="47.713489" lon="7.663259">
        <ele>356.578820</ele>
        <time>2021-11-22T09:53:01.601Z</time>
      </trkpt>
      <trkpt lat="47.713461" lon="7.663133">
        <ele>356.429675</ele>
        <time>2021-11-22T09:53:02.688Z</time>
      </trkpt>
      <trkpt lat="47.713413" lon="7.663003">
        <ele>356.263002</ele>
        <time>2021-11-22T09:53:03.786Z</time>
      </trkpt>
      <trkpt lat="47.713115" lon="7.662424">
        <ele>355.443653</ele>
        <time>2021-11-22T09:53:09.272Z</time>
      </trkpt>
      <trkpt lat="47.712735" lon="7.661692">
        <ele>354.468745</ele>
        <time>2021-11-22T09:53:16.214Z</time>
      </trkpt>
      <trkpt lat="47.712670" lon="7.661566">
        <ele>354.308637</ele>
        <time>2021-11-22T09:53:17.394Z</time>
      </trkpt>
      <trkpt lat="47.712590" lon="7.661411">
        <ele>354.111641</ele>
        <time>2021-11-22T09:53:18.797Z</time>
      </trkpt>
      <trkpt lat="47.712466" lon="7.661175">
        <ele>353.809687</ele>
        <time>2021-11-22T09:53:20.901Z</time>
      </trkpt>
      <trkpt lat="47.712059" lon="7.660406">
        <ele>352.823049</ele>
        <time>2021-11-22T09:53:28.760Z</time>
      </trkpt>
      <trkpt lat="47.711745" lon="7.659816">
        <ele>352.406872</ele>
        <time>2021-11-22T09:53:35.183Z</time>
      </trkpt>
      <trkpt lat="47.711707" lon="7.659738">
        <ele>352.433198</ele>
        <time>2021-11-22T09:53:35.994Z</time>
      </trkpt>
      <trkpt lat="47.711647" lon="7.659597">
        <ele>352.478805</ele>
        <time>2021-11-22T09:53:37.376Z</time>
      </trkpt>
      <trkpt lat="47.711601" lon="7.659452">
        <ele>352.522629</ele>
        <time>2021-11-22T09:53:38.736Z</time>
      </trkpt>
      <trkpt lat="47.711321" lon="7.659557">
        <ele>352.639955</ele>
        <time>2021-11-22T09:53:42.654Z</time>
      </trkpt>
      <trkpt lat="47.711206" lon="7.659579">
        <ele>352.687063</ele>
        <time>2021-11-22T09:53:44.518Z</time>
      </trkpt>
      <trkpt lat="47.711025" lon="7.659560">
        <ele>352.760784</ele>
        <time>2021-11-22T09:53:47.238Z</time>
      </trkpt>
      <trkpt lat="47.710270" lon="7.659281">
        <ele>353.120672</ele>
        <time>2021-11-22T09:54:02.875Z</time>
      </trkpt>
      <trkpt lat="47.709284" lon="7.658906">
        <ele>355.011233</ele>
        <time>2021-11-22T09:54:27.629Z</time>
      </trkpt>
      <trkpt lat="47.709055" lon="7.658809">
        <ele>355.453551</ele>
        <time>2021-11-22T09:54:32.897Z</time>
      </trkpt>
      <trkpt lat="47.708716" lon="7.658619">
        <ele>356.126552</ele>
        <time>2021-11-22T09:54:40.631Z</time>
      </trkpt>
      <trkpt lat="47.708406" lon="7.658397">
        <ele>356.518292</ele>
        <time>2021-11-22T09:54:47.602Z</time>
      </trkpt>
      <trkpt lat="47.707551" lon="7.657642">
        <ele>357.096123</ele>
        <time>2021-11-22T09:55:06.031Z</time>
      </trkpt>
      <trkpt lat="47.707399" lon="7.657512">
        <ele>357.198015</ele>
        <time>2021-11-22T09:55:09.065Z</time>
      </trkpt>
      <trkpt lat="47.707374" lon="7.657490">
        <ele>357.214896</ele>
        <time>2021-11-22T09:55:09.416Z</time>
      </trkpt>
      <trkpt lat="47.707303" lon="7.657425">
        <ele>357.263346</ele>
        <time>2021-11-22T09:55:10.594Z</time>
      </trkpt>
      <trkpt lat="47.706151" lon="7.656379">
        <ele>356.229126</ele>
        <time>2021-11-22T09:55:27.883Z</time>
      </trkpt>
      <trkpt lat="47.705728" lon="7.655994">
        <ele>355.639479</ele>
        <time>2021-11-22T09:55:33.590Z</time>
      </trkpt>
      <trkpt lat="47.704952" lon="7.655270">
        <ele>353.438738</ele>
        <time>2021-11-22T09:55:43.388Z</time>
      </trkpt>
      <trkpt lat="47.704453" lon="7.654617">
        <ele>351.495820</ele>
        <time>2021-11-22T09:55:50.048Z</time>
      </trkpt>
      <trkpt lat="47.704058" lon="7.654022">
        <ele>349.995336</ele>
        <time>2021-11-22T09:55:55.594Z</time>
      </trkpt>
      <trkpt lat="47.703578" lon="7.653277">
        <ele>349.385676</ele>
        <time>2021-11-22T09:56:02.992Z</time>
      </trkpt>
      <trkpt lat="47.703432" lon="7.653097">
        <ele>349.219044</ele>
        <time>2021-11-22T09:56:05.178Z</time>
      </trkpt>
      <trkpt lat="47.703147" lon="7.652748">
        <ele>348.894660</ele>
        <time>2021-11-22T09:56:09.796Z</time>
      </trkpt>
      <trkpt lat="47.702902" lon="7.652578">
        <ele>348.657156</ele>
        <time>2021-11-22T09:56:13.993Z</time>
      </trkpt>
      <trkpt lat="47.702697" lon="7.652487">
        <ele>348.503443</ele>
        <time>2021-11-22T09:56:21.773Z</time>
      </trkpt>
      <trkpt lat="47.702245" lon="7.652399">
        <ele>349.875205</ele>
        <time>2021-11-22T09:56:35.687Z</time>
      </trkpt>
      <trkpt lat="47.701522" lon="7.652534">
        <ele>352.067934</ele>
        <time>2021-11-22T09:57:01.303Z</time>
      </trkpt>
      <trkpt lat="47.701331" lon="7.652535">
        <ele>352.642686</ele>
        <time>2021-11-22T09:57:09.968Z</time>
      </trkpt>
      <trkpt lat="47.701186" lon="7.652499">
        <ele>353.085062</ele>
        <time>2021-11-22T09:57:14.564Z</time>
      </trkpt>
      <trkpt lat="47.699361" lon="7.651801">
        <ele>356.298033</ele>
        <time>2021-11-22T09:58:05.736Z</time>
      </trkpt>
      <trkpt lat="47.698442" lon="7.651576">
        <ele>355.495664</ele>
        <time>2021-11-22T09:58:22.922Z</time>
      </trkpt>
      <trkpt lat="47.698132" lon="7.651500">
        <ele>355.046302</ele>
        <time>2021-11-22T09:58:28.184Z</time>
      </trkpt>
      <trkpt lat="47.697462" lon="7.651443">
        <ele>354.086487</ele>
        <time>2021-11-22T09:58:38.577Z</time>
      </trkpt>
      <trkpt lat="47.697072" lon="7.651347">
        <ele>352.319326</ele>
        <time>2021-11-22T09:58:44.318Z</time>
      </trkpt>
      <trkpt lat="47.696435" lon="7.651009">
        <ele>348.902878</ele>
        <time>2021-11-22T09:58:53.582Z</time>
      </trkpt>
      <trkpt lat="47.696170" lon="7.650709">
        <ele>347.220117</ele>
        <time>2021-11-22T09:58:57.947Z</time>
      </trkpt>
      <trkpt lat="47.695758" lon="7.650076">
        <ele>344.184933</ele>
        <time>2021-11-22T09:59:05.541Z</time>
      </trkpt>
      <trkpt lat="47.695693" lon="7.649976">
        <ele>343.683569</ele>
        <time>2021-11-22T09:59:06.785Z</time>
      </trkpt>
      <trkpt lat="47.695567" lon="7.649782">
        <ele>342.711292</ele>
        <time>2021-11-22T09:59:09.096Z</time>
      </trkpt>
      <trkpt lat="47.695262" lon="7.649448">
        <ele>340.681080</ele>
        <time>2021-11-22T09:59:14.033Z</time>
      </trkpt>
      <trkpt lat="47.694789" lon="7.649198">
        <ele>337.991042</ele>
        <time>2021-11-22T09:59:20.798Z</time>
      </trkpt>
      <trkpt lat="47.693813" lon="7.648908">
        <ele>333.832760</ele>
        <time>2021-11-22T09:59:34.847Z</time>
      </trkpt>
      <trkpt lat="47.693401" lon="7.648673">
        <ele>332.530239</ele>
        <time>2021-11-22T09:59:41.428Z</time>
      </trkpt>
      <trkpt lat="47.693195" lon="7.648488">
        <ele>331.819800</ele>
        <time>2021-11-22T09:59:45.093Z</time>
      </trkpt>
      <trkpt lat="47.692763" lon="7.648057">
        <ele>330.283969</ele>
        <time>2021-11-22T09:59:53.073Z</time>
      </trkpt>
      <trkpt lat="47.692210" lon="7.647462">
        <ele>328.510983</ele>
        <time>2021-11-22T10:00:00.359Z</time>
      </trkpt>
      <trkpt lat="47.691716" lon="7.647044">
        <ele>327.072692</ele>
        <time>2021-11-22T10:00:06.303Z</time>
      </trkpt>
      <trkpt lat="47.690591" lon="7.646393">
        <ele>323.938258</ele>
        <time>2021-11-22T10:00:18.998Z</time>
      </trkpt>
      <trkpt lat="47.690314" lon="7.646231">
        <ele>323.141988</ele>
        <time>2021-11-22T10:00:22.127Z</time>
      </trkpt>
      <trkpt lat="47.690158" lon="7.646119">
        <ele>322.678544</ele>
        <time>2021-11-22T10:00:23.966Z</time>
      </trkpt>
      <trkpt lat="47.689667" lon="7.645619">
        <ele>321.086275</ele>
        <time>2021-11-22T10:00:30.195Z</time>
      </trkpt>
      <trkpt lat="47.689472" lon="7.645421">
        <ele>320.442024</ele>
        <time>2021-11-22T10:00:32.640Z</time>
      </trkpt>
      <trkpt lat="47.689331" lon="7.645277">
        <ele>319.946057</ele>
        <time>2021-11-22T10:00:34.367Z</time>
      </trkpt>
      <trkpt lat="47.689269" lon="7.645223">
        <ele>319.737733</ele>
        <time>2021-11-22T10:00:35.130Z</time>
      </trkpt>
      <trkpt lat="47.689023" lon="7.644997">
        <ele>318.899337</ele>
        <time>2021-11-22T10:00:38.041Z</time>
      </trkpt>
      <trkpt lat="47.688378" lon="7.644436">
        <ele>316.732856</ele>
        <time>2021-11-22T10:00:45.656Z</time>
      </trkpt>
      <trkpt lat="47.688064" lon="7.644214">
        <ele>315.724869</ele>
        <time>2021-11-22T10:00:49.250Z</time>
      </trkpt>
      <trkpt lat="47.687943" lon="7.644144">
        <ele>315.366856</ele>
        <time>2021-11-22T10:00:50.615Z</time>
      </trkpt>
      <trkpt lat="47.687717" lon="7.644021">
        <ele>314.978566</ele>
        <time>2021-11-22T10:00:53.156Z</time>
      </trkpt>
      <trkpt lat="47.687342" lon="7.643852">
        <ele>314.346375</ele>
        <time>2021-11-22T10:00:57.523Z</time>
      </trkpt>
      <trkpt lat="47.686167" lon="7.643537">
        <ele>312.453247</ele>
        <time>2021-11-22T10:01:11.569Z</time>
      </trkpt>
      <trkpt lat="47.686116" lon="7.643523">
        <ele>312.410193</ele>
        <time>2021-11-22T10:01:12.240Z</time>
      </trkpt>
      <trkpt lat="47.685116" lon="7.643256">
        <ele>311.566740</ele>
        <time>2021-11-22T10:01:25.171Z</time>
      </trkpt>
      <trkpt lat="47.684688" lon="7.643294">
        <ele>311.210802</ele>
        <time>2021-11-22T10:01:30.573Z</time>
      </trkpt>
      <trkpt lat="47.684065" lon="7.643546">
        <ele>310.725422</ele>
        <time>2021-11-22T10:01:38.640Z</time>
      </trkpt>
      <trkpt lat="47.682895" lon="7.644174">
        <ele>309.855920</ele>
        <time>2021-11-22T10:01:54.562Z</time>
      </trkpt>
      <trkpt lat="47.681839" lon="7.644744">
        <ele>309.189378</ele>
        <time>2021-11-22T10:02:09.447Z</time>
      </trkpt>
      <trkpt lat="47.681210" lon="7.644957">
        <ele>308.818704</ele>
        <time>2021-11-22T10:02:18.030Z</time>
      </trkpt>
      <trkpt lat="47.680886" lon="7.645003">
        <ele>308.551054</ele>
        <time>2021-11-22T10:02:22.241Z</time>
      </trkpt>
      <trkpt lat="47.680235" lon="7.644970">
        <ele>307.762650</ele>
        <time>2021-11-22T10:02:30.351Z</time>
      </trkpt>
      <trkpt lat="47.679075" lon="7.644701">
        <ele>306.226703</ele>
        <time>2021-11-22T10:02:43.919Z</time>
      </trkpt>
      <trkpt lat="47.678638" lon="7.644712">
        <ele>305.370762</ele>
        <time>2021-11-22T10:02:48.689Z</time>
      </trkpt>
      <trkpt lat="47.678215" lon="7.644856">
        <ele>304.520880</ele>
        <time>2021-11-22T10:02:53.411Z</time>
      </trkpt>
      <trkpt lat="47.677287" lon="7.645352">
        <ele>302.658349</ele>
        <time>2021-11-22T10:03:04.143Z</time>
      </trkpt>
      <trkpt lat="47.676144" lon="7.645982">
        <ele>300.666771</ele>
        <time>2021-11-22T10:03:17.894Z</time>
      </trkpt>
      <trkpt lat="47.675857" lon="7.646130">
        <ele>300.170485</ele>
        <time>2021-11-22T10:03:21.445Z</time>
      </trkpt>
      <trkpt lat="47.674979" lon="7.646600">
        <ele>299.394707</ele>
        <time>2021-11-22T10:03:33.042Z</time>
      </trkpt>
      <trkpt lat="47.674778" lon="7.646693">
        <ele>299.232017</ele>
        <time>2021-11-22T10:03:35.776Z</time>
      </trkpt>
      <trkpt lat="47.674520" lon="7.646797">
        <ele>299.025429</ele>
        <time>2021-11-22T10:03:39.274Z</time>
      </trkpt>
      <trkpt lat="47.673408" lon="7.647202">
        <ele>298.551458</ele>
        <time>2021-11-22T10:03:54.347Z</time>
      </trkpt>
      <trkpt lat="47.673012" lon="7.647342">
        <ele>298.477824</ele>
        <time>2021-11-22T10:03:59.908Z</time>
      </trkpt>
      <trkpt lat="47.672269" lon="7.647611">
        <ele>298.384783</ele>
        <time>2021-11-22T10:04:11.701Z</time>
      </trkpt>
      <trkpt lat="47.671938" lon="7.647731">
        <ele>298.552599</ele>
        <time>2021-11-22T10:04:17.234Z</time>
      </trkpt>
      <trkpt lat="47.671204" lon="7.647979">
        <ele>298.923357</ele>
        <time>2021-11-22T10:04:30.210Z</time>
      </trkpt>
      <trkpt lat="47.670562" lon="7.648100">
        <ele>299.235706</ele>
        <time>2021-11-22T10:04:41.731Z</time>
      </trkpt>
      <trkpt lat="47.670251" lon="7.648133">
        <ele>299.173664</ele>
        <time>2021-11-22T10:04:47.009Z</time>
      </trkpt>
      <trkpt lat="47.670075" lon="7.648135">
        <ele>299.138642</ele>
        <time>2021-11-22T10:04:49.772Z</time>
      </trkpt>
      <trkpt lat="47.669789" lon="7.648115">
        <ele>299.081669</ele>
        <time>2021-11-22T10:04:53.959Z</time>
      </trkpt>
      <trkpt lat="47.669515" lon="7.648111">
        <ele>299.027145</ele>
        <time>2021-11-22T10:04:57.571Z</time>
      </trkpt>
      <trkpt lat="47.669119" lon="7.648215">
        <ele>298.947124</ele>
        <time>2021-11-22T10:05:02.677Z</time>
      </trkpt>
      <trkpt lat="47.668918" lon="7.648316">
        <ele>298.904901</ele>
        <time>2021-11-22T10:05:05.400Z</time>
      </trkpt>
      <trkpt lat="47.668668" lon="7.648492">
        <ele>298.943673</ele>
        <time>2021-11-22T10:05:08.867Z</time>
      </trkpt>
      <trkpt lat="47.668493" lon="7.648647">
        <ele>299.030801</ele>
        <time>2021-11-22T10:05:11.602Z</time>
      </trkpt>
      <trkpt lat="47.668270" lon="7.648935">
        <ele>299.157170</ele>
        <time>2021-11-22T10:05:15.611Z</time>
      </trkpt>
      <trkpt lat="47.668238" lon="7.648988">
        <ele>299.177667</ele>
        <time>2021-11-22T10:05:16.320Z</time>
      </trkpt>
      <trkpt lat="47.668164" lon="7.649101">
        <ele>299.223054</ele>
        <time>2021-11-22T10:05:17.900Z</time>
      </trkpt>
      <trkpt lat="47.668098" lon="7.649193">
        <ele>299.261760</ele>
        <time>2021-11-22T10:05:19.401Z</time>
      </trkpt>
      <trkpt lat="47.667987" lon="7.649348">
        <ele>299.326912</ele>
        <time>2021-11-22T10:05:21.992Z</time>
      </trkpt>
      <trkpt lat="47.667834" lon="7.649512">
        <ele>299.407596</ele>
        <time>2021-11-22T10:05:24.982Z</time>
      </trkpt>
      <trkpt lat="47.667757" lon="7.649591">
        <ele>299.447615</ele>
        <time>2021-11-22T10:05:27.290Z</time>
      </trkpt>
      <trkpt lat="47.667609" lon="7.649723">
        <ele>299.521436</ele>
        <time>2021-11-22T10:05:30.321Z</time>
      </trkpt>
      <trkpt lat="47.667482" lon="7.649812">
        <ele>299.581483</ele>
        <time>2021-11-22T10:05:33.386Z</time>
      </trkpt>
      <trkpt lat="47.667413" lon="7.649861">
        <ele>299.614187</ele>
        <time>2021-11-22T10:05:35.334Z</time>
      </trkpt>
      <trkpt lat="47.667233" lon="7.649960">
        <ele>299.790464</ele>
        <time>2021-11-22T10:05:39.118Z</time>
      </trkpt>
      <trkpt lat="47.667018" lon="7.650053">
        <ele>300.075960</ele>
        <time>2021-11-22T10:05:44.558Z</time>
      </trkpt>
      <trkpt lat="47.666915" lon="7.650090">
        <ele>300.211062</ele>
        <time>2021-11-22T10:05:46.571Z</time>
      </trkpt>
      <trkpt lat="47.666769" lon="7.650121">
        <ele>300.399091</ele>
        <time>2021-11-22T10:05:50.291Z</time>
      </trkpt>
      <trkpt lat="47.666469" lon="7.650140">
        <ele>300.781908</ele>
        <time>2021-11-22T10:05:56.394Z</time>
      </trkpt>
      <trkpt lat="47.666386" lon="7.650133">
        <ele>300.887895</ele>
        <time>2021-11-22T10:05:58.733Z</time>
      </trkpt>
      <trkpt lat="47.666293" lon="7.650120">
        <ele>301.006984</ele>
        <time>2021-11-22T10:06:00.556Z</time>
      </trkpt>
      <trkpt lat="47.666200" lon="7.650101">
        <ele>301.126667</ele>
        <time>2021-11-22T10:06:02.131Z</time>
      </trkpt>
      <trkpt lat="47.666026" lon="7.650050">
        <ele>301.352779</ele>
        <time>2021-11-22T10:06:06.043Z</time>
      </trkpt>
      <trkpt lat="47.665819" lon="7.649965">
        <ele>301.626588</ele>
        <time>2021-11-22T10:06:09.735Z</time>
      </trkpt>
      <trkpt lat="47.665608" lon="7.649864">
        <ele>301.909223</ele>
        <time>2021-11-22T10:06:13.950Z</time>
      </trkpt>
      <trkpt lat="47.664938" lon="7.649547">
        <ele>301.270201</ele>
        <time>2021-11-22T10:06:23.518Z</time>
      </trkpt>
      <trkpt lat="47.664259" lon="7.649241">
        <ele>300.566921</ele>
        <time>2021-11-22T10:06:31.552Z</time>
      </trkpt>
      <trkpt lat="47.663770" lon="7.649020">
        <ele>300.082605</ele>
        <time>2021-11-22T10:06:37.284Z</time>
      </trkpt>
      <trkpt lat="47.663508" lon="7.648914">
        <ele>299.874170</ele>
        <time>2021-11-22T10:06:40.396Z</time>
      </trkpt>
      <trkpt lat="47.663232" lon="7.648829">
        <ele>299.657811</ele>
        <time>2021-11-22T10:06:43.828Z</time>
      </trkpt>
      <trkpt lat="47.662696" lon="7.648801">
        <ele>299.246139</ele>
        <time>2021-11-22T10:06:50.711Z</time>
      </trkpt>
      <trkpt lat="47.661612" lon="7.649123">
        <ele>298.822344</ele>
        <time>2021-11-22T10:07:06.642Z</time>
      </trkpt>
      <trkpt lat="47.661297" lon="7.649197">
        <ele>298.850477</ele>
        <time>2021-11-22T10:07:11.767Z</time>
      </trkpt>
      <trkpt lat="47.661024" lon="7.649242">
        <ele>298.874708</ele>
        <time>2021-11-22T10:07:16.107Z</time>
      </trkpt>
      <trkpt lat="47.659268" lon="7.649321">
        <ele>298.601911</ele>
        <time>2021-11-22T10:07:42.443Z</time>
      </trkpt>
      <trkpt lat="47.658704" lon="7.649353">
        <ele>298.421335</ele>
        <time>2021-11-22T10:07:49.743Z</time>
      </trkpt>
      <trkpt lat="47.658594" lon="7.649360">
        <ele>298.386110</ele>
        <time>2021-11-22T10:07:51.008Z</time>
      </trkpt>
      <trkpt lat="47.658378" lon="7.649367">
        <ele>298.283318</ele>
        <time>2021-11-22T10:07:53.702Z</time>
      </trkpt>
      <trkpt lat="47.658190" lon="7.649367">
        <ele>298.177955</ele>
        <time>2021-11-22T10:07:55.866Z</time>
      </trkpt>
      <trkpt lat="47.657856" lon="7.649278">
        <ele>297.987776</ele>
        <time>2021-11-22T10:08:00.328Z</time>
      </trkpt>
      <trkpt lat="47.657517" lon="7.649055">
        <ele>297.779973</ele>
        <time>2021-11-22T10:08:05.534Z</time>
      </trkpt>
      <trkpt lat="47.657216" lon="7.648783">
        <ele>297.582489</ele>
        <time>2021-11-22T10:08:10.432Z</time>
      </trkpt>
      <trkpt lat="47.657192" lon="7.648762">
        <ele>297.566876</ele>
        <time>2021-11-22T10:08:10.740Z</time>
      </trkpt>
      <trkpt lat="47.657056" lon="7.648643">
        <ele>297.478403</ele>
        <time>2021-11-22T10:08:12.896Z</time>
      </trkpt>
      <trkpt lat="47.656846" lon="7.648502">
        <ele>297.352927</ele>
        <time>2021-11-22T10:08:15.914Z</time>
      </trkpt>
      <trkpt lat="47.656764" lon="7.648472">
        <ele>297.344353</ele>
        <time>2021-11-22T10:08:17.002Z</time>
      </trkpt>
      <trkpt lat="47.656655" lon="7.648456">
        <ele>297.333232</ele>
        <time>2021-11-22T10:08:18.754Z</time>
      </trkpt>
      <trkpt lat="47.656454" lon="7.648457">
        <ele>297.312825</ele>
        <time>2021-11-22T10:08:21.284Z</time>
      </trkpt>
      <trkpt lat="47.656305" lon="7.648458">
        <ele>297.297698</ele>
        <time>2021-11-22T10:08:23.198Z</time>
      </trkpt>
      <trkpt lat="47.656217" lon="7.648446">
        <ele>297.288726</ele>
        <time>2021-11-22T10:08:24.416Z</time>
      </trkpt>
      <trkpt lat="47.656037" lon="7.648382">
        <ele>297.269934</ele>
        <time>2021-11-22T10:08:26.501Z</time>
      </trkpt>
      <trkpt lat="47.655784" lon="7.648221">
        <ele>297.241988</ele>
        <time>2021-11-22T10:08:29.812Z</time>
      </trkpt>
      <trkpt lat="47.655695" lon="7.648164">
        <ele>297.232147</ele>
        <time>2021-11-22T10:08:31.375Z</time>
      </trkpt>
      <trkpt lat="47.655308" lon="7.647995">
        <ele>297.191192</ele>
        <time>2021-11-22T10:08:38.351Z</time>
      </trkpt>
      <trkpt lat="47.655058" lon="7.647893">
        <ele>297.353505</ele>
        <time>2021-11-22T10:08:43.653Z</time>
      </trkpt>
      <trkpt lat="47.654884" lon="7.647829">
        <ele>297.883296</ele>
        <time>2021-11-22T10:08:47.791Z</time>
      </trkpt>
      <trkpt lat="47.654669" lon="7.647768">
        <ele>298.530210</ele>
        <time>2021-11-22T10:08:52.269Z</time>
      </trkpt>
      <trkpt lat="47.654398" lon="7.647707">
        <ele>299.340282</ele>
        <time>2021-11-22T10:08:57.912Z</time>
      </trkpt>
      <trkpt lat="47.654392" lon="7.647811">
        <ele>299.548081</ele>
        <time>2021-11-22T10:08:59.989Z</time>
      </trkpt>
      <trkpt lat="47.654384" lon="7.647951">
        <ele>299.827790</ele>
        <time>2021-11-22T10:09:02.463Z</time>
      </trkpt>
      <trkpt lat="47.654381" lon="7.647997">
        <ele>299.919794</ele>
        <time>2021-11-22T10:09:03.311Z</time>
      </trkpt>
      <trkpt lat="47.654380" lon="7.648132">
        <ele>300.188564</ele>
        <time>2021-11-22T10:09:05.274Z</time>
      </trkpt>
      <trkpt lat="47.654380" lon="7.648290">
        <ele>300.503106</ele>
        <time>2021-11-22T10:09:08.230Z</time>
      </trkpt>
      <trkpt lat="47.654389" lon="7.648478">
        <ele>300.878316</ele>
        <time>2021-11-22T10:09:11.936Z</time>
      </trkpt>
      <trkpt lat="47.654417" lon="7.648789">
        <ele>301.502952</ele>
        <time>2021-11-22T10:09:17.797Z</time>
      </trkpt>
      <trkpt lat="47.654475" lon="7.649060">
        <ele>302.069027</ele>
        <time>2021-11-22T10:09:24.570Z</time>
      </trkpt>
      <trkpt lat="47.654478" lon="7.649070">
        <ele>302.090820</ele>
        <time>2021-11-22T10:09:25.017Z</time>
      </trkpt>
      <trkpt lat="47.654680" lon="7.649691">
        <ele>304.473420</ele>
        <time>2021-11-22T10:09:41.656Z</time>
      </trkpt>
      <trkpt lat="47.654845" lon="7.649980">
        <ele>306.007222</ele>
        <time>2021-11-22T10:09:52.699Z</time>
      </trkpt>
      <trkpt lat="47.655143" lon="7.650423">
        <ele>308.541955</ele>
        <time>2021-11-22T10:10:09.871Z</time>
      </trkpt>
      <trkpt lat="47.655167" lon="7.650459">
        <ele>308.747020</ele>
        <time>2021-11-22T10:10:11.148Z</time>
      </trkpt>
      <trkpt lat="47.655475" lon="7.650868">
        <ele>311.230754</ele>
        <time>2021-11-22T10:10:27.894Z</time>
      </trkpt>
      <trkpt lat="47.655781" lon="7.651370">
        <ele>314.124515</ele>
        <time>2021-11-22T10:10:45.256Z</time>
      </trkpt>
      <trkpt lat="47.655909" lon="7.651674">
        <ele>315.904745</ele>
        <time>2021-11-22T10:10:54.927Z</time>
      </trkpt>
      <trkpt lat="47.656059" lon="7.652111">
        <ele>318.340253</ele>
        <time>2021-11-22T10:11:07.829Z</time>
      </trkpt>
      <trkpt lat="47.656076" lon="7.652187">
        <ele>318.737908</ele>
        <time>2021-11-22T10:11:09.920Z</time>
      </trkpt>
      <trkpt lat="47.656109" lon="7.652341">
        <ele>319.540384</ele>
        <time>2021-11-22T10:11:14.008Z</time>
      </trkpt>
      <trkpt lat="47.656143" lon="7.652498">
        <ele>320.359294</ele>
        <time>2021-11-22T10:11:18.878Z</time>
      </trkpt>
      <trkpt lat="47.656186" lon="7.652807">
        <ele>321.926084</ele>
        <time>2021-11-22T10:11:27.876Z</time>
      </trkpt>
      <trkpt lat="47.656212" lon="7.653185">
        <ele>323.812860</ele>
        <time>2021-11-22T10:11:39.471Z</time>
      </trkpt>
      <trkpt lat="47.656210" lon="7.653412">
        <ele>324.940158</ele>
        <time>2021-11-22T10:11:46.354Z</time>
      </trkpt>
      <trkpt lat="47.656207" lon="7.653596">
        <ele>325.854105</ele>
        <time>2021-11-22T10:11:52.996Z</time>
      </trkpt>
      <trkpt lat="47.656195" lon="7.653874">
        <ele>327.752488</ele>
        <time>2021-11-22T10:12:02.320Z</time>
      </trkpt>
      <trkpt lat="47.656174" lon="7.654068">
        <ele>329.467126</ele>
        <time>2021-11-22T10:12:10.200Z</time>
      </trkpt>
      <trkpt lat="47.656164" lon="7.654122">
        <ele>329.955835</ele>
        <time>2021-11-22T10:12:13.008Z</time>
      </trkpt>
      <trkpt lat="47.656144" lon="7.654217">
        <ele>330.824389</ele>
        <time>2021-11-22T10:12:17.258Z</time>
      </trkpt>
      <trkpt lat="47.656116" lon="7.654357">
        <ele>332.098799</ele>
        <time>2021-11-22T10:12:23.232Z</time>
      </trkpt>
      <trkpt lat="47.656085" lon="7.654488">
        <ele>333.310451</ele>
        <time>2021-11-22T10:12:29.257Z</time>
      </trkpt>
      <trkpt lat="47.655713" lon="7.655938">
        <ele>346.850483</ele>
        <time>2021-11-22T10:13:42.095Z</time>
      </trkpt>
      <trkpt lat="47.655564" lon="7.656480">
        <ele>352.164037</ele>
        <time>2021-11-22T10:14:12.554Z</time>
      </trkpt>
      <trkpt lat="47.655326" lon="7.657650">
        <ele>363.871015</ele>
        <time>2021-11-22T10:15:15.638Z</time>
      </trkpt>
      <trkpt lat="47.655300" lon="7.658434">
        <ele>371.389834</ele>
        <time>2021-11-22T10:15:54.093Z</time>
      </trkpt>
      <trkpt lat="47.655331" lon="7.659110">
        <ele>377.291851</ele>
        <time>2021-11-22T10:16:22.754Z</time>
      </trkpt>
      <trkpt lat="47.655750" lon="7.662400">
        <ele>400.876041</ele>
        <time>2021-11-22T10:18:29.932Z</time>
      </trkpt>
      <trkpt lat="47.656453" lon="7.663849">
        <ele>412.324439</ele>
        <time>2021-11-22T10:19:32.573Z</time>
      </trkpt>
      <trkpt lat="47.656657" lon="7.664415">
        <ele>415.537943</ele>
        <time>2021-11-22T10:19:53.740Z</time>
      </trkpt>
      <trkpt lat="47.656672" lon="7.664611">
        <ele>416.525422</ele>
        <time>2021-11-22T10:20:00.057Z</time>
      </trkpt>
      <trkpt lat="47.656545" lon="7.665072">
        <ele>419.018723</ele>
        <time>2021-11-22T10:20:15.548Z</time>
      </trkpt>
      <trkpt lat="47.656238" lon="7.665541">
        <ele>422.292544</ele>
        <time>2021-11-22T10:20:34.738Z</time>
      </trkpt>
      <trkpt lat="47.656135" lon="7.665584">
        <ele>423.087724</ele>
        <time>2021-11-22T10:20:39.179Z</time>
      </trkpt>
      <trkpt lat="47.655640" lon="7.665482">
        <ele>426.178762</ele>
        <time>2021-11-22T10:20:58.592Z</time>
      </trkpt>
      <trkpt lat="47.655125" lon="7.665244">
        <ele>428.341785</ele>
        <time>2021-11-22T10:21:17.025Z</time>
      </trkpt>
      <trkpt lat="47.654628" lon="7.665319">
        <ele>430.345143</ele>
        <time>2021-11-22T10:21:32.260Z</time>
      </trkpt>
      <trkpt lat="47.654439" lon="7.665456">
        <ele>431.188602</ele>
        <time>2021-11-22T10:21:38.221Z</time>
      </trkpt>
      <trkpt lat="47.653055" lon="7.667399">
        <ele>434.727134</ele>
        <time>2021-11-22T10:22:20.757Z</time>
      </trkpt>
      <trkpt lat="47.652935" lon="7.667579">
        <ele>434.956312</ele>
        <time>2021-11-22T10:22:23.273Z</time>
      </trkpt>
      <trkpt lat="47.652917" lon="7.667601">
        <ele>434.987635</ele>
        <time>2021-11-22T10:22:23.533Z</time>
      </trkpt>
      <trkpt lat="47.652647" lon="7.667962">
        <ele>434.066045</ele>
        <time>2021-11-22T10:22:27.900Z</time>
      </trkpt>
      <trkpt lat="47.652507" lon="7.668197">
        <ele>433.344118</ele>
        <time>2021-11-22T10:22:30.284Z</time>
      </trkpt>
      <trkpt lat="47.652450" lon="7.668312">
        <ele>433.015561</ele>
        <time>2021-11-22T10:22:31.409Z</time>
      </trkpt>
      <trkpt lat="47.652415" lon="7.668465">
        <ele>432.643729</ele>
        <time>2021-11-22T10:22:32.527Z</time>
      </trkpt>
      <trkpt lat="47.652366" lon="7.668781">
        <ele>431.897530</ele>
        <time>2021-11-22T10:22:34.947Z</time>
      </trkpt>
      <trkpt lat="47.652350" lon="7.669122">
        <ele>431.110916</ele>
        <time>2021-11-22T10:22:37.133Z</time>
      </trkpt>
      <trkpt lat="47.652245" lon="7.669610">
        <ele>429.932030</ele>
        <time>2021-11-22T10:22:40.395Z</time>
      </trkpt>
      <trkpt lat="47.651804" lon="7.670710">
        <ele>424.383908</ele>
        <time>2021-11-22T10:22:48.166Z</time>
      </trkpt>
      <trkpt lat="47.651649" lon="7.671026">
        <ele>422.282110</ele>
        <time>2021-11-22T10:22:50.459Z</time>
      </trkpt>
      <trkpt lat="47.651614" lon="7.671110">
        <ele>421.751036</ele>
        <time>2021-11-22T10:22:51.057Z</time>
      </trkpt>
      <trkpt lat="47.651238" lon="7.671710">
        <ele>417.344778</ele>
        <time>2021-11-22T10:22:55.942Z</time>
      </trkpt>
      <trkpt lat="47.650075" lon="7.673427">
        <ele>400.848700</ele>
        <time>2021-11-22T10:23:10.114Z</time>
      </trkpt>
      <trkpt lat="47.649665" lon="7.673798">
        <ele>395.752466</ele>
        <time>2021-11-22T10:23:14.168Z</time>
      </trkpt>
      <trkpt lat="47.649516" lon="7.673905">
        <ele>393.577977</ele>
        <time>2021-11-22T10:23:15.551Z</time>
      </trkpt>
      <trkpt lat="47.648515" lon="7.674168">
        <ele>379.766807</ele>
        <time>2021-11-22T10:23:24.038Z</time>
      </trkpt>
      <trkpt lat="47.647684" lon="7.674376">
        <ele>369.530103</ele>
        <time>2021-11-22T10:23:31.059Z</time>
      </trkpt>
      <trkpt lat="47.647541" lon="7.674506">
        <ele>368.262793</ele>
        <time>2021-11-22T10:23:32.489Z</time>
      </trkpt>
      <trkpt lat="47.647318" lon="7.674878">
        <ele>365.727506</ele>
        <time>2021-11-22T10:23:35.375Z</time>
      </trkpt>
      <trkpt lat="47.647154" lon="7.675375">
        <ele>362.909800</ele>
        <time>2021-11-22T10:23:38.698Z</time>
      </trkpt>
      <trkpt lat="47.647051" lon="7.675743">
        <ele>360.880863</ele>
        <time>2021-11-22T10:23:41.175Z</time>
      </trkpt>
      <trkpt lat="47.646957" lon="7.676149">
        <ele>358.695047</ele>
        <time>2021-11-22T10:23:44.092Z</time>
      </trkpt>
      <trkpt lat="47.646928" lon="7.677359">
        <ele>357.549311</ele>
        <time>2021-11-22T10:23:54.765Z</time>
      </trkpt>
      <trkpt lat="47.646862" lon="7.677751">
        <ele>357.587800</ele>
        <time>2021-11-22T10:23:58.823Z</time>
      </trkpt>
      <trkpt lat="47.646778" lon="7.677951">
        <ele>357.610249</ele>
        <time>2021-11-22T10:24:02.817Z</time>
      </trkpt>
      <trkpt lat="47.646053" lon="7.678878">
        <ele>357.434279</ele>
        <time>2021-11-22T10:24:22.475Z</time>
      </trkpt>
      <trkpt lat="47.645821" lon="7.679140">
        <ele>357.099204</ele>
        <time>2021-11-22T10:24:27.213Z</time>
      </trkpt>
      <trkpt lat="47.644455" lon="7.680425">
        <ele>354.416165</ele>
        <time>2021-11-22T10:24:44.841Z</time>
      </trkpt>
      <trkpt lat="47.644142" lon="7.680540">
        <ele>353.288958</ele>
        <time>2021-11-22T10:24:48.091Z</time>
      </trkpt>
      <trkpt lat="47.643017" lon="7.680763">
        <ele>349.294366</ele>
        <time>2021-11-22T10:24:59.271Z</time>
      </trkpt>
      <trkpt lat="47.642345" lon="7.681224">
        <ele>344.721020</ele>
        <time>2021-11-22T10:25:06.206Z</time>
      </trkpt>
      <trkpt lat="47.642006" lon="7.681456">
        <ele>342.414900</ele>
        <time>2021-11-22T10:25:09.624Z</time>
      </trkpt>
      <trkpt lat="47.641616" lon="7.681644">
        <ele>339.881737</ele>
        <time>2021-11-22T10:25:13.303Z</time>
      </trkpt>
      <trkpt lat="47.641068" lon="7.681758">
        <ele>335.488827</ele>
        <time>2021-11-22T10:25:18.191Z</time>
      </trkpt>
      <trkpt lat="47.640693" lon="7.681760">
        <ele>331.905160</ele>
        <time>2021-11-22T10:25:21.453Z</time>
      </trkpt>
      <trkpt lat="47.639175" lon="7.681624">
        <ele>318.194521</ele>
        <time>2021-11-22T10:25:34.494Z</time>
      </trkpt>
      <trkpt lat="47.638900" lon="7.681595">
        <ele>316.147953</ele>
        <time>2021-11-22T10:25:36.892Z</time>
      </trkpt>
      <trkpt lat="47.638636" lon="7.681567">
        <ele>314.183190</ele>
        <time>2021-11-22T10:25:39.239Z</time>
      </trkpt>
      <trkpt lat="47.638116" lon="7.681592">
        <ele>310.321023</ele>
        <time>2021-11-22T10:25:43.945Z</time>
      </trkpt>
      <trkpt lat="47.637803" lon="7.681627">
        <ele>307.990928</ele>
        <time>2021-11-22T10:25:46.888Z</time>
      </trkpt>
      <trkpt lat="47.637803" lon="7.681627">
        <ele>307.990928</ele>
        <time>2021-11-22T10:25:46.896Z</time>
      </trkpt>
      <trkpt lat="47.637862" lon="7.681907">
        <ele>307.411973</ele>
        <time>2021-11-22T10:25:48.835Z</time>
      </trkpt>
      <trkpt lat="47.637949" lon="7.682314">
        <ele>306.882916</ele>
        <time>2021-11-22T10:25:51.754Z</time>
      </trkpt>
      <trkpt lat="47.638372" lon="7.683486">
        <ele>305.235566</ele>
        <time>2021-11-22T10:26:02.663Z</time>
      </trkpt>
      <trkpt lat="47.638653" lon="7.684040">
        <ele>304.393312</ele>
        <time>2021-11-22T10:26:08.773Z</time>
      </trkpt>
      <trkpt lat="47.638822" lon="7.684303">
        <ele>304.310974</ele>
        <time>2021-11-22T10:26:12.290Z</time>
      </trkpt>
      <trkpt lat="47.638795" lon="7.684369">
        <ele>304.293481</ele>
        <time>2021-11-22T10:26:12.930Z</time>
      </trkpt>
      <trkpt lat="47.638791" lon="7.684447">
        <ele>304.275758</ele>
        <time>2021-11-22T10:26:13.597Z</time>
      </trkpt>
      <trkpt lat="47.638813" lon="7.684519">
        <ele>304.257846</ele>
        <time>2021-11-22T10:26:14.249Z</time>
      </trkpt>
      <trkpt lat="47.638848" lon="7.684561">
        <ele>304.242712</ele>
        <time>2021-11-22T10:26:14.983Z</time>
      </trkpt>
      <trkpt lat="47.638937" lon="7.684569">
        <ele>304.212731</ele>
        <time>2021-11-22T10:26:16.164Z</time>
      </trkpt>
      <trkpt lat="47.638975" lon="7.684532">
        <ele>304.197449</ele>
        <time>2021-11-22T10:26:16.970Z</time>
      </trkpt>
      <trkpt lat="47.639195" lon="7.684892">
        <ele>304.087338</ele>
        <time>2021-11-22T10:26:21.292Z</time>
      </trkpt>
      <trkpt lat="47.639233" lon="7.684970">
        <ele>304.065531</ele>
        <time>2021-11-22T10:26:22.285Z</time>
      </trkpt>
      <trkpt lat="47.639365" lon="7.685244">
        <ele>303.989218</ele>
        <time>2021-11-22T10:26:25.213Z</time>
      </trkpt>
      <trkpt lat="47.639535" lon="7.685723">
        <ele>303.866562</ele>
        <time>2021-11-22T10:26:30.125Z</time>
      </trkpt>
      <trkpt lat="47.639603" lon="7.685917">
        <ele>303.817018</ele>
        <time>2021-11-22T10:26:32.235Z</time>
      </trkpt>
      <trkpt lat="47.640138" lon="7.687577">
        <ele>304.342712</ele>
        <time>2021-11-22T10:26:51.435Z</time>
      </trkpt>
      <trkpt lat="47.640307" lon="7.687981">
        <ele>304.493906</ele>
        <time>2021-11-22T10:26:57.281Z</time>
      </trkpt>
      <trkpt lat="47.640498" lon="7.688336">
        <ele>304.638349</ele>
        <time>2021-11-22T10:27:03.055Z</time>
      </trkpt>
      <trkpt lat="47.640572" lon="7.688417">
        <ele>304.794764</ele>
        <time>2021-11-22T10:27:05.361Z</time>
      </trkpt>
      <trkpt lat="47.641094" lon="7.688925">
        <ele>305.907945</ele>
        <time>2021-11-22T10:27:18.319Z</time>
      </trkpt>
      <trkpt lat="47.641908" lon="7.690348">
        <ele>308.046155</ele>
        <time>2021-11-22T10:27:47.940Z</time>
      </trkpt>
      <trkpt lat="47.642386" lon="7.691121">
        <ele>308.869991</ele>
        <time>2021-11-22T10:28:02.786Z</time>
      </trkpt>
      <trkpt lat="47.642473" lon="7.691337">
        <ele>309.067587</ele>
        <time>2021-11-22T10:28:06.108Z</time>
      </trkpt>
      <trkpt lat="47.642598" lon="7.691781">
        <ele>309.445422</ele>
        <time>2021-11-22T10:28:12.464Z</time>
      </trkpt>
      <trkpt lat="47.642688" lon="7.692211">
        <ele>309.798968</ele>
        <time>2021-11-22T10:28:17.476Z</time>
      </trkpt>
      <trkpt lat="47.642769" lon="7.692680">
        <ele>309.804211</ele>
        <time>2021-11-22T10:28:22.505Z</time>
      </trkpt>
      <trkpt lat="47.642813" lon="7.693423">
        <ele>309.452885</ele>
        <time>2021-11-22T10:28:28.928Z</time>
      </trkpt>
      <trkpt lat="47.642838" lon="7.693571">
        <ele>309.381015</ele>
        <time>2021-11-22T10:28:30.149Z</time>
      </trkpt>
      <trkpt lat="47.642878" lon="7.693814">
        <ele>309.263188</ele>
        <time>2021-11-22T10:28:32.175Z</time>
      </trkpt>
      <trkpt lat="47.642923" lon="7.693980">
        <ele>309.178906</ele>
        <time>2021-11-22T10:28:33.719Z</time>
      </trkpt>
      <trkpt lat="47.642795" lon="7.694159">
        <ele>309.055955</ele>
        <time>2021-11-22T10:28:35.718Z</time>
      </trkpt>
      <trkpt lat="47.642663" lon="7.694256">
        <ele>308.952980</ele>
        <time>2021-11-22T10:28:37.633Z</time>
      </trkpt>
      <trkpt lat="47.642408" lon="7.694445">
        <ele>308.753713</ele>
        <time>2021-11-22T10:28:41.103Z</time>
      </trkpt>
      <trkpt lat="47.642142" lon="7.694611">
        <ele>308.591189</ele>
        <time>2021-11-22T10:28:44.540Z</time>
      </trkpt>
      <trkpt lat="47.642058" lon="7.694662">
        <ele>308.546121</ele>
        <time>2021-11-22T10:28:45.798Z</time>
      </trkpt>
      <trkpt lat="47.642005" lon="7.694694">
        <ele>308.517708</ele>
        <time>2021-11-22T10:28:46.510Z</time>
      </trkpt>
      <trkpt lat="47.641927" lon="7.694746">
        <ele>308.475247</ele>
        <time>2021-11-22T10:28:47.551Z</time>
      </trkpt>
      <trkpt lat="47.641527" lon="7.694989">
        <ele>308.260620</ele>
        <time>2021-11-22T10:28:52.829Z</time>
      </trkpt>
      <trkpt lat="47.641385" lon="7.695039">
        <ele>308.188149</ele>
        <time>2021-11-22T10:28:54.756Z</time>
      </trkpt>
      <trkpt lat="47.641256" lon="7.695065">
        <ele>308.123502</ele>
        <time>2021-11-22T10:28:56.463Z</time>
      </trkpt>
      <trkpt lat="47.640982" lon="7.695057">
        <ele>307.987414</ele>
        <time>2021-11-22T10:29:00.368Z</time>
      </trkpt>
      <trkpt lat="47.640444" lon="7.695011">
        <ele>307.841611</ele>
        <time>2021-11-22T10:29:08.747Z</time>
      </trkpt>
      <trkpt lat="47.640267" lon="7.695017">
        <ele>307.897725</ele>
        <time>2021-11-22T10:29:11.851Z</time>
      </trkpt>
      <trkpt lat="47.639986" lon="7.695026">
        <ele>307.986809</ele>
        <time>2021-11-22T10:29:16.503Z</time>
      </trkpt>
      <trkpt lat="47.639972" lon="7.695026">
        <ele>307.991246</ele>
        <time>2021-11-22T10:29:16.793Z</time>
      </trkpt>
      <trkpt lat="47.639897" lon="7.695031">
        <ele>308.015041</ele>
        <time>2021-11-22T10:29:18.032Z</time>
      </trkpt>
      <trkpt lat="47.639833" lon="7.695037">
        <ele>308.035366</ele>
        <time>2021-11-22T10:29:19.060Z</time>
      </trkpt>
      <trkpt lat="47.639796" lon="7.695040">
        <ele>308.047111</ele>
        <time>2021-11-22T10:29:19.645Z</time>
      </trkpt>
      <trkpt lat="47.639745" lon="7.695043">
        <ele>308.063288</ele>
        <time>2021-11-22T10:29:20.469Z</time>
      </trkpt>
      <trkpt lat="47.639478" lon="7.695062">
        <ele>308.148010</ele>
        <time>2021-11-22T10:29:24.841Z</time>
      </trkpt>
      <trkpt lat="47.639240" lon="7.695052">
        <ele>308.223475</ele>
        <time>2021-11-22T10:29:28.631Z</time>
      </trkpt>
      <trkpt lat="47.639193" lon="7.695045">
        <ele>308.238446</ele>
        <time>2021-11-22T10:29:29.382Z</time>
      </trkpt>
      <trkpt lat="47.639024" lon="7.695016">
        <ele>308.292367</ele>
        <time>2021-11-22T10:29:31.988Z</time>
      </trkpt>
      <trkpt lat="47.638778" lon="7.694959">
        <ele>308.378899</ele>
        <time>2021-11-22T10:29:35.920Z</time>
      </trkpt>
      <trkpt lat="47.638565" lon="7.694903">
        <ele>308.521595</ele>
        <time>2021-11-22T10:29:39.191Z</time>
      </trkpt>
      <trkpt lat="47.638359" lon="7.694849">
        <ele>308.659590</ele>
        <time>2021-11-22T10:29:42.732Z</time>
      </trkpt>
      <trkpt lat="47.638336" lon="7.694843">
        <ele>308.674995</ele>
        <time>2021-11-22T10:29:43.102Z</time>
      </trkpt>
      <trkpt lat="47.638108" lon="7.694783">
        <ele>308.827744</ele>
        <time>2021-11-22T10:29:47.001Z</time>
      </trkpt>
      <trkpt lat="47.637884" lon="7.694724">
        <ele>308.977818</ele>
        <time>2021-11-22T10:29:50.831Z</time>
      </trkpt>
      <trkpt lat="47.637761" lon="7.694689">
        <ele>309.060435</ele>
        <time>2021-11-22T10:29:53.141Z</time>
      </trkpt>
      <trkpt lat="47.637648" lon="7.694652">
        <ele>309.136770</ele>
        <time>2021-11-22T10:29:55.218Z</time>
      </trkpt>
      <trkpt lat="47.637504" lon="7.694589">
        <ele>309.235803</ele>
        <time>2021-11-22T10:29:57.865Z</time>
      </trkpt>
      <trkpt lat="47.637408" lon="7.694555">
        <ele>309.300909</ele>
        <time>2021-11-22T10:29:59.707Z</time>
      </trkpt>
      <trkpt lat="47.637356" lon="7.694533">
        <ele>309.336578</ele>
        <time>2021-11-22T10:30:00.706Z</time>
      </trkpt>
      <trkpt lat="47.637176" lon="7.694468">
        <ele>309.458782</ele>
        <time>2021-11-22T10:30:03.989Z</time>
      </trkpt>
      <trkpt lat="47.636627" lon="7.694220">
        <ele>310.005034</ele>
        <time>2021-11-22T10:30:15.248Z</time>
      </trkpt>
      <trkpt lat="47.636107" lon="7.693985">
        <ele>310.573412</ele>
        <time>2021-11-22T10:30:26.501Z</time>
      </trkpt>
      <trkpt lat="47.635549" lon="7.693752">
        <ele>311.179527</ele>
        <time>2021-11-22T10:30:37.492Z</time>
      </trkpt>
      <trkpt lat="47.635429" lon="7.693811">
        <ele>311.311710</ele>
        <time>2021-11-22T10:30:40.116Z</time>
      </trkpt>
      <trkpt lat="47.635319" lon="7.693560">
        <ele>311.460905</ele>
        <time>2021-11-22T10:30:43.198Z</time>
      </trkpt>
      <trkpt lat="47.635263" lon="7.693458">
        <ele>311.490840</ele>
        <time>2021-11-22T10:30:44.745Z</time>
      </trkpt>
      <trkpt lat="47.635194" lon="7.693332">
        <ele>311.527781</ele>
        <time>2021-11-22T10:30:46.691Z</time>
      </trkpt>
      <trkpt lat="47.635074" lon="7.693170">
        <ele>311.582556</ele>
        <time>2021-11-22T10:30:48.928Z</time>
      </trkpt>
      <trkpt lat="47.634913" lon="7.692997">
        <ele>311.649672</ele>
        <time>2021-11-22T10:30:52.108Z</time>
      </trkpt>
      <trkpt lat="47.634764" lon="7.692840">
        <ele>311.711374</ele>
        <time>2021-11-22T10:30:54.578Z</time>
      </trkpt>
      <trkpt lat="47.634614" lon="7.692696">
        <ele>311.771695</ele>
        <time>2021-11-22T10:30:57.448Z</time>
      </trkpt>
      <trkpt lat="47.634464" lon="7.692573">
        <ele>311.829560</ele>
        <time>2021-11-22T10:30:59.760Z</time>
      </trkpt>
      <trkpt lat="47.634405" lon="7.692546">
        <ele>311.850407</ele>
        <time>2021-11-22T10:31:00.860Z</time>
      </trkpt>
      <trkpt lat="47.634345" lon="7.692519">
        <ele>311.871577</ele>
        <time>2021-11-22T10:31:02.004Z</time>
      </trkpt>
      <trkpt lat="47.634216" lon="7.692469">
        <ele>311.916595</ele>
        <time>2021-11-22T10:31:03.840Z</time>
      </trkpt>
      <trkpt lat="47.633633" lon="7.692190">
        <ele>312.677856</ele>
        <time>2021-11-22T10:31:14.129Z</time>
      </trkpt>
      <trkpt lat="47.633588" lon="7.692141">
        <ele>312.820106</ele>
        <time>2021-11-22T10:31:14.955Z</time>
      </trkpt>
      <trkpt lat="47.633399" lon="7.692413">
        <ele>313.491105</ele>
        <time>2021-11-22T10:31:20.879Z</time>
      </trkpt>
      <trkpt lat="47.633266" lon="7.692577">
        <ele>313.931818</ele>
        <time>2021-11-22T10:31:24.248Z</time>
      </trkpt>
      <trkpt lat="47.633202" lon="7.692660">
        <ele>314.148439</ele>
        <time>2021-11-22T10:31:26.431Z</time>
      </trkpt>
      <trkpt lat="47.633173" lon="7.692695">
        <ele>314.243706</ele>
        <time>2021-11-22T10:31:27.515Z</time>
      </trkpt>
      <trkpt lat="47.633091" lon="7.692798">
        <ele>314.517507</ele>
        <time>2021-11-22T10:31:29.625Z</time>
      </trkpt>
      <trkpt lat="47.632822" lon="7.693157">
        <ele>315.439549</ele>
        <time>2021-11-22T10:31:38.708Z</time>
      </trkpt>
      <trkpt lat="47.632763" lon="7.693227">
        <ele>315.632067</ele>
        <time>2021-11-22T10:31:40.589Z</time>
      </trkpt>
      <trkpt lat="47.632642" lon="7.693416">
        <ele>316.079798</ele>
        <time>2021-11-22T10:31:46.510Z</time>
      </trkpt>
      <trkpt lat="47.632526" lon="7.693622">
        <ele>316.540855</ele>
        <time>2021-11-22T10:31:52.843Z</time>
      </trkpt>
      <trkpt lat="47.632440" lon="7.693874">
        <ele>317.304811</ele>
        <time>2021-11-22T10:32:00.659Z</time>
      </trkpt>
      <trkpt lat="47.632297" lon="7.694443">
        <ele>319.069021</ele>
        <time>2021-11-22T10:32:15.683Z</time>
      </trkpt>
      <trkpt lat="47.632229" lon="7.694703">
        <ele>319.879238</ele>
        <time>2021-11-22T10:32:22.275Z</time>
      </trkpt>
      <trkpt lat="47.632164" lon="7.694950">
        <ele>320.649571</ele>
        <time>2021-11-22T10:32:28.651Z</time>
      </trkpt>
      <trkpt lat="47.632096" lon="7.695178">
        <ele>321.373906</ele>
        <time>2021-11-22T10:32:34.373Z</time>
      </trkpt>
      <trkpt lat="47.632076" lon="7.695243">
        <ele>321.581491</ele>
        <time>2021-11-22T10:32:35.972Z</time>
      </trkpt>
      <trkpt lat="47.631985" lon="7.695469">
        <ele>322.346319</ele>
        <time>2021-11-22T10:32:40.830Z</time>
      </trkpt>
      <trkpt lat="47.631973" lon="7.695502">
        <ele>322.455255</ele>
        <time>2021-11-22T10:32:43.009Z</time>
      </trkpt>
      <trkpt lat="47.631911" lon="7.695669">
        <ele>323.009163</ele>
        <time>2021-11-22T10:32:45.676Z</time>
      </trkpt>
      <trkpt lat="47.631816" lon="7.695863">
        <ele>323.705842</ele>
        <time>2021-11-22T10:32:50.122Z</time>
      </trkpt>
      <trkpt lat="47.631501" lon="7.695775">
        <ele>324.547383</ele>
        <time>2021-11-22T10:32:59.852Z</time>
      </trkpt>
      <trkpt lat="47.630920" lon="7.695687">
        <ele>325.151919</ele>
        <time>2021-11-22T10:33:17.061Z</time>
      </trkpt>
      <trkpt lat="47.630798" lon="7.695688">
        <ele>325.278207</ele>
        <time>2021-11-22T10:33:20.155Z</time>
      </trkpt>
      <trkpt lat="47.630492" lon="7.695689">
        <ele>325.594958</ele>
        <time>2021-11-22T10:33:27.821Z</time>
      </trkpt>
      <trkpt lat="47.629730" lon="7.695969">
        <ele>326.253452</ele>
        <time>2021-11-22T10:33:41.298Z</time>
      </trkpt>
      <trkpt lat="47.629568" lon="7.696115">
        <ele>326.270809</ele>
        <time>2021-11-22T10:33:44.833Z</time>
      </trkpt>
      <trkpt lat="47.629210" lon="7.696607">
        <ele>326.315496</ele>
        <time>2021-11-22T10:33:53.995Z</time>
      </trkpt>
      <trkpt lat="47.628516" lon="7.697169">
        <ele>326.387900</ele>
        <time>2021-11-22T10:34:11.589Z</time>
      </trkpt>
      <trkpt lat="47.628021" lon="7.697269">
        <ele>327.062328</ele>
        <time>2021-11-22T10:34:23.630Z</time>
      </trkpt>
      <trkpt lat="47.627884" lon="7.697343">
        <ele>327.351457</ele>
        <time>2021-11-22T10:34:26.611Z</time>
      </trkpt>
      <trkpt lat="47.627231" lon="7.697773">
        <ele>328.768228</ele>
        <time>2021-11-22T10:34:42.857Z</time>
      </trkpt>
      <trkpt lat="47.626452" lon="7.698602">
        <ele>331.097481</ele>
        <time>2021-11-22T10:35:07.747Z</time>
      </trkpt>
      <trkpt lat="47.626086" lon="7.698992">
        <ele>332.538274</ele>
        <time>2021-11-22T10:35:20.295Z</time>
      </trkpt>
      <trkpt lat="47.625461" lon="7.699273">
        <ele>334.626426</ele>
        <time>2021-11-22T10:35:38.897Z</time>
      </trkpt>
      <trkpt lat="47.625309" lon="7.699433">
        <ele>335.222328</ele>
        <time>2021-11-22T10:35:44.325Z</time>
      </trkpt>
      <trkpt lat="47.624857" lon="7.700230">
        <ele>337.468433</ele>
        <time>2021-11-22T10:36:04.208Z</time>
      </trkpt>
      <trkpt lat="47.624323" lon="7.701445">
        <ele>340.596821</ele>
        <time>2021-11-22T10:36:28.797Z</time>
      </trkpt>
      <trkpt lat="47.623958" lon="7.701951">
        <ele>342.649658</ele>
        <time>2021-11-22T10:36:45.062Z</time>
      </trkpt>
      <trkpt lat="47.623648" lon="7.702270">
        <ele>344.620356</ele>
        <time>2021-11-22T10:36:56.989Z</time>
      </trkpt>
      <trkpt lat="47.623513" lon="7.702279">
        <ele>345.326264</ele>
        <time>2021-11-22T10:37:00.605Z</time>
      </trkpt>
      <trkpt lat="47.623205" lon="7.702085">
        <ele>347.074138</ele>
        <time>2021-11-22T10:37:12.542Z</time>
      </trkpt>
      <trkpt lat="47.623108" lon="7.702060">
        <ele>347.588423</ele>
        <time>2021-11-22T10:37:15.402Z</time>
      </trkpt>
      <trkpt lat="47.622996" lon="7.702123">
        <ele>348.214111</ele>
        <time>2021-11-22T10:37:21.426Z</time>
      </trkpt>
      <trkpt lat="47.622874" lon="7.702287">
        <ele>349.074076</ele>
        <time>2021-11-22T10:37:26.877Z</time>
      </trkpt>
      <trkpt lat="47.622692" lon="7.702977">
        <ele>352.132735</ele>
        <time>2021-11-22T10:37:48.106Z</time>
      </trkpt>
      <trkpt lat="47.622344" lon="7.703662">
        <ele>356.829521</ele>
        <time>2021-11-22T10:38:14.571Z</time>
      </trkpt>
      <trkpt lat="47.621888" lon="7.704755">
        <ele>363.867945</ele>
        <time>2021-11-22T10:38:58.083Z</time>
      </trkpt>
      <trkpt lat="47.621789" lon="7.705094">
        <ele>365.892990</ele>
        <time>2021-11-22T10:39:10.424Z</time>
      </trkpt>
      <trkpt lat="47.621611" lon="7.706298">
        <ele>372.677144</ele>
        <time>2021-11-22T10:39:51.008Z</time>
      </trkpt>
      <trkpt lat="47.621593" lon="7.707590">
        <ele>379.789636</ele>
        <time>2021-11-22T10:40:32.532Z</time>
      </trkpt>
      <trkpt lat="47.621520" lon="7.707900">
        <ele>380.988533</ele>
        <time>2021-11-22T10:40:42.276Z</time>
      </trkpt>
      <trkpt lat="47.621330" lon="7.708277">
        <ele>382.473816</ele>
        <time>2021-11-22T10:40:55.293Z</time>
      </trkpt>
      <trkpt lat="47.621059" lon="7.709139">
        <ele>385.474964</ele>
        <time>2021-11-22T10:41:18.132Z</time>
      </trkpt>
      <trkpt lat="47.620944" lon="7.709648">
        <ele>387.168824</ele>
        <time>2021-11-22T10:41:28.802Z</time>
      </trkpt>
      <trkpt lat="47.620838" lon="7.710891">
        <ele>388.684880</ele>
        <time>2021-11-22T10:41:45.743Z</time>
      </trkpt>
      <trkpt lat="47.620668" lon="7.711439">
        <ele>388.755517</ele>
        <time>2021-11-22T10:41:51.226Z</time>
      </trkpt>
      <trkpt lat="47.620583" lon="7.712051">
        <ele>388.828683</ele>
        <time>2021-11-22T10:41:56.351Z</time>
      </trkpt>
      <trkpt lat="47.620562" lon="7.712881">
        <ele>389.048905</ele>
        <time>2021-11-22T10:42:03.261Z</time>
      </trkpt>
      <trkpt lat="47.620355" lon="7.714031">
        <ele>389.948939</ele>
        <time>2021-11-22T10:42:17.560Z</time>
      </trkpt>
      <trkpt lat="47.620154" lon="7.714902">
        <ele>390.645070</ele>
        <time>2021-11-22T10:42:30.701Z</time>
      </trkpt>
      <trkpt lat="47.620083" lon="7.715138">
        <ele>390.840489</ele>
        <time>2021-11-22T10:42:35.904Z</time>
      </trkpt>
      <trkpt lat="47.619370" lon="7.716703">
        <ele>392.887996</ele>
        <time>2021-11-22T10:43:07.258Z</time>
      </trkpt>
      <trkpt lat="47.619222" lon="7.716913">
        <ele>393.223286</ele>
        <time>2021-11-22T10:43:11.354Z</time>
      </trkpt>
      <trkpt lat="47.619037" lon="7.717037">
        <ele>393.555646</ele>
        <time>2021-11-22T10:43:14.622Z</time>
      </trkpt>
      <trkpt lat="47.618344" lon="7.717282">
        <ele>393.853606</ele>
        <time>2021-11-22T10:43:23.996Z</time>
      </trkpt>
      <trkpt lat="47.617832" lon="7.717579">
        <ele>393.840701</ele>
        <time>2021-11-22T10:43:31.040Z</time>
      </trkpt>
      <trkpt lat="47.617441" lon="7.717849">
        <ele>393.830578</ele>
        <time>2021-11-22T10:43:36.946Z</time>
      </trkpt>
      <trkpt lat="47.617269" lon="7.718018">
        <ele>393.825735</ele>
        <time>2021-11-22T10:43:40.033Z</time>
      </trkpt>
      <trkpt lat="47.617098" lon="7.718278">
        <ele>394.309067</ele>
        <time>2021-11-22T10:43:44.119Z</time>
      </trkpt>
      <trkpt lat="47.616298" lon="7.719670">
        <ele>398.134325</ele>
        <time>2021-11-22T10:44:16.599Z</time>
      </trkpt>
      <trkpt lat="47.615890" lon="7.720244">
        <ele>400.148353</ele>
        <time>2021-11-22T10:44:37.359Z</time>
      </trkpt>
      <trkpt lat="47.615630" lon="7.720579">
        <ele>401.822862</ele>
        <time>2021-11-22T10:44:50.136Z</time>
      </trkpt>
      <trkpt lat="47.615394" lon="7.720757">
        <ele>403.110197</ele>
        <time>2021-11-22T10:44:59.533Z</time>
      </trkpt>
      <trkpt lat="47.615110" lon="7.720843">
        <ele>404.519601</ele>
        <time>2021-11-22T10:45:09.826Z</time>
      </trkpt>
      <trkpt lat="47.614657" lon="7.720991">
        <ele>406.775064</ele>
        <time>2021-11-22T10:45:25.513Z</time>
      </trkpt>
      <trkpt lat="47.614307" lon="7.721193">
        <ele>408.508883</ele>
        <time>2021-11-22T10:45:38.079Z</time>
      </trkpt>
      <trkpt lat="47.613293" lon="7.722239">
        <ele>413.288015</ele>
        <time>2021-11-22T10:46:14.502Z</time>
      </trkpt>
      <trkpt lat="47.613151" lon="7.722474">
        <ele>414.111240</ele>
        <time>2021-11-22T10:46:20.838Z</time>
      </trkpt>
      <trkpt lat="47.612626" lon="7.724023">
        <ele>418.204183</ele>
        <time>2021-11-22T10:46:56.067Z</time>
      </trkpt>
      <trkpt lat="47.612294" lon="7.725494">
        <ele>421.153749</ele>
        <time>2021-11-22T10:47:26.660Z</time>
      </trkpt>
      <trkpt lat="47.611696" lon="7.727069">
        <ele>420.638897</ele>
        <time>2021-11-22T10:47:43.639Z</time>
      </trkpt>
      <trkpt lat="47.611558" lon="7.727374">
        <ele>420.534273</ele>
        <time>2021-11-22T10:47:46.333Z</time>
      </trkpt>
      <trkpt lat="47.611673" lon="7.727743">
        <ele>419.996996</ele>
        <time>2021-11-22T10:47:49.061Z</time>
      </trkpt>
      <trkpt lat="47.611794" lon="7.728207">
        <ele>418.437130</ele>
        <time>2021-11-22T10:47:52.358Z</time>
      </trkpt>
      <trkpt lat="47.612102" lon="7.728839">
        <ele>415.992032</ele>
        <time>2021-11-22T10:47:57.373Z</time>
      </trkpt>
      <trkpt lat="47.612234" lon="7.729223">
        <ele>414.640570</ele>
        <time>2021-11-22T10:48:00.062Z</time>
      </trkpt>
      <trkpt lat="47.612445" lon="7.730023">
        <ele>411.904146</ele>
        <time>2021-11-22T10:48:05.408Z</time>
      </trkpt>
      <trkpt lat="47.612490" lon="7.730332">
        <ele>410.625309</ele>
        <time>2021-11-22T10:48:07.415Z</time>
      </trkpt>
      <trkpt lat="47.612414" lon="7.731732">
        <ele>404.943531</ele>
        <time>2021-11-22T10:48:16.227Z</time>
      </trkpt>
      <trkpt lat="47.612582" lon="7.733083">
        <ele>399.263208</ele>
        <time>2021-11-22T10:48:24.538Z</time>
      </trkpt>
      <trkpt lat="47.612580" lon="7.733841">
        <ele>396.000165</ele>
        <time>2021-11-22T10:48:29.203Z</time>
      </trkpt>
      <trkpt lat="47.612580" lon="7.733842">
        <ele>395.995860</ele>
        <time>2021-11-22T10:48:29.233Z</time>
      </trkpt>
      <trkpt lat="47.612562" lon="7.734273">
        <ele>394.136946</ele>
        <time>2021-11-22T10:48:32.003Z</time>
      </trkpt>
      <trkpt lat="47.612560" lon="7.734334">
        <ele>393.874044</ele>
        <time>2021-11-22T10:48:32.370Z</time>
      </trkpt>
      <trkpt lat="47.612558" lon="7.734604">
        <ele>392.711684</ele>
        <time>2021-11-22T10:48:34.008Z</time>
      </trkpt>
      <trkpt lat="47.612618" lon="7.734756">
        <ele>391.953441</ele>
        <time>2021-11-22T10:48:35.107Z</time>
      </trkpt>
      <trkpt lat="47.612755" lon="7.734867">
        <ele>390.956627</ele>
        <time>2021-11-22T10:48:36.500Z</time>
      </trkpt>
      <trkpt lat="47.613181" lon="7.734997">
        <ele>388.877435</ele>
        <time>2021-11-22T10:48:40.514Z</time>
      </trkpt>
      <trkpt lat="47.613390" lon="7.735211">
        <ele>387.947066</ele>
        <time>2021-11-22T10:48:42.823Z</time>
      </trkpt>
      <trkpt lat="47.613434" lon="7.735397">
        <ele>387.460243</ele>
        <time>2021-11-22T10:48:44.106Z</time>
      </trkpt>
      <trkpt lat="47.613375" lon="7.735736">
        <ele>386.595568</ele>
        <time>2021-11-22T10:48:46.417Z</time>
      </trkpt>
      <trkpt lat="47.613317" lon="7.735838">
        <ele>386.266011</ele>
        <time>2021-11-22T10:48:47.379Z</time>
      </trkpt>
      <trkpt lat="47.613210" lon="7.735944">
        <ele>385.794637</ele>
        <time>2021-11-22T10:48:48.637Z</time>
      </trkpt>
      <trkpt lat="47.612712" lon="7.736151">
        <ele>383.899931</ele>
        <time>2021-11-22T10:48:54.273Z</time>
      </trkpt>
      <trkpt lat="47.612447" lon="7.736778">
        <ele>383.374533</ele>
        <time>2021-11-22T10:49:00.019Z</time>
      </trkpt>
      <trkpt lat="47.612194" lon="7.737048">
        <ele>383.519829</ele>
        <time>2021-11-22T10:49:04.336Z</time>
      </trkpt>
      <trkpt lat="47.612044" lon="7.737224">
        <ele>383.608988</ele>
        <time>2021-11-22T10:49:07.058Z</time>
      </trkpt>
      <trkpt lat="47.611965" lon="7.737457">
        <ele>383.690954</ele>
        <time>2021-11-22T10:49:10.456Z</time>
      </trkpt>
      <trkpt lat="47.611893" lon="7.737711">
        <ele>383.777549</ele>
        <time>2021-11-22T10:49:14.139Z</time>
      </trkpt>
      <trkpt lat="47.611872" lon="7.738156">
        <ele>383.917745</ele>
        <time>2021-11-22T10:49:20.520Z</time>
      </trkpt>
      <trkpt lat="47.611785" lon="7.738609">
        <ele>384.065776</ele>
        <time>2021-11-22T10:49:27.326Z</time>
      </trkpt>
      <trkpt lat="47.611751" lon="7.738698">
        <ele>384.240592</ele>
        <time>2021-11-22T10:49:29.343Z</time>
      </trkpt>
      <trkpt lat="47.611684" lon="7.738828">
        <ele>384.521972</ele>
        <time>2021-11-22T10:49:31.845Z</time>
      </trkpt>
      <trkpt lat="47.611618" lon="7.738936">
        <ele>384.772627</ele>
        <time>2021-11-22T10:49:34.151Z</time>
      </trkpt>
      <trkpt lat="47.611382" lon="7.739254">
        <ele>385.585867</ele>
        <time>2021-11-22T10:49:42.235Z</time>
      </trkpt>
      <trkpt lat="47.611129" lon="7.739819">
        <ele>386.752203</ele>
        <time>2021-11-22T10:49:54.734Z</time>
      </trkpt>
      <trkpt lat="47.610898" lon="7.741056">
        <ele>389.001156</ele>
        <time>2021-11-22T10:50:16.736Z</time>
      </trkpt>
      <trkpt lat="47.610871" lon="7.741420">
        <ele>389.716898</ele>
        <time>2021-11-22T10:50:22.168Z</time>
      </trkpt>
      <trkpt lat="47.610879" lon="7.741793">
        <ele>390.446306</ele>
        <time>2021-11-22T10:50:27.919Z</time>
      </trkpt>
      <trkpt lat="47.611010" lon="7.743033">
        <ele>392.899497</ele>
        <time>2021-11-22T10:50:50.478Z</time>
      </trkpt>
      <trkpt lat="47.611161" lon="7.743634">
        <ele>394.214860</ele>
        <time>2021-11-22T10:51:03.715Z</time>
      </trkpt>
      <trkpt lat="47.611241" lon="7.743837">
        <ele>394.774158</ele>
        <time>2021-11-22T10:51:08.538Z</time>
      </trkpt>
      <trkpt lat="47.611456" lon="7.744262">
        <ele>396.038011</ele>
        <time>2021-11-22T10:51:18.914Z</time>
      </trkpt>
      <trkpt lat="47.611609" lon="7.744853">
        <ele>397.543824</ele>
        <time>2021-11-22T10:51:31.124Z</time>
      </trkpt>
      <trkpt lat="47.611651" lon="7.745141">
        <ele>398.244693</ele>
        <time>2021-11-22T10:51:37.605Z</time>
      </trkpt>
      <trkpt lat="47.611691" lon="7.745486">
        <ele>399.077341</ele>
        <time>2021-11-22T10:51:44.235Z</time>
      </trkpt>
      <trkpt lat="47.611647" lon="7.746050">
        <ele>400.309135</ele>
        <time>2021-11-22T10:51:55.532Z</time>
      </trkpt>
      <trkpt lat="47.611508" lon="7.746851">
        <ele>401.182613</ele>
        <time>2021-11-22T10:52:09.311Z</time>
      </trkpt>
      <trkpt lat="47.611423" lon="7.747196">
        <ele>401.570522</ele>
        <time>2021-11-22T10:52:15.214Z</time>
      </trkpt>
      <trkpt lat="47.611024" lon="7.748403">
        <ele>402.990187</ele>
        <time>2021-11-22T10:52:30.634Z</time>
      </trkpt>
      <trkpt lat="47.610897" lon="7.748667">
        <ele>403.294201</ele>
        <time>2021-11-22T10:52:33.842Z</time>
      </trkpt>
      <trkpt lat="47.610399" lon="7.749144">
        <ele>404.103971</ele>
        <time>2021-11-22T10:52:43.615Z</time>
      </trkpt>
      <trkpt lat="47.610331" lon="7.749289">
        <ele>404.266633</ele>
        <time>2021-11-22T10:52:45.695Z</time>
      </trkpt>
      <trkpt lat="47.610303" lon="7.749507">
        <ele>404.471004</ele>
        <time>2021-11-22T10:52:48.609Z</time>
      </trkpt>
      <trkpt lat="47.610345" lon="7.749815">
        <ele>404.760390</ele>
        <time>2021-11-22T10:52:53.565Z</time>
      </trkpt>
      <trkpt lat="47.610520" lon="7.750319">
        <ele>405.282474</ele>
        <time>2021-11-22T10:53:02.898Z</time>
      </trkpt>
      <trkpt lat="47.610643" lon="7.750603">
        <ele>405.823768</ele>
        <time>2021-11-22T10:53:08.357Z</time>
      </trkpt>
      <trkpt lat="47.610714" lon="7.750722">
        <ele>406.293008</ele>
        <time>2021-11-22T10:53:11.387Z</time>
      </trkpt>
      <trkpt lat="47.611094" lon="7.750951">
        <ele>408.089539</ele>
        <time>2021-11-22T10:53:22.939Z</time>
      </trkpt>
      <trkpt lat="47.611197" lon="7.751064">
        <ele>408.650669</ele>
        <time>2021-11-22T10:53:26.134Z</time>
      </trkpt>
      <trkpt lat="47.611255" lon="7.751205">
        <ele>409.138403</ele>
        <time>2021-11-22T10:53:29.625Z</time>
      </trkpt>
      <trkpt lat="47.611288" lon="7.751378">
        <ele>409.669298</ele>
        <time>2021-11-22T10:53:33.641Z</time>
      </trkpt>
      <trkpt lat="47.611242" lon="7.752336">
        <ele>412.505278</ele>
        <time>2021-11-22T10:53:56.547Z</time>
      </trkpt>
      <trkpt lat="47.611269" lon="7.753071">
        <ele>415.422636</ele>
        <time>2021-11-22T10:54:17.261Z</time>
      </trkpt>
      <trkpt lat="47.611310" lon="7.753428">
        <ele>417.098310</ele>
        <time>2021-11-22T10:54:26.984Z</time>
      </trkpt>
      <trkpt lat="47.611506" lon="7.753985">
        <ele>420.005567</ele>
        <time>2021-11-22T10:54:44.297Z</time>
      </trkpt>
      <trkpt lat="47.611701" lon="7.754245">
        <ele>421.805177</ele>
        <time>2021-11-22T10:54:55.601Z</time>
      </trkpt>
      <trkpt lat="47.611848" lon="7.754391">
        <ele>423.019397</ele>
        <time>2021-11-22T10:55:03.327Z</time>
      </trkpt>
      <trkpt lat="47.612146" lon="7.754726">
        <ele>425.585734</ele>
        <time>2021-11-22T10:55:20.211Z</time>
      </trkpt>
      <trkpt lat="47.612192" lon="7.754954">
        <ele>426.813724</ele>
        <time>2021-11-22T10:55:27.906Z</time>
      </trkpt>
      <trkpt lat="47.612161" lon="7.755353">
        <ele>428.913850</ele>
        <time>2021-11-22T10:55:39.839Z</time>
      </trkpt>
      <trkpt lat="47.612159" lon="7.755380">
        <ele>429.055879</ele>
        <time>2021-11-22T10:55:41.728Z</time>
      </trkpt>
      <trkpt lat="47.612161" lon="7.755449">
        <ele>429.417004</ele>
        <time>2021-11-22T10:55:43.859Z</time>
      </trkpt>
      <trkpt lat="47.612172" lon="7.755521">
        <ele>429.803028</ele>
        <time>2021-11-22T10:55:46.012Z</time>
      </trkpt>
      <trkpt lat="47.612196" lon="7.755580">
        <ele>430.163342</ele>
        <time>2021-11-22T10:55:48.107Z</time>
      </trkpt>
      <trkpt lat="47.612248" lon="7.755635">
        <ele>430.658699</ele>
        <time>2021-11-22T10:55:51.160Z</time>
      </trkpt>
      <trkpt lat="47.612387" lon="7.755703">
        <ele>431.793941</ele>
        <time>2021-11-22T10:55:58.155Z</time>
      </trkpt>
      <trkpt lat="47.612451" lon="7.755754">
        <ele>432.357437</ele>
        <time>2021-11-22T10:56:01.879Z</time>
      </trkpt>
      <trkpt lat="47.612481" lon="7.755809">
        <ele>432.727369</ele>
        <time>2021-11-22T10:56:04.199Z</time>
      </trkpt>
      <trkpt lat="47.612503" lon="7.755886">
        <ele>433.164656</ele>
        <time>2021-11-22T10:56:06.655Z</time>
      </trkpt>
      <trkpt lat="47.612539" lon="7.756079">
        <ele>434.211737</ele>
        <time>2021-11-22T10:56:12.895Z</time>
      </trkpt>
      <trkpt lat="47.612595" lon="7.756458">
        <ele>436.240502</ele>
        <time>2021-11-22T10:56:24.250Z</time>
      </trkpt>
      <trkpt lat="47.612635" lon="7.756867">
        <ele>438.401476</ele>
        <time>2021-11-22T10:56:37.229Z</time>
      </trkpt>
      <trkpt lat="47.612654" lon="7.757180">
        <ele>439.933143</ele>
        <time>2021-11-22T10:56:46.681Z</time>
      </trkpt>
      <trkpt lat="47.612657" lon="7.757559">
        <ele>441.335919</ele>
        <time>2021-11-22T10:56:58.494Z</time>
      </trkpt>
      <trkpt lat="47.612671" lon="7.757751">
        <ele>442.050655</ele>
        <time>2021-11-22T10:57:04.340Z</time>
      </trkpt>
      <trkpt lat="47.612697" lon="7.758003">
        <ele>442.994166</ele>
        <time>2021-11-22T10:57:10.629Z</time>
      </trkpt>
      <trkpt lat="47.612718" lon="7.758199">
        <ele>443.728666</ele>
        <time>2021-11-22T10:57:16.849Z</time>
      </trkpt>
      <trkpt lat="47.612779" lon="7.758543">
        <ele>445.045116</ele>
        <time>2021-11-22T10:57:24.734Z</time>
      </trkpt>
      <trkpt lat="47.612830" lon="7.758759">
        <ele>445.892144</ele>
        <time>2021-11-22T10:57:31.152Z</time>
      </trkpt>
      <trkpt lat="47.612944" lon="7.759245">
        <ele>447.796596</ele>
        <time>2021-11-22T10:57:42.387Z</time>
      </trkpt>
      <trkpt lat="47.613053" lon="7.759623">
        <ele>449.318176</ele>
        <time>2021-11-22T10:57:49.946Z</time>
      </trkpt>
      <trkpt lat="47.613205" lon="7.760080">
        <ele>450.018566</ele>
        <time>2021-11-22T10:57:59.697Z</time>
      </trkpt>
      <trkpt lat="47.613222" lon="7.760189">
        <ele>450.138106</ele>
        <time>2021-11-22T10:58:02.112Z</time>
      </trkpt>
      <trkpt lat="47.613231" lon="7.760404">
        <ele>450.368270</ele>
        <time>2021-11-22T10:58:05.329Z</time>
      </trkpt>
      <trkpt lat="47.613148" lon="7.760607">
        <ele>450.621947</ele>
        <time>2021-11-22T10:58:08.871Z</time>
      </trkpt>
      <trkpt lat="47.613059" lon="7.760674">
        <ele>450.780134</ele>
        <time>2021-11-22T10:58:11.296Z</time>
      </trkpt>
      <trkpt lat="47.612960" lon="7.760706">
        <ele>450.940728</ele>
        <time>2021-11-22T10:58:13.353Z</time>
      </trkpt>
      <trkpt lat="47.612812" lon="7.760726">
        <ele>451.176273</ele>
        <time>2021-11-22T10:58:16.201Z</time>
      </trkpt>
      <trkpt lat="47.612630" lon="7.760759">
        <ele>451.466884</ele>
        <time>2021-11-22T10:58:19.462Z</time>
      </trkpt>
      <trkpt lat="47.612523" lon="7.760811">
        <ele>451.645344</ele>
        <time>2021-11-22T10:58:21.371Z</time>
      </trkpt>
      <trkpt lat="47.612441" lon="7.760890">
        <ele>451.800317</ele>
        <time>2021-11-22T10:58:22.914Z</time>
      </trkpt>
      <trkpt lat="47.612441" lon="7.760890">
        <ele>451.800317</ele>
        <time>2021-11-22T10:58:22.916Z</time>
      </trkpt>
      <trkpt lat="47.612127" lon="7.761383">
        <ele>452.436886</ele>
        <time>2021-11-22T10:58:29.725Z</time>
      </trkpt>
      <trkpt lat="47.612075" lon="7.761435">
        <ele>452.472292</ele>
        <time>2021-11-22T10:58:30.651Z</time>
      </trkpt>
      <trkpt lat="47.612022" lon="7.761449">
        <ele>452.502684</ele>
        <time>2021-11-22T10:58:31.467Z</time>
      </trkpt>
      <trkpt lat="47.611933" lon="7.761457">
        <ele>452.553022</ele>
        <time>2021-11-22T10:58:32.764Z</time>
      </trkpt>
      <trkpt lat="47.610854" lon="7.761285">
        <ele>453.165691</ele>
        <time>2021-11-22T10:58:50.249Z</time>
      </trkpt>
      <trkpt lat="47.610760" lon="7.761304">
        <ele>453.219251</ele>
        <time>2021-11-22T10:58:51.909Z</time>
      </trkpt>
      <trkpt lat="47.610601" lon="7.761374">
        <ele>453.312886</ele>
        <time>2021-11-22T10:58:55.181Z</time>
      </trkpt>
      <trkpt lat="47.610565" lon="7.761273">
        <ele>453.356370</ele>
        <time>2021-11-22T10:58:56.723Z</time>
      </trkpt>
      <trkpt lat="47.610488" lon="7.761190">
        <ele>453.427099</ele>
        <time>2021-11-22T10:58:58.520Z</time>
      </trkpt>
      <trkpt lat="47.610076" lon="7.761100">
        <ele>454.274170</ele>
        <time>2021-11-22T10:59:07.415Z</time>
      </trkpt>
      <trkpt lat="47.608938" lon="7.760829">
        <ele>456.618573</ele>
        <time>2021-11-22T10:59:35.755Z</time>
      </trkpt>
      <trkpt lat="47.607825" lon="7.760537">
        <ele>458.065960</ele>
        <time>2021-11-22T11:00:01.246Z</time>
      </trkpt>
      <trkpt lat="47.607246" lon="7.760369">
        <ele>458.715190</ele>
        <time>2021-11-22T11:00:11.250Z</time>
      </trkpt>
      <trkpt lat="47.606171" lon="7.760045">
        <ele>459.220688</ele>
        <time>2021-11-22T11:00:26.613Z</time>
      </trkpt>
      <trkpt lat="47.605536" lon="7.759853">
        <ele>459.365815</ele>
        <time>2021-11-22T11:00:36.683Z</time>
      </trkpt>
      <trkpt lat="47.605325" lon="7.759787">
        <ele>459.414105</ele>
        <time>2021-11-22T11:00:40.494Z</time>
      </trkpt>
      <trkpt lat="47.604633" lon="7.759635">
        <ele>459.532347</ele>
        <time>2021-11-22T11:00:53.660Z</time>
      </trkpt>
      <trkpt lat="47.604421" lon="7.759606">
        <ele>459.565551</ele>
        <time>2021-11-22T11:00:57.884Z</time>
      </trkpt>
      <trkpt lat="47.604088" lon="7.759601">
        <ele>459.617489</ele>
        <time>2021-11-22T11:01:03.824Z</time>
      </trkpt>
      <trkpt lat="47.603613" lon="7.759659">
        <ele>459.691822</ele>
        <time>2021-11-22T11:01:10.679Z</time>
      </trkpt>
      <trkpt lat="47.603173" lon="7.759766">
        <ele>458.761678</ele>
        <time>2021-11-22T11:01:15.929Z</time>
      </trkpt>
      <trkpt lat="47.602902" lon="7.759841">
        <ele>457.631335</ele>
        <time>2021-11-22T11:01:18.908Z</time>
      </trkpt>
      <trkpt lat="47.602078" lon="7.760047">
        <ele>454.205079</ele>
        <time>2021-11-22T11:01:26.886Z</time>
      </trkpt>
      <trkpt lat="47.601600" lon="7.760073">
        <ele>452.167841</ele>
        <time>2021-11-22T11:01:31.284Z</time>
      </trkpt>
      <trkpt lat="47.601336" lon="7.760030">
        <ele>450.298195</ele>
        <time>2021-11-22T11:01:33.681Z</time>
      </trkpt>
      <trkpt lat="47.601032" lon="7.760002">
        <ele>448.154014</ele>
        <time>2021-11-22T11:01:36.417Z</time>
      </trkpt>
      <trkpt lat="47.600757" lon="7.759977">
        <ele>446.214473</ele>
        <time>2021-11-22T11:01:38.857Z</time>
      </trkpt>
      <trkpt lat="47.599976" lon="7.759788">
        <ele>440.643780</ele>
        <time>2021-11-22T11:01:45.952Z</time>
      </trkpt>
      <trkpt lat="47.599727" lon="7.759652">
        <ele>438.775369</ele>
        <time>2021-11-22T11:01:48.297Z</time>
      </trkpt>
      <trkpt lat="47.599495" lon="7.759407">
        <ele>436.769450</ele>
        <time>2021-11-22T11:01:50.841Z</time>
      </trkpt>
      <trkpt lat="47.599369" lon="7.759291">
        <ele>435.724937</ele>
        <time>2021-11-22T11:01:52.150Z</time>
      </trkpt>
      <trkpt lat="47.599038" lon="7.759240">
        <ele>433.381153</ele>
        <time>2021-11-22T11:01:55.171Z</time>
      </trkpt>
      <trkpt lat="47.598636" lon="7.759436">
        <ele>430.400772</ele>
        <time>2021-11-22T11:01:59.002Z</time>
      </trkpt>
      <trkpt lat="47.598492" lon="7.759485">
        <ele>429.360223</ele>
        <time>2021-11-22T11:02:00.337Z</time>
      </trkpt>
      <trkpt lat="47.598314" lon="7.759510">
        <ele>428.100958</ele>
        <time>2021-11-22T11:02:01.916Z</time>
      </trkpt>
      <trkpt lat="47.597328" lon="7.759556">
        <ele>420.419549</ele>
        <time>2021-11-22T11:02:10.796Z</time>
      </trkpt>
      <trkpt lat="47.596893" lon="7.759520">
        <ele>416.967417</ele>
        <time>2021-11-22T11:02:14.652Z</time>
      </trkpt>
      <trkpt lat="47.596644" lon="7.759494">
        <ele>414.989554</ele>
        <time>2021-11-22T11:02:16.803Z</time>
      </trkpt>
      <trkpt lat="47.596241" lon="7.759593">
        <ele>411.543133</ele>
        <time>2021-11-22T11:02:20.384Z</time>
      </trkpt>
      <trkpt lat="47.596134" lon="7.759703">
        <ele>410.298501</ele>
        <time>2021-11-22T11:02:21.526Z</time>
      </trkpt>
      <trkpt lat="47.596041" lon="7.759870">
        <ele>408.902298</ele>
        <time>2021-11-22T11:02:22.763Z</time>
      </trkpt>
      <trkpt lat="47.595854" lon="7.760335">
        <ele>405.412105</ele>
        <time>2021-11-22T11:02:25.903Z</time>
      </trkpt>
      <trkpt lat="47.595755" lon="7.760659">
        <ele>403.119019</ele>
        <time>2021-11-22T11:02:28.010Z</time>
      </trkpt>
      <trkpt lat="47.595685" lon="7.760825">
        <ele>401.856894</ele>
        <time>2021-11-22T11:02:29.120Z</time>
      </trkpt>
      <trkpt lat="47.595483" lon="7.761108">
        <ele>399.200349</ele>
        <time>2021-11-22T11:02:31.552Z</time>
      </trkpt>
      <trkpt lat="47.595086" lon="7.761325">
        <ele>395.254929</ele>
        <time>2021-11-22T11:02:35.183Z</time>
      </trkpt>
      <trkpt lat="47.594411" lon="7.761312">
        <ele>390.332933</ele>
        <time>2021-11-22T11:02:41.085Z</time>
      </trkpt>
      <trkpt lat="47.593803" lon="7.761400">
        <ele>385.878797</ele>
        <time>2021-11-22T11:02:46.607Z</time>
      </trkpt>
      <trkpt lat="47.593758" lon="7.761384">
        <ele>385.541391</ele>
        <time>2021-11-22T11:02:47.020Z</time>
      </trkpt>
      <trkpt lat="47.593513" lon="7.761296">
        <ele>383.703380</ele>
        <time>2021-11-22T11:02:49.369Z</time>
      </trkpt>
      <trkpt lat="47.593211" lon="7.761047">
        <ele>381.695193</ele>
        <time>2021-11-22T11:02:52.594Z</time>
      </trkpt>
      <trkpt lat="47.592736" lon="7.760559">
        <ele>379.170054</ele>
        <time>2021-11-22T11:02:58.094Z</time>
      </trkpt>
      <trkpt lat="47.592317" lon="7.760056">
        <ele>376.814315</ele>
        <time>2021-11-22T11:03:03.457Z</time>
      </trkpt>
      <trkpt lat="47.592205" lon="7.759833">
        <ele>375.994927</ele>
        <time>2021-11-22T11:03:05.261Z</time>
      </trkpt>
      <trkpt lat="47.591959" lon="7.759015">
        <ele>373.164255</ele>
        <time>2021-11-22T11:03:11.153Z</time>
      </trkpt>
      <trkpt lat="47.591911" lon="7.758184">
        <ele>370.328752</ele>
        <time>2021-11-22T11:03:16.686Z</time>
      </trkpt>
      <trkpt lat="47.591923" lon="7.757894">
        <ele>369.340981</ele>
        <time>2021-11-22T11:03:18.501Z</time>
      </trkpt>
      <trkpt lat="47.591970" lon="7.757544">
        <ele>368.127724</ele>
        <time>2021-11-22T11:03:20.777Z</time>
      </trkpt>
      <trkpt lat="47.592034" lon="7.757251">
        <ele>367.080665</ele>
        <time>2021-11-22T11:03:22.653Z</time>
      </trkpt>
      <trkpt lat="47.592097" lon="7.757042">
        <ele>366.302382</ele>
        <time>2021-11-22T11:03:24.076Z</time>
      </trkpt>
      <trkpt lat="47.592316" lon="7.756315">
        <ele>363.162214</ele>
        <time>2021-11-22T11:03:28.936Z</time>
      </trkpt>
      <trkpt lat="47.592371" lon="7.756099">
        <ele>362.201799</ele>
        <time>2021-11-22T11:03:30.349Z</time>
      </trkpt>
      <trkpt lat="47.592426" lon="7.755881">
        <ele>361.233597</ele>
        <time>2021-11-22T11:03:31.731Z</time>
      </trkpt>
      <trkpt lat="47.592484" lon="7.755586">
        <ele>359.955391</ele>
        <time>2021-11-22T11:03:33.604Z</time>
      </trkpt>
      <trkpt lat="47.592501" lon="7.755402">
        <ele>359.182851</ele>
        <time>2021-11-22T11:03:34.726Z</time>
      </trkpt>
      <trkpt lat="47.592485" lon="7.755255">
        <ele>358.563457</ele>
        <time>2021-11-22T11:03:35.632Z</time>
      </trkpt>
      <trkpt lat="47.592241" lon="7.754241">
        <ele>354.350436</ele>
        <time>2021-11-22T11:03:42.348Z</time>
      </trkpt>
      <trkpt lat="47.592004" lon="7.753676">
        <ele>353.657093</ele>
        <time>2021-11-22T11:03:46.685Z</time>
      </trkpt>
      <trkpt lat="47.591881" lon="7.753444">
        <ele>353.349582</ele>
        <time>2021-11-22T11:03:48.693Z</time>
      </trkpt>
      <trkpt lat="47.590881" lon="7.751756">
        <ele>352.563607</ele>
        <time>2021-11-22T11:04:13.070Z</time>
      </trkpt>
      <trkpt lat="47.590052" lon="7.749933">
        <ele>355.582109</ele>
        <time>2021-11-22T11:04:52.380Z</time>
      </trkpt>
      <trkpt lat="47.589642" lon="7.749241">
        <ele>355.985082</ele>
        <time>2021-11-22T11:05:06.692Z</time>
      </trkpt>
      <trkpt lat="47.588960" lon="7.748448">
        <ele>356.547291</ele>
        <time>2021-11-22T11:05:18.941Z</time>
      </trkpt>
      <trkpt lat="47.588242" lon="7.747872">
        <ele>354.519744</ele>
        <time>2021-11-22T11:05:28.731Z</time>
      </trkpt>
      <trkpt lat="47.588045" lon="7.747763">
        <ele>353.777027</ele>
        <time>2021-11-22T11:05:30.946Z</time>
      </trkpt>
      <trkpt lat="47.588045" lon="7.747762">
        <ele>353.774644</ele>
        <time>2021-11-22T11:05:30.962Z</time>
      </trkpt>
      <trkpt lat="47.587944" lon="7.747712">
        <ele>353.398531</ele>
        <time>2021-11-22T11:05:32.081Z</time>
      </trkpt>
      <trkpt lat="47.587676" lon="7.747616">
        <ele>352.424665</ele>
        <time>2021-11-22T11:05:34.704Z</time>
      </trkpt>
      <trkpt lat="47.587231" lon="7.747583">
        <ele>350.850868</ele>
        <time>2021-11-22T11:05:38.878Z</time>
      </trkpt>
      <trkpt lat="47.587012" lon="7.747608">
        <ele>349.806501</ele>
        <time>2021-11-22T11:05:40.907Z</time>
      </trkpt>
      <trkpt lat="47.586901" lon="7.747621">
        <ele>348.993950</ele>
        <time>2021-11-22T11:05:41.906Z</time>
      </trkpt>
      <trkpt lat="47.586219" lon="7.747726">
        <ele>343.990263</ele>
        <time>2021-11-22T11:05:48.094Z</time>
      </trkpt>
      <trkpt lat="47.585600" lon="7.747675">
        <ele>339.466114</ele>
        <time>2021-11-22T11:05:53.578Z</time>
      </trkpt>
      <trkpt lat="47.585275" lon="7.747497">
        <ele>336.978220</ele>
        <time>2021-11-22T11:05:56.595Z</time>
      </trkpt>
      <trkpt lat="47.584788" lon="7.747084">
        <ele>333.512727</ele>
        <time>2021-11-22T11:06:01.544Z</time>
      </trkpt>
      <trkpt lat="47.584325" lon="7.746826">
        <ele>330.457495</ele>
        <time>2021-11-22T11:06:06.039Z</time>
      </trkpt>
      <trkpt lat="47.583935" lon="7.746691">
        <ele>327.983719</ele>
        <time>2021-11-22T11:06:09.761Z</time>
      </trkpt>
      <trkpt lat="47.580800" lon="7.746847">
        <ele>316.901180</ele>
        <time>2021-11-22T11:06:41.573Z</time>
      </trkpt>
      <trkpt lat="47.580195" lon="7.746761">
        <ele>314.983674</ele>
        <time>2021-11-22T11:06:47.837Z</time>
      </trkpt>
      <trkpt lat="47.580176" lon="7.746758">
        <ele>314.923390</ele>
        <time>2021-11-22T11:06:48.005Z</time>
      </trkpt>
      <trkpt lat="47.579910" lon="7.746660">
        <ele>314.035886</ele>
        <time>2021-11-22T11:06:50.833Z</time>
      </trkpt>
      <trkpt lat="47.579370" lon="7.746311">
        <ele>312.077351</ele>
        <time>2021-11-22T11:06:56.741Z</time>
      </trkpt>
      <trkpt lat="47.578248" lon="7.745231">
        <ele>307.689300</ele>
        <time>2021-11-22T11:07:10.153Z</time>
      </trkpt>
      <trkpt lat="47.578014" lon="7.745032">
        <ele>306.853749</ele>
        <time>2021-11-22T11:07:12.898Z</time>
      </trkpt>
      <trkpt lat="47.577765" lon="7.744854">
        <ele>305.997545</ele>
        <time>2021-11-22T11:07:15.755Z</time>
      </trkpt>
      <trkpt lat="47.576822" lon="7.744396">
        <ele>302.924777</ele>
        <time>2021-11-22T11:07:25.926Z</time>
      </trkpt>
      <trkpt lat="47.575733" lon="7.744190">
        <ele>299.878348</ele>
        <time>2021-11-22T11:07:37.220Z</time>
      </trkpt>
      <trkpt lat="47.575417" lon="7.744166">
        <ele>299.000312</ele>
        <time>2021-11-22T11:07:40.505Z</time>
      </trkpt>
      <trkpt lat="47.575173" lon="7.744139">
        <ele>298.321340</ele>
        <time>2021-11-22T11:07:43.074Z</time>
      </trkpt>
      <trkpt lat="47.574918" lon="7.744046">
        <ele>297.725986</ele>
        <time>2021-11-22T11:07:45.852Z</time>
      </trkpt>
      <trkpt lat="47.574841" lon="7.744018">
        <ele>297.590514</ele>
        <time>2021-11-22T11:07:46.688Z</time>
      </trkpt>
      <trkpt lat="47.574546" lon="7.743745">
        <ele>296.996274</ele>
        <time>2021-11-22T11:07:50.442Z</time>
      </trkpt>
      <trkpt lat="47.574382" lon="7.743495">
        <ele>296.594304</ele>
        <time>2021-11-22T11:07:52.994Z</time>
      </trkpt>
      <trkpt lat="47.574090" lon="7.742826">
        <ele>295.675782</ele>
        <time>2021-11-22T11:07:59.034Z</time>
      </trkpt>
      <trkpt lat="47.573998" lon="7.742684">
        <ele>295.448830</ele>
        <time>2021-11-22T11:08:00.583Z</time>
      </trkpt>
      <trkpt lat="47.573895" lon="7.742636">
        <ele>295.264339</ele>
        <time>2021-11-22T11:08:01.923Z</time>
      </trkpt>
      <trkpt lat="47.573635" lon="7.742528">
        <ele>294.849206</ele>
        <time>2021-11-22T11:08:05.349Z</time>
      </trkpt>
      <trkpt lat="47.573477" lon="7.743683">
        <ele>294.481847</ele>
        <time>2021-11-22T11:08:16.297Z</time>
      </trkpt>
      <trkpt lat="47.573397" lon="7.744238">
        <ele>294.304940</ele>
        <time>2021-11-22T11:08:21.582Z</time>
      </trkpt>
      <trkpt lat="47.573383" lon="7.744318">
        <ele>294.279178</ele>
        <time>2021-11-22T11:08:22.367Z</time>
      </trkpt>
      <trkpt lat="47.573349" lon="7.744526">
        <ele>294.212465</ele>
        <time>2021-11-22T11:08:24.159Z</time>
      </trkpt>
      <trkpt lat="47.573329" lon="7.744647">
        <ele>294.173631</ele>
        <time>2021-11-22T11:08:25.773Z</time>
      </trkpt>
      <trkpt lat="47.573193" lon="7.745027">
        <ele>294.039543</ele>
        <time>2021-11-22T11:08:29.270Z</time>
      </trkpt>
      <trkpt lat="47.573070" lon="7.745225">
        <ele>293.919351</ele>
        <time>2021-11-22T11:08:32.234Z</time>
      </trkpt>
      <trkpt lat="47.572897" lon="7.745419">
        <ele>293.773448</ele>
        <time>2021-11-22T11:08:35.028Z</time>
      </trkpt>
      <trkpt lat="47.572693" lon="7.745654">
        <ele>293.599678</ele>
        <time>2021-11-22T11:08:38.461Z</time>
      </trkpt>
      <trkpt lat="47.572478" lon="7.745914">
        <ele>293.413053</ele>
        <time>2021-11-22T11:08:42.472Z</time>
      </trkpt>
      <trkpt lat="47.572312" lon="7.746125">
        <ele>293.265975</ele>
        <time>2021-11-22T11:08:45.462Z</time>
      </trkpt>
      <trkpt lat="47.572107" lon="7.746364">
        <ele>293.090557</ele>
        <time>2021-11-22T11:08:48.596Z</time>
      </trkpt>
      <trkpt lat="47.571996" lon="7.746510">
        <ele>292.990745</ele>
        <time>2021-11-22T11:08:50.563Z</time>
      </trkpt>
      <trkpt lat="47.571810" lon="7.746732">
        <ele>292.830129</ele>
        <time>2021-11-22T11:08:53.277Z</time>
      </trkpt>
      <trkpt lat="47.571732" lon="7.746831">
        <ele>292.697517</ele>
        <time>2021-11-22T11:08:54.523Z</time>
      </trkpt>
      <trkpt lat="47.571615" lon="7.746974">
        <ele>292.495045</ele>
        <time>2021-11-22T11:08:56.263Z</time>
      </trkpt>
      <trkpt lat="47.571591" lon="7.747005">
        <ele>292.452541</ele>
        <time>2021-11-22T11:08:56.611Z</time>
      </trkpt>
      <trkpt lat="47.571247" lon="7.747396">
        <ele>291.873747</ele>
        <time>2021-11-22T11:09:01.712Z</time>
      </trkpt>
      <trkpt lat="47.570998" lon="7.747803">
        <ele>291.378834</ele>
        <time>2021-11-22T11:09:06.092Z</time>
      </trkpt>
      <trkpt lat="47.570938" lon="7.747976">
        <ele>291.203611</ele>
        <time>2021-11-22T11:09:07.749Z</time>
      </trkpt>
      <trkpt lat="47.570885" lon="7.748211">
        <ele>290.980409</ele>
        <time>2021-11-22T11:09:09.762Z</time>
      </trkpt>
      <trkpt lat="47.570858" lon="7.749747">
        <ele>289.555371</ele>
        <time>2021-11-22T11:09:21.599Z</time>
      </trkpt>
      <trkpt lat="47.570866" lon="7.750436">
        <ele>288.903928</ele>
        <time>2021-11-22T11:09:26.876Z</time>
      </trkpt>
      <trkpt lat="47.570870" lon="7.750695">
        <ele>288.659018</ele>
        <time>2021-11-22T11:09:28.899Z</time>
      </trkpt>
      <trkpt lat="47.570876" lon="7.751057">
        <ele>288.316697</ele>
        <time>2021-11-22T11:09:31.810Z</time>
      </trkpt>
      <trkpt lat="47.570885" lon="7.751787">
        <ele>287.782367</ele>
        <time>2021-11-22T11:09:37.697Z</time>
      </trkpt>
      <trkpt lat="47.570869" lon="7.752048">
        <ele>287.673854</ele>
        <time>2021-11-22T11:09:39.873Z</time>
      </trkpt>
      <trkpt lat="47.570854" lon="7.752277">
        <ele>287.578589</ele>
        <time>2021-11-22T11:09:41.755Z</time>
      </trkpt>
      <trkpt lat="47.570840" lon="7.752506">
        <ele>287.483383</ele>
        <time>2021-11-22T11:09:43.741Z</time>
      </trkpt>
      <trkpt lat="47.570759" lon="7.753008">
        <ele>287.269666</ele>
        <time>2021-11-22T11:09:48.247Z</time>
      </trkpt>
      <trkpt lat="47.570466" lon="7.754138">
        <ele>286.764079</ele>
        <time>2021-11-22T11:09:59.882Z</time>
      </trkpt>
      <trkpt lat="47.570185" lon="7.755068">
        <ele>286.284205</ele>
        <time>2021-11-22T11:10:09.334Z</time>
      </trkpt>
      <trkpt lat="47.569898" lon="7.756021">
        <ele>285.792732</ele>
        <time>2021-11-22T11:10:18.004Z</time>
      </trkpt>
      <trkpt lat="47.569743" lon="7.756603">
        <ele>285.471443</ele>
        <time>2021-11-22T11:10:23.126Z</time>
      </trkpt>
      <trkpt lat="47.569564" lon="7.757554">
        <ele>284.740277</ele>
        <time>2021-11-22T11:10:31.142Z</time>
      </trkpt>
      <trkpt lat="47.569423" lon="7.758505">
        <ele>284.019197</ele>
        <time>2021-11-22T11:10:38.892Z</time>
      </trkpt>
      <trkpt lat="47.569394" lon="7.758678">
        <ele>283.887184</ele>
        <time>2021-11-22T11:10:40.376Z</time>
      </trkpt>
      <trkpt lat="47.569371" lon="7.758806">
        <ele>283.789088</ele>
        <time>2021-11-22T11:10:41.455Z</time>
      </trkpt>
      <trkpt lat="47.569318" lon="7.759087">
        <ele>283.573011</ele>
        <time>2021-11-22T11:10:43.788Z</time>
      </trkpt>
      <trkpt lat="47.569287" lon="7.759231">
        <ele>283.500228</ele>
        <time>2021-11-22T11:10:45.127Z</time>
      </trkpt>
      <trkpt lat="47.569052" lon="7.760178">
        <ele>283.020757</ele>
        <time>2021-11-22T11:10:53.813Z</time>
      </trkpt>
      <trkpt lat="47.568658" lon="7.761470">
        <ele>282.347017</ele>
        <time>2021-11-22T11:11:06.359Z</time>
      </trkpt>
      <trkpt lat="47.568588" lon="7.761697">
        <ele>282.253612</ele>
        <time>2021-11-22T11:11:08.487Z</time>
      </trkpt>
      <trkpt lat="47.568566" lon="7.761768">
        <ele>282.228932</ele>
        <time>2021-11-22T11:11:09.147Z</time>
      </trkpt>
      <trkpt lat="47.568495" lon="7.761994">
        <ele>282.150182</ele>
        <time>2021-11-22T11:11:11.298Z</time>
      </trkpt>
      <trkpt lat="47.568423" lon="7.762232">
        <ele>282.067790</ele>
        <time>2021-11-22T11:11:13.498Z</time>
      </trkpt>
      <trkpt lat="47.568377" lon="7.762379">
        <ele>282.016603</ele>
        <time>2021-11-22T11:11:14.909Z</time>
      </trkpt>
      <trkpt lat="47.567932" lon="7.763827">
        <ele>281.513984</ele>
        <time>2021-11-22T11:11:29.405Z</time>
      </trkpt>
      <trkpt lat="47.567739" lon="7.764462">
        <ele>281.358742</ele>
        <time>2021-11-22T11:11:36.238Z</time>
      </trkpt>
      <trkpt lat="47.567574" lon="7.765017">
        <ele>281.241231</ele>
        <time>2021-11-22T11:11:42.085Z</time>
      </trkpt>
      <trkpt lat="47.567427" lon="7.765503">
        <ele>281.138035</ele>
        <time>2021-11-22T11:11:47.133Z</time>
      </trkpt>
      <trkpt lat="47.566939" lon="7.766996">
        <ele>280.766297</ele>
        <time>2021-11-22T11:12:02.084Z</time>
      </trkpt>
      <trkpt lat="47.566747" lon="7.767407">
        <ele>280.631485</ele>
        <time>2021-11-22T11:12:06.572Z</time>
      </trkpt>
      <trkpt lat="47.566290" lon="7.768111">
        <ele>280.368030</ele>
        <time>2021-11-22T11:12:15.376Z</time>
      </trkpt>
      <trkpt lat="47.565945" lon="7.768659">
        <ele>280.228881</ele>
        <time>2021-11-22T11:12:22.257Z</time>
      </trkpt>
      <trkpt lat="47.565887" lon="7.768778">
        <ele>280.230727</ele>
        <time>2021-11-22T11:12:23.888Z</time>
      </trkpt>
      <trkpt lat="47.565730" lon="7.769200">
        <ele>280.236787</ele>
        <time>2021-11-22T11:12:28.485Z</time>
      </trkpt>
      <trkpt lat="47.565639" lon="7.769724">
        <ele>280.243592</ele>
        <time>2021-11-22T11:12:33.946Z</time>
      </trkpt>
      <trkpt lat="47.565623" lon="7.769892">
        <ele>280.245726</ele>
        <time>2021-11-22T11:12:35.836Z</time>
      </trkpt>
      <trkpt lat="47.565618" lon="7.770120">
        <ele>280.248594</ele>
        <time>2021-11-22T11:12:37.906Z</time>
      </trkpt>
      <trkpt lat="47.565625" lon="7.770603">
        <ele>280.254670</ele>
        <time>2021-11-22T11:12:42.978Z</time>
      </trkpt>
      <trkpt lat="47.565623" lon="7.771401">
        <ele>280.342863</ele>
        <time>2021-11-22T11:12:51.830Z</time>
      </trkpt>
      <trkpt lat="47.565557" lon="7.771818">
        <ele>280.430677</ele>
        <time>2021-11-22T11:12:56.438Z</time>
      </trkpt>
      <trkpt lat="47.565452" lon="7.772236">
        <ele>280.522122</ele>
        <time>2021-11-22T11:13:01.287Z</time>
      </trkpt>
      <trkpt lat="47.565274" lon="7.772804">
        <ele>280.650521</ele>
        <time>2021-11-22T11:13:07.765Z</time>
      </trkpt>
      <trkpt lat="47.565215" lon="7.772993">
        <ele>280.693216</ele>
        <time>2021-11-22T11:13:10.070Z</time>
      </trkpt>
      <trkpt lat="47.565082" lon="7.773413">
        <ele>280.788337</ele>
        <time>2021-11-22T11:13:15.139Z</time>
      </trkpt>
      <trkpt lat="47.565017" lon="7.773684">
        <ele>280.887513</ele>
        <time>2021-11-22T11:13:18.422Z</time>
      </trkpt>
      <trkpt lat="47.564949" lon="7.774019">
        <ele>281.029251</ele>
        <time>2021-11-22T11:13:22.380Z</time>
      </trkpt>
      <trkpt lat="47.564938" lon="7.774103">
        <ele>281.063920</ele>
        <time>2021-11-22T11:13:23.391Z</time>
      </trkpt>
      <trkpt lat="47.564907" lon="7.774234">
        <ele>281.120165</ele>
        <time>2021-11-22T11:13:24.911Z</time>
      </trkpt>
      <trkpt lat="47.564861" lon="7.774427">
        <ele>281.203097</ele>
        <time>2021-11-22T11:13:27.302Z</time>
      </trkpt>
      <trkpt lat="47.564815" lon="7.774448">
        <ele>281.231999</ele>
        <time>2021-11-22T11:13:28.217Z</time>
      </trkpt>
      <trkpt lat="47.564709" lon="7.774675">
        <ele>281.343847</ele>
        <time>2021-11-22T11:13:31.471Z</time>
      </trkpt>
      <trkpt lat="47.564712" lon="7.774747">
        <ele>281.373075</ele>
        <time>2021-11-22T11:13:32.350Z</time>
      </trkpt>
      <trkpt lat="47.564658" lon="7.774885">
        <ele>281.437709</ele>
        <time>2021-11-22T11:13:34.321Z</time>
      </trkpt>
      <trkpt lat="47.564621" lon="7.774969">
        <ele>281.478352</ele>
        <time>2021-11-22T11:13:35.568Z</time>
      </trkpt>
      <trkpt lat="47.564601" lon="7.775042">
        <ele>281.510275</ele>
        <time>2021-11-22T11:13:36.550Z</time>
      </trkpt>
      <trkpt lat="47.564226" lon="7.776836">
        <ele>282.107622</ele>
        <time>2021-11-22T11:13:58.382Z</time>
      </trkpt>
      <trkpt lat="47.564027" lon="7.778327">
        <ele>282.461818</ele>
        <time>2021-11-22T11:14:14.622Z</time>
      </trkpt>
      <trkpt lat="47.563988" lon="7.778618">
        <ele>282.470370</ele>
        <time>2021-11-22T11:14:17.679Z</time>
      </trkpt>
      <trkpt lat="47.563956" lon="7.778868">
        <ele>282.377693</ele>
        <time>2021-11-22T11:14:20.401Z</time>
      </trkpt>
      <trkpt lat="47.563901" lon="7.779085">
        <ele>282.293266</ele>
        <time>2021-11-22T11:14:22.506Z</time>
      </trkpt>
      <trkpt lat="47.563891" lon="7.779124">
        <ele>282.278071</ele>
        <time>2021-11-22T11:14:22.915Z</time>
      </trkpt>
      <trkpt lat="47.563838" lon="7.779303">
        <ele>282.206876</ele>
        <time>2021-11-22T11:14:24.806Z</time>
      </trkpt>
      <trkpt lat="47.563771" lon="7.779469">
        <ele>282.136426</ele>
        <time>2021-11-22T11:14:26.474Z</time>
      </trkpt>
      <trkpt lat="47.563704" lon="7.779626">
        <ele>282.068768</ele>
        <time>2021-11-22T11:14:28.098Z</time>
      </trkpt>
      <trkpt lat="47.563652" lon="7.779747">
        <ele>282.016519</ele>
        <time>2021-11-22T11:14:29.381Z</time>
      </trkpt>
      <trkpt lat="47.563533" lon="7.779944">
        <ele>281.920217</ele>
        <time>2021-11-22T11:14:31.572Z</time>
      </trkpt>
      <trkpt lat="47.563492" lon="7.780014">
        <ele>281.886457</ele>
        <time>2021-11-22T11:14:32.352Z</time>
      </trkpt>
      <trkpt lat="47.563386" lon="7.780199">
        <ele>281.798062</ele>
        <time>2021-11-22T11:14:34.431Z</time>
      </trkpt>
      <trkpt lat="47.563299" lon="7.780330">
        <ele>281.731117</ele>
        <time>2021-11-22T11:14:35.891Z</time>
      </trkpt>
      <trkpt lat="47.563211" lon="7.780461">
        <ele>281.663791</ele>
        <time>2021-11-22T11:14:37.428Z</time>
      </trkpt>
      <trkpt lat="47.562775" lon="7.781130">
        <ele>281.231573</ele>
        <time>2021-11-22T11:14:45.318Z</time>
      </trkpt>
      <trkpt lat="47.562657" lon="7.781311">
        <ele>281.099387</ele>
        <time>2021-11-22T11:14:47.483Z</time>
      </trkpt>
      <trkpt lat="47.562099" lon="7.782166">
        <ele>280.474650</ele>
        <time>2021-11-22T11:14:57.662Z</time>
      </trkpt>
      <trkpt lat="47.561943" lon="7.782422">
        <ele>280.293480</ele>
        <time>2021-11-22T11:15:00.601Z</time>
      </trkpt>
      <trkpt lat="47.561822" lon="7.782640">
        <ele>280.145222</ele>
        <time>2021-11-22T11:15:02.974Z</time>
      </trkpt>
      <trkpt lat="47.561610" lon="7.782977">
        <ele>280.016035</ele>
        <time>2021-11-22T11:15:06.937Z</time>
      </trkpt>
      <trkpt lat="47.561406" lon="7.783302">
        <ele>279.895642</ele>
        <time>2021-11-22T11:15:10.910Z</time>
      </trkpt>
      <trkpt lat="47.561312" lon="7.783440">
        <ele>279.842457</ele>
        <time>2021-11-22T11:15:12.686Z</time>
      </trkpt>
      <trkpt lat="47.561041" lon="7.783716">
        <ele>279.710284</ele>
        <time>2021-11-22T11:15:17.194Z</time>
      </trkpt>
      <trkpt lat="47.560877" lon="7.783815">
        <ele>279.639105</ele>
        <time>2021-11-22T11:15:19.762Z</time>
      </trkpt>
      <trkpt lat="47.560427" lon="7.783951">
        <ele>279.454504</ele>
        <time>2021-11-22T11:15:26.296Z</time>
      </trkpt>
      <trkpt lat="47.559876" lon="7.784127">
        <ele>279.192389</ele>
        <time>2021-11-22T11:15:34.123Z</time>
      </trkpt>
      <trkpt lat="47.559415" lon="7.784281">
        <ele>278.966050</ele>
        <time>2021-11-22T11:15:40.398Z</time>
      </trkpt>
      <trkpt lat="47.559319" lon="7.784326">
        <ele>278.917825</ele>
        <time>2021-11-22T11:15:41.728Z</time>
      </trkpt>
      <trkpt lat="47.559229" lon="7.784376">
        <ele>278.871789</ele>
        <time>2021-11-22T11:15:42.999Z</time>
      </trkpt>
      <trkpt lat="47.559117" lon="7.784473">
        <ele>278.809656</ele>
        <time>2021-11-22T11:15:44.702Z</time>
      </trkpt>
      <trkpt lat="47.559008" lon="7.784639">
        <ele>278.734795</ele>
        <time>2021-11-22T11:15:46.779Z</time>
      </trkpt>
      <trkpt lat="47.558986" lon="7.784674">
        <ele>278.719336</ele>
        <time>2021-11-22T11:15:47.208Z</time>
      </trkpt>
      <trkpt lat="47.558920" lon="7.784817">
        <ele>278.663340</ele>
        <time>2021-11-22T11:15:48.747Z</time>
      </trkpt>
      <trkpt lat="47.558822" lon="7.785030">
        <ele>278.580017</ele>
        <time>2021-11-22T11:15:51.024Z</time>
      </trkpt>
      <trkpt lat="47.558782" lon="7.785128">
        <ele>278.509062</ele>
        <time>2021-11-22T11:15:52.028Z</time>
      </trkpt>
      <trkpt lat="47.558747" lon="7.785215">
        <ele>278.353668</ele>
        <time>2021-11-22T11:15:52.904Z</time>
      </trkpt>
      <trkpt lat="47.558660" lon="7.785434">
        <ele>277.963782</ele>
        <time>2021-11-22T11:15:55.094Z</time>
      </trkpt>
      <trkpt lat="47.558577" lon="7.785598">
        <ele>277.649276</ele>
        <time>2021-11-22T11:15:56.846Z</time>
      </trkpt>
      <trkpt lat="47.558367" lon="7.785913">
        <ele>276.969944</ele>
        <time>2021-11-22T11:16:00.465Z</time>
      </trkpt>
      <trkpt lat="47.558166" lon="7.786166">
        <ele>276.370376</ele>
        <time>2021-11-22T11:16:03.400Z</time>
      </trkpt>
      <trkpt lat="47.558071" lon="7.786282">
        <ele>276.090519</ele>
        <time>2021-11-22T11:16:04.722Z</time>
      </trkpt>
      <trkpt lat="47.558006" lon="7.786349">
        <ele>275.910508</ele>
        <time>2021-11-22T11:16:05.561Z</time>
      </trkpt>
      <trkpt lat="47.557921" lon="7.786413">
        <ele>275.693749</ele>
        <time>2021-11-22T11:16:06.555Z</time>
      </trkpt>
      <trkpt lat="47.557901" lon="7.786427">
        <ele>275.643462</ele>
        <time>2021-11-22T11:16:06.773Z</time>
      </trkpt>
      <trkpt lat="47.557823" lon="7.786486">
        <ele>275.444365</ele>
        <time>2021-11-22T11:16:07.669Z</time>
      </trkpt>
      <trkpt lat="47.557711" lon="7.786536">
        <ele>275.178434</ele>
        <time>2021-11-22T11:16:08.842Z</time>
      </trkpt>
      <trkpt lat="47.557562" lon="7.786575">
        <ele>274.834445</ele>
        <time>2021-11-22T11:16:10.314Z</time>
      </trkpt>
      <trkpt lat="47.557490" lon="7.786586">
        <ele>274.669888</ele>
        <time>2021-11-22T11:16:11.022Z</time>
      </trkpt>
      <trkpt lat="47.557180" lon="7.786638">
        <ele>273.597443</ele>
        <time>2021-11-22T11:16:13.991Z</time>
      </trkpt>
      <trkpt lat="47.557118" lon="7.786638">
        <ele>273.354577</ele>
        <time>2021-11-22T11:16:14.573Z</time>
      </trkpt>
      <trkpt lat="47.557035" lon="7.786628">
        <ele>273.028377</ele>
        <time>2021-11-22T11:16:15.352Z</time>
      </trkpt>
      <trkpt lat="47.556958" lon="7.786609">
        <ele>272.722600</ele>
        <time>2021-11-22T11:16:16.092Z</time>
      </trkpt>
      <trkpt lat="47.556914" lon="7.786662">
        <ele>272.500481</ele>
        <time>2021-11-22T11:16:16.628Z</time>
      </trkpt>
      <trkpt lat="47.556883" lon="7.786718">
        <ele>272.309009</ele>
        <time>2021-11-22T11:16:17.081Z</time>
      </trkpt>
      <trkpt lat="47.556812" lon="7.787001">
        <ele>271.510860</ele>
        <time>2021-11-22T11:16:19.018Z</time>
      </trkpt>
      <trkpt lat="47.556783" lon="7.787207">
        <ele>270.954566</ele>
        <time>2021-11-22T11:16:20.376Z</time>
      </trkpt>
      <trkpt lat="47.556658" lon="7.787468">
        <ele>270.108509</ele>
        <time>2021-11-22T11:16:22.456Z</time>
      </trkpt>
      <trkpt lat="47.556539" lon="7.787710">
        <ele>269.316953</ele>
        <time>2021-11-22T11:16:24.426Z</time>
      </trkpt>
      <trkpt lat="47.556357" lon="7.788058">
        <ele>268.153081</ele>
        <time>2021-11-22T11:16:27.392Z</time>
      </trkpt>
      <trkpt lat="47.556249" lon="7.788270">
        <ele>267.450893</ele>
        <time>2021-11-22T11:16:29.212Z</time>
      </trkpt>
      <trkpt lat="47.556137" lon="7.788488">
        <ele>267.487929</ele>
        <time>2021-11-22T11:16:31.119Z</time>
      </trkpt>
      <trkpt lat="47.556111" lon="7.788537">
        <ele>267.504781</ele>
        <time>2021-11-22T11:16:31.545Z</time>
      </trkpt>
      <trkpt lat="47.556069" lon="7.788614">
        <ele>267.531548</ele>
        <time>2021-11-22T11:16:32.289Z</time>
      </trkpt>
      <trkpt lat="47.555936" lon="7.788828">
        <ele>267.610201</ele>
        <time>2021-11-22T11:16:34.533Z</time>
      </trkpt>
      <trkpt lat="47.555085" lon="7.789685">
        <ele>268.022406</ele>
        <time>2021-11-22T11:17:16.864Z</time>
      </trkpt>
      <trkpt lat="47.555062" lon="7.789726">
        <ele>268.036820</ele>
        <time>2021-11-22T11:17:18.588Z</time>
      </trkpt>
      <trkpt lat="47.555052" lon="7.789771">
        <ele>268.049629</ele>
        <time>2021-11-22T11:17:20.041Z</time>
      </trkpt>
      <trkpt lat="47.555031" lon="7.789894">
        <ele>268.083932</ele>
        <time>2021-11-22T11:17:24.272Z</time>
      </trkpt>
      <trkpt lat="47.554999" lon="7.790090">
        <ele>268.141686</ele>
        <time>2021-11-22T11:17:31.424Z</time>
      </trkpt>
      <trkpt lat="47.554865" lon="7.790678">
        <ele>269.209703</ele>
        <time>2021-11-22T11:17:52.579Z</time>
      </trkpt>
      <trkpt lat="47.554858" lon="7.790696">
        <ele>269.245453</ele>
        <time>2021-11-22T11:17:53.577Z</time>
      </trkpt>
      <trkpt lat="47.554788" lon="7.790844">
        <ele>269.556465</ele>
        <time>2021-11-22T11:17:59.143Z</time>
      </trkpt>
      <trkpt lat="47.554756" lon="7.790897">
        <ele>269.678845</ele>
        <time>2021-11-22T11:18:01.708Z</time>
      </trkpt>
      <trkpt lat="47.554756" lon="7.790897">
        <ele>269.678845</ele>
        <time>2021-11-22T11:18:01.730Z</time>
      </trkpt>
      <trkpt lat="47.554756" lon="7.790897">
        <ele>269.678845</ele>
        <time>2021-11-22T11:18:01.733Z</time>
      </trkpt>
      <trkpt lat="47.554911" lon="7.791459">
        <ele>270.723630</ele>
        <time>2021-11-22T11:18:21.568Z</time>
      </trkpt>
      <trkpt lat="47.555027" lon="7.791948">
        <ele>271.615615</ele>
        <time>2021-11-22T11:18:37.807Z</time>
      </trkpt>
      <trkpt lat="47.555085" lon="7.792163">
        <ele>272.014070</ele>
        <time>2021-11-22T11:18:45.087Z</time>
      </trkpt>
      <trkpt lat="47.555127" lon="7.792307">
        <ele>272.284029</ele>
        <time>2021-11-22T11:18:49.486Z</time>
      </trkpt>
      <trkpt lat="47.555237" lon="7.792734">
        <ele>272.973615</ele>
        <time>2021-11-22T11:19:03.615Z</time>
      </trkpt>
      <trkpt lat="47.555277" lon="7.793131">
        <ele>273.471021</ele>
        <time>2021-11-22T11:19:15.756Z</time>
      </trkpt>
      <trkpt lat="47.555274" lon="7.793423">
        <ele>273.832903</ele>
        <time>2021-11-22T11:19:24.415Z</time>
      </trkpt>
      <trkpt lat="47.555281" lon="7.793955">
        <ele>274.492271</ele>
        <time>2021-11-22T11:19:39.938Z</time>
      </trkpt>
      <trkpt lat="47.555282" lon="7.794033">
        <ele>274.588944</ele>
        <time>2021-11-22T11:19:42.220Z</time>
      </trkpt>
      <trkpt lat="47.555288" lon="7.794318">
        <ele>274.942281</ele>
        <time>2021-11-22T11:19:50.733Z</time>
      </trkpt>
      <trkpt lat="47.555288" lon="7.794496">
        <ele>275.162855</ele>
        <time>2021-11-22T11:19:55.785Z</time>
      </trkpt>
      <trkpt lat="47.555141" lon="7.794516">
        <ele>275.433904</ele>
        <time>2021-11-22T11:20:02.184Z</time>
      </trkpt>
      <trkpt lat="47.555010" lon="7.794553">
        <ele>275.678770</ele>
        <time>2021-11-22T11:20:08.036Z</time>
      </trkpt>
      <trkpt lat="47.555010" lon="7.794553">
        <ele>275.678770</ele>
        <time>2021-11-22T11:20:08.099Z</time>
      </trkpt>
      <trkpt lat="47.554864" lon="7.794599">
        <ele>275.952841</ele>
        <time>2021-11-22T11:20:14.454Z</time>
      </trkpt>
      <trkpt lat="47.554495" lon="7.794723">
        <ele>277.079834</ele>
        <time>2021-11-22T11:20:31.858Z</time>
      </trkpt>
      <trkpt lat="47.554352" lon="7.794791">
        <ele>277.547603</ele>
        <time>2021-11-22T11:20:39.107Z</time>
      </trkpt>
      <trkpt lat="47.554254" lon="7.794823">
        <ele>277.860163</ele>
        <time>2021-11-22T11:20:43.847Z</time>
      </trkpt>
      <trkpt lat="47.554004" lon="7.794824">
        <ele>278.638828</ele>
        <time>2021-11-22T11:20:56.048Z</time>
      </trkpt>
      <trkpt lat="47.553930" lon="7.794811">
        <ele>278.870926</ele>
        <time>2021-11-22T11:20:59.908Z</time>
      </trkpt>
      <trkpt lat="47.553883" lon="7.794947">
        <ele>279.192107</ele>
        <time>2021-11-22T11:21:03.319Z</time>
      </trkpt>
      <trkpt lat="47.553854" lon="7.795042">
        <ele>279.411281</ele>
        <time>2021-11-22T11:21:05.669Z</time>
      </trkpt>
      <trkpt lat="47.553847" lon="7.795063">
        <ele>279.460515</ele>
        <time>2021-11-22T11:21:06.225Z</time>
      </trkpt>
      <trkpt lat="47.553724" lon="7.795281">
        <ele>280.057810</ele>
        <time>2021-11-22T11:21:13.288Z</time>
      </trkpt>
      <trkpt lat="47.553702" lon="7.795313">
        <ele>280.153831</ele>
        <time>2021-11-22T11:21:14.449Z</time>
      </trkpt>
      <trkpt lat="47.553628" lon="7.795414">
        <ele>280.467197</ele>
        <time>2021-11-22T11:21:17.859Z</time>
      </trkpt>
      <trkpt lat="47.553580" lon="7.795460">
        <ele>280.645245</ele>
        <time>2021-11-22T11:21:19.928Z</time>
      </trkpt>
      <trkpt lat="47.553379" lon="7.795607">
        <ele>281.343397</ele>
        <time>2021-11-22T11:21:28.073Z</time>
      </trkpt>
      <trkpt lat="47.553256" lon="7.795697">
        <ele>281.826627</ele>
        <time>2021-11-22T11:21:32.899Z</time>
      </trkpt>
      <trkpt lat="47.553218" lon="7.795662">
        <ele>282.021014</ele>
        <time>2021-11-22T11:21:34.089Z</time>
      </trkpt>
      <trkpt lat="47.553188" lon="7.795642">
        <ele>282.163934</ele>
        <time>2021-11-22T11:21:35.024Z</time>
      </trkpt>
      <trkpt lat="47.553162" lon="7.795633">
        <ele>282.279932</ele>
        <time>2021-11-22T11:21:35.958Z</time>
      </trkpt>
      <trkpt lat="47.553139" lon="7.795630">
        <ele>282.380241</ele>
        <time>2021-11-22T11:21:36.642Z</time>
      </trkpt>
      <trkpt lat="47.552930" lon="7.795600">
        <ele>283.292489</ele>
        <time>2021-11-22T11:21:42.908Z</time>
      </trkpt>
      <trkpt lat="47.552899" lon="7.795865">
        <ele>284.081089</ele>
        <time>2021-11-22T11:21:48.236Z</time>
      </trkpt>
      <trkpt lat="47.552886" lon="7.795976">
        <ele>284.411420</ele>
        <time>2021-11-22T11:21:50.651Z</time>
      </trkpt>
      <trkpt lat="47.552817" lon="7.796239">
        <ele>285.238787</ele>
        <time>2021-11-22T11:21:56.722Z</time>
      </trkpt>
      <trkpt lat="47.552762" lon="7.796425">
        <ele>285.834213</ele>
        <time>2021-11-22T11:22:01.409Z</time>
      </trkpt>
      <trkpt lat="47.552493" lon="7.797048">
        <ele>288.002787</ele>
        <time>2021-11-22T11:22:18.287Z</time>
      </trkpt>
      <trkpt lat="47.552152" lon="7.797876">
        <ele>290.643413</ele>
        <time>2021-11-22T11:22:40.354Z</time>
      </trkpt>
      <trkpt lat="47.552084" lon="7.798083">
        <ele>291.220591</ele>
        <time>2021-11-22T11:22:45.894Z</time>
      </trkpt>
      <trkpt lat="47.551948" lon="7.798607">
        <ele>292.628100</ele>
        <time>2021-11-22T11:22:57.704Z</time>
      </trkpt>
      <trkpt lat="47.551805" lon="7.799326">
        <ele>294.507349</ele>
        <time>2021-11-22T11:23:11.591Z</time>
      </trkpt>
      <trkpt lat="47.551793" lon="7.799434">
        <ele>294.781761</ele>
        <time>2021-11-22T11:23:13.875Z</time>
      </trkpt>
      <trkpt lat="47.551754" lon="7.799766">
        <ele>295.626636</ele>
        <time>2021-11-22T11:23:20.225Z</time>
      </trkpt>
      <trkpt lat="47.551712" lon="7.800249">
        <ele>296.401232</ele>
        <time>2021-11-22T11:23:29.145Z</time>
      </trkpt>
      <trkpt lat="47.551704" lon="7.800451">
        <ele>296.595399</ele>
        <time>2021-11-22T11:23:32.330Z</time>
      </trkpt>
      <trkpt lat="47.551672" lon="7.801147">
        <ele>297.264810</ele>
        <time>2021-11-22T11:23:41.354Z</time>
      </trkpt>
      <trkpt lat="47.551669" lon="7.801438">
        <ele>297.544079</ele>
        <time>2021-11-22T11:23:45.932Z</time>
      </trkpt>
      <trkpt lat="47.551666" lon="7.801632">
        <ele>297.730285</ele>
        <time>2021-11-22T11:23:47.945Z</time>
      </trkpt>
      <trkpt lat="47.551669" lon="7.801853">
        <ele>297.942394</ele>
        <time>2021-11-22T11:23:51.203Z</time>
      </trkpt>
      <trkpt lat="47.551671" lon="7.802077">
        <ele>298.157357</ele>
        <time>2021-11-22T11:23:53.520Z</time>
      </trkpt>
      <trkpt lat="47.551679" lon="7.802228">
        <ele>298.302699</ele>
        <time>2021-11-22T11:23:54.640Z</time>
      </trkpt>
      <trkpt lat="47.551688" lon="7.802394">
        <ele>298.462501</ele>
        <time>2021-11-22T11:23:57.597Z</time>
      </trkpt>
      <trkpt lat="47.551700" lon="7.802648">
        <ele>298.698369</ele>
        <time>2021-11-22T11:23:59.876Z</time>
      </trkpt>
      <trkpt lat="47.551732" lon="7.803125">
        <ele>299.003568</ele>
        <time>2021-11-22T11:24:06.027Z</time>
      </trkpt>
      <trkpt lat="47.551744" lon="7.803277">
        <ele>299.101005</ele>
        <time>2021-11-22T11:24:07.234Z</time>
      </trkpt>
      <trkpt lat="47.551751" lon="7.803369">
        <ele>299.159952</ele>
        <time>2021-11-22T11:24:08.909Z</time>
      </trkpt>
      <trkpt lat="47.551692" lon="7.803510">
        <ele>299.265579</ele>
        <time>2021-11-22T11:24:12.496Z</time>
      </trkpt>
      <trkpt lat="47.551741" lon="7.804294">
        <ele>299.766882</ele>
        <time>2021-11-22T11:24:25.094Z</time>
      </trkpt>
      <trkpt lat="47.551744" lon="7.804473">
        <ele>299.880885</ele>
        <time>2021-11-22T11:24:28.129Z</time>
      </trkpt>
      <trkpt lat="47.551731" lon="7.804667">
        <ele>300.005011</ele>
        <time>2021-11-22T11:24:32.230Z</time>
      </trkpt>
      <trkpt lat="47.551709" lon="7.805000">
        <ele>300.218043</ele>
        <time>2021-11-22T11:24:36.770Z</time>
      </trkpt>
      <trkpt lat="47.551681" lon="7.805477">
        <ele>300.429546</ele>
        <time>2021-11-22T11:24:44.516Z</time>
      </trkpt>
      <trkpt lat="47.551671" lon="7.806117">
        <ele>300.573740</ele>
        <time>2021-11-22T11:24:54.605Z</time>
      </trkpt>
      <trkpt lat="47.551651" lon="7.806246">
        <ele>300.603553</ele>
        <time>2021-11-22T11:24:57.508Z</time>
      </trkpt>
      <trkpt lat="47.551895" lon="7.806278">
        <ele>300.685302</ele>
        <time>2021-11-22T11:25:01.034Z</time>
      </trkpt>
      <trkpt lat="47.552015" lon="7.806307">
        <ele>300.725879</ele>
        <time>2021-11-22T11:25:03.904Z</time>
      </trkpt>
      <trkpt lat="47.552068" lon="7.806445">
        <ele>300.761642</ele>
        <time>2021-11-22T11:25:05.361Z</time>
      </trkpt>
      <trkpt lat="47.552398" lon="7.808880">
        <ele>300.372079</ele>
        <time>2021-11-22T11:25:27.504Z</time>
      </trkpt>
      <trkpt lat="47.552566" lon="7.810386">
        <ele>299.744727</ele>
        <time>2021-11-22T11:25:40.515Z</time>
      </trkpt>
      <trkpt lat="47.552711" lon="7.812955">
        <ele>298.598817</ele>
        <time>2021-11-22T11:26:03.123Z</time>
      </trkpt>
      <trkpt lat="47.552844" lon="7.816432">
        <ele>297.492863</ele>
        <time>2021-11-22T11:26:33.616Z</time>
      </trkpt>
      <trkpt lat="47.552948" lon="7.819358">
        <ele>297.833263</ele>
        <time>2021-11-22T11:27:04.846Z</time>
      </trkpt>
      <trkpt lat="47.552896" lon="7.820699">
        <ele>298.299998</ele>
        <time>2021-11-22T11:27:20.930Z</time>
      </trkpt>
      <trkpt lat="47.552567" lon="7.824508">
        <ele>300.222724</ele>
        <time>2021-11-22T11:28:07.415Z</time>
      </trkpt>
      <trkpt lat="47.552491" lon="7.827227">
        <ele>301.785224</ele>
        <time>2021-11-22T11:28:39.155Z</time>
      </trkpt>
      <trkpt lat="47.552515" lon="7.828094">
        <ele>302.395668</ele>
        <time>2021-11-22T11:28:50.865Z</time>
      </trkpt>
      <trkpt lat="47.552477" lon="7.828294">
        <ele>302.541836</ele>
        <time>2021-11-22T11:28:53.482Z</time>
      </trkpt>
      <trkpt lat="47.552421" lon="7.828481">
        <ele>302.685759</ele>
        <time>2021-11-22T11:28:56.413Z</time>
      </trkpt>
      <trkpt lat="47.552404" lon="7.828582">
        <ele>302.763946</ele>
        <time>2021-11-22T11:28:58.098Z</time>
      </trkpt>
      <trkpt lat="47.552416" lon="7.828822">
        <ele>303.142527</ele>
        <time>2021-11-22T11:29:01.331Z</time>
      </trkpt>
      <trkpt lat="47.552554" lon="7.829266">
        <ele>303.911491</ele>
        <time>2021-11-22T11:29:08.683Z</time>
      </trkpt>
      <trkpt lat="47.552645" lon="7.830686">
        <ele>306.155343</ele>
        <time>2021-11-22T11:29:31.989Z</time>
      </trkpt>
      <trkpt lat="47.552690" lon="7.832598">
        <ele>309.793729</ele>
        <time>2021-11-22T11:30:07.466Z</time>
      </trkpt>
      <trkpt lat="47.552616" lon="7.832891">
        <ele>310.425403</ele>
        <time>2021-11-22T11:30:12.830Z</time>
      </trkpt>
      <trkpt lat="47.552556" lon="7.832977">
        <ele>310.675150</ele>
        <time>2021-11-22T11:30:15.561Z</time>
      </trkpt>
      <trkpt lat="47.552511" lon="7.833072">
        <ele>310.909498</ele>
        <time>2021-11-22T11:30:17.587Z</time>
      </trkpt>
      <trkpt lat="47.552467" lon="7.833198">
        <ele>311.195947</ele>
        <time>2021-11-22T11:30:19.989Z</time>
      </trkpt>
      <trkpt lat="47.552452" lon="7.833284">
        <ele>311.375298</ele>
        <time>2021-11-22T11:30:21.599Z</time>
      </trkpt>
      <trkpt lat="47.552696" lon="7.833789">
        <ele>312.548490</ele>
        <time>2021-11-22T11:30:32.631Z</time>
      </trkpt>
      <trkpt lat="47.552700" lon="7.833938">
        <ele>312.768727</ele>
        <time>2021-11-22T11:30:35.575Z</time>
      </trkpt>
      <trkpt lat="47.552714" lon="7.835010">
        <ele>314.352294</ele>
        <time>2021-11-22T11:30:54.052Z</time>
      </trkpt>
      <trkpt lat="47.552719" lon="7.836790">
        <ele>316.748282</ele>
        <time>2021-11-22T11:31:19.336Z</time>
      </trkpt>
      <trkpt lat="47.552697" lon="7.838068">
        <ele>318.022844</ele>
        <time>2021-11-22T11:31:37.059Z</time>
      </trkpt>
      <trkpt lat="47.552736" lon="7.838578">
        <ele>318.534560</ele>
        <time>2021-11-22T11:31:44.189Z</time>
      </trkpt>
      <trkpt lat="47.552802" lon="7.839009">
        <ele>318.980541</ele>
        <time>2021-11-22T11:31:50.328Z</time>
      </trkpt>
      <trkpt lat="47.552804" lon="7.839017">
        <ele>318.989892</ele>
        <time>2021-11-22T11:31:50.534Z</time>
      </trkpt>
      <trkpt lat="47.552939" lon="7.839526">
        <ele>319.589362</ele>
        <time>2021-11-22T11:31:58.210Z</time>
      </trkpt>
      <trkpt lat="47.553231" lon="7.841529">
        <ele>321.835549</ele>
        <time>2021-11-22T11:32:28.258Z</time>
      </trkpt>
      <trkpt lat="47.553216" lon="7.841849">
        <ele>322.076082</ele>
        <time>2021-11-22T11:32:32.767Z</time>
      </trkpt>
      <trkpt lat="47.553123" lon="7.842222">
        <ele>322.371470</ele>
        <time>2021-11-22T11:32:37.997Z</time>
      </trkpt>
      <trkpt lat="47.553133" lon="7.842431">
        <ele>322.527116</ele>
        <time>2021-11-22T11:32:41.126Z</time>
      </trkpt>
      <trkpt lat="47.552833" lon="7.842495">
        <ele>322.860724</ele>
        <time>2021-11-22T11:32:48.435Z</time>
      </trkpt>
      <trkpt lat="47.552380" lon="7.842592">
        <ele>323.364511</ele>
        <time>2021-11-22T11:32:59.484Z</time>
      </trkpt>
      <trkpt lat="47.551922" lon="7.842704">
        <ele>323.860699</ele>
        <time>2021-11-22T11:33:10.050Z</time>
      </trkpt>
      <trkpt lat="47.551668" lon="7.842770">
        <ele>324.065869</ele>
        <time>2021-11-22T11:33:16.008Z</time>
      </trkpt>
      <trkpt lat="47.551454" lon="7.842815">
        <ele>324.237837</ele>
        <time>2021-11-22T11:33:20.629Z</time>
      </trkpt>
      <trkpt lat="47.551344" lon="7.844621">
        <ele>325.211570</ele>
        <time>2021-11-22T11:33:42.660Z</time>
      </trkpt>
      <trkpt lat="47.551250" lon="7.846030">
        <ele>326.461204</ele>
        <time>2021-11-22T11:34:01.551Z</time>
      </trkpt>
      <trkpt lat="47.551205" lon="7.846694">
        <ele>327.063580</ele>
        <time>2021-11-22T11:34:10.646Z</time>
      </trkpt>
      <trkpt lat="47.551184" lon="7.847206">
        <ele>327.526591</ele>
        <time>2021-11-22T11:34:18.023Z</time>
      </trkpt>
      <trkpt lat="47.551196" lon="7.847517">
        <ele>327.837829</ele>
        <time>2021-11-22T11:34:22.604Z</time>
      </trkpt>
      <trkpt lat="47.551669" lon="7.848083">
        <ele>328.814988</ele>
        <time>2021-11-22T11:34:36.052Z</time>
      </trkpt>
      <trkpt lat="47.551242" lon="7.848702">
        <ele>329.775093</ele>
        <time>2021-11-22T11:34:48.816Z</time>
      </trkpt>
      <trkpt lat="47.550975" lon="7.849066">
        <ele>330.358225</ele>
        <time>2021-11-22T11:34:56.132Z</time>
      </trkpt>
      <trkpt lat="47.550810" lon="7.849346">
        <ele>330.696834</ele>
        <time>2021-11-22T11:35:02.525Z</time>
      </trkpt>
      <trkpt lat="47.550488" lon="7.850081">
        <ele>331.357607</ele>
        <time>2021-11-22T11:35:18.002Z</time>
      </trkpt>
      <trkpt lat="47.550333" lon="7.850434">
        <ele>331.675174</ele>
        <time>2021-11-22T11:35:25.332Z</time>
      </trkpt>
      <trkpt lat="47.550009" lon="7.851173">
        <ele>332.339698</ele>
        <time>2021-11-22T11:35:39.926Z</time>
      </trkpt>
      <trkpt lat="47.549853" lon="7.851521">
        <ele>332.550273</ele>
        <time>2021-11-22T11:35:46.281Z</time>
      </trkpt>
      <trkpt lat="47.549652" lon="7.851969">
        <ele>332.512911</ele>
        <time>2021-11-22T11:35:53.805Z</time>
      </trkpt>
      <trkpt lat="47.549535" lon="7.852225">
        <ele>332.491438</ele>
        <time>2021-11-22T11:35:57.861Z</time>
      </trkpt>
      <trkpt lat="47.549285" lon="7.852784">
        <ele>332.444863</ele>
        <time>2021-11-22T11:36:06.496Z</time>
      </trkpt>
      <trkpt lat="47.549708" lon="7.853279">
        <ele>332.389396</ele>
        <time>2021-11-22T11:36:16.893Z</time>
      </trkpt>
      <trkpt lat="47.550221" lon="7.853833">
        <ele>332.103775</ele>
        <time>2021-11-22T11:36:28.808Z</time>
      </trkpt>
      <trkpt lat="47.549883" lon="7.854434">
        <ele>331.809699</ele>
        <time>2021-11-22T11:36:35.486Z</time>
      </trkpt>
      <trkpt lat="47.549566" lon="7.855225">
        <ele>331.463882</ele>
        <time>2021-11-22T11:36:46.630Z</time>
      </trkpt>
      <trkpt lat="47.549362" lon="7.855774">
        <ele>331.327328</ele>
        <time>2021-11-22T11:36:54.552Z</time>
      </trkpt>
      <trkpt lat="47.548887" lon="7.857308">
        <ele>331.129403</ele>
        <time>2021-11-22T11:37:16.660Z</time>
      </trkpt>
      <trkpt lat="47.548743" lon="7.857692">
        <ele>331.077886</ele>
        <time>2021-11-22T11:37:22.632Z</time>
      </trkpt>
      <trkpt lat="47.548701" lon="7.857893">
        <ele>331.088628</ele>
        <time>2021-11-22T11:37:25.603Z</time>
      </trkpt>
      <trkpt lat="47.548686" lon="7.857973">
        <ele>331.131880</ele>
        <time>2021-11-22T11:37:26.727Z</time>
      </trkpt>
      <trkpt lat="47.548611" lon="7.858381">
        <ele>331.352159</ele>
        <time>2021-11-22T11:37:32.941Z</time>
      </trkpt>
      <trkpt lat="47.548334" lon="7.859801">
        <ele>332.122150</ele>
        <time>2021-11-22T11:37:55.978Z</time>
      </trkpt>
      <trkpt lat="47.548049" lon="7.860929">
        <ele>333.109504</ele>
        <time>2021-11-22T11:38:16.997Z</time>
      </trkpt>
      <trkpt lat="47.547930" lon="7.861711">
        <ele>334.025288</ele>
        <time>2021-11-22T11:38:31.760Z</time>
      </trkpt>
      <trkpt lat="47.547568" lon="7.863151">
        <ele>335.607064</ele>
        <time>2021-11-22T11:39:00.888Z</time>
      </trkpt>
      <trkpt lat="47.547320" lon="7.863864">
        <ele>335.971974</ele>
        <time>2021-11-22T11:39:14.828Z</time>
      </trkpt>
      <trkpt lat="47.546974" lon="7.864423">
        <ele>336.317028</ele>
        <time>2021-11-22T11:39:25.651Z</time>
      </trkpt>
      <trkpt lat="47.546885" lon="7.864500">
        <ele>336.386494</ele>
        <time>2021-11-22T11:39:28.736Z</time>
      </trkpt>
      <trkpt lat="47.546894" lon="7.864837">
        <ele>336.539931</ele>
        <time>2021-11-22T11:39:32.620Z</time>
      </trkpt>
      <trkpt lat="47.546889" lon="7.865225">
        <ele>336.688749</ele>
        <time>2021-11-22T11:39:38.045Z</time>
      </trkpt>
      <trkpt lat="47.546819" lon="7.865489">
        <ele>336.520897</ele>
        <time>2021-11-22T11:39:41.990Z</time>
      </trkpt>
      <trkpt lat="47.546510" lon="7.865766">
        <ele>336.204254</ele>
        <time>2021-11-22T11:39:48.624Z</time>
      </trkpt>
      <trkpt lat="47.546327" lon="7.865959">
        <ele>336.007311</ele>
        <time>2021-11-22T11:39:52.139Z</time>
      </trkpt>
      <trkpt lat="47.546096" lon="7.866147">
        <ele>335.776240</ele>
        <time>2021-11-22T11:39:56.695Z</time>
      </trkpt>
      <trkpt lat="47.545240" lon="7.866887">
        <ele>335.127506</ele>
        <time>2021-11-22T11:40:13.368Z</time>
      </trkpt>
      <trkpt lat="47.545160" lon="7.866985">
        <ele>335.127506</ele>
        <time>2021-11-22T11:40:15.324Z</time>
      </trkpt>
      <trkpt lat="47.545003" lon="7.867278">
        <ele>335.127506</ele>
        <time>2021-11-22T11:40:20.992Z</time>
      </trkpt>
      <trkpt lat="47.544568" lon="7.867693">
        <ele>335.127506</ele>
        <time>2021-11-22T11:40:33.552Z</time>
      </trkpt>
      <trkpt lat="47.544469" lon="7.867776">
        <ele>335.127506</ele>
        <time>2021-11-22T11:40:36.119Z</time>
      </trkpt>
      <trkpt lat="47.544410" lon="7.867825">
        <ele>335.127506</ele>
        <time>2021-11-22T11:40:37.900Z</time>
      </trkpt>
      <trkpt lat="47.544246" lon="7.867967">
        <ele>335.127506</ele>
        <time>2021-11-22T11:40:42.570Z</time>
      </trkpt>
      <trkpt lat="47.544214" lon="7.867988">
        <ele>335.127506</ele>
        <time>2021-11-22T11:40:43.367Z</time>
      </trkpt>
      <trkpt lat="47.543801" lon="7.868269">
        <ele>335.127506</ele>
        <time>2021-11-22T11:40:54.388Z</time>
      </trkpt>
      <trkpt lat="47.543657" lon="7.868359">
        <ele>335.127506</ele>
        <time>2021-11-22T11:40:58.687Z</time>
      </trkpt>
      <trkpt lat="47.543334" lon="7.868570">
        <ele>335.127506</ele>
        <time>2021-11-22T11:41:06.121Z</time>
      </trkpt>
    </trkseg>
  </trk>
</gpx>